<?xml version="1.0" encoding="UTF-8"?>
<gpx version="1.1" creator="https://www.youtrack.es" xsi:schemaLocation="http://www.topografix.com/GPX/1/1 http://www.topografix.com/GPX/1/1/gpx.xsd http://www.garmin.com/xmlschemas/GpxExtensions/v3 http://www.garmin.com/xmlschemas/GpxExtensionsv3.xsd http://www.garmin.com/xmlschemas/TrackPointExtension/v1 http://www.garmin.com/xmlschemas/TrackPointExtensionv1.xsd" xmlns:gpxtpx="http://www.garmin.com/xmlschemas/TrackPointExtension/v1" xmlns:gpxx="http://www.garmin.com/xmlschemas/GpxExtensions/v3" xmlns:xsi="http://www.w3.org/2001/XMLSchema-instance">
  <metadata>
    <link href="https://www.youtrack.es">
      <text>YouTrack.es</text>
    </link>
    <time>2026-05-08T14:49:56Z</time>
  </metadata>
  <trk>
    <src>https://www.youtrack.es</src>
    <link href="https://www.youtrack.es/ruta/18029-botija-guadalupe">
      <text>YouTrack.es</text>
    </link>
    <trkseg>
      <trkpt lat="39.34592000000001" lon="-6.072709999999956">
        <ele>423.4620361328125</ele>
        <time>2020-12-09T22:20:17.000Z</time>
      </trkpt>
      <trkpt lat="39.34615" lon="-6.07272">
        <ele>423.46075439453125</ele>
        <time>2020-12-09T22:20:17.005Z</time>
      </trkpt>
      <trkpt lat="39.34677000000001" lon="-6.072690000000001">
        <ele>423.4349365234375</ele>
        <time>2020-12-09T22:20:17.022Z</time>
      </trkpt>
      <trkpt lat="39.34826" lon="-6.072710000000001">
        <ele>423.09326171875</ele>
        <time>2020-12-09T22:20:17.069Z</time>
      </trkpt>
      <trkpt lat="39.34854" lon="-6.07272">
        <ele>424.41302490234375</ele>
        <time>2020-12-09T22:20:17.121Z</time>
      </trkpt>
      <trkpt lat="39.348800000000004" lon="-6.072780000000001">
        <ele>425.32666015625</ele>
        <time>2020-12-09T22:20:17.179Z</time>
      </trkpt>
      <trkpt lat="39.34893" lon="-6.07279">
        <ele>425.7705993652344</ele>
        <time>2020-12-09T22:20:17.239Z</time>
      </trkpt>
      <trkpt lat="39.34902" lon="-6.072760000000001">
        <ele>426.2186279296875</ele>
        <time>2020-12-09T22:20:17.301Z</time>
      </trkpt>
      <trkpt lat="39.34902812065817" lon="-6.07275729313281">
        <ele>426.2608337402344</ele>
        <time>2020-12-09T22:20:17.363Z</time>
      </trkpt>
      <trkpt lat="39.349500000000006" lon="-6.0726">
        <ele>428.65411376953125</ele>
        <time>2020-12-09T22:20:17.435Z</time>
      </trkpt>
      <trkpt lat="39.349610000000006" lon="-6.072590000000001">
        <ele>428.9300537109375</ele>
        <time>2020-12-09T22:20:17.509Z</time>
      </trkpt>
      <trkpt lat="39.34973" lon="-6.072620000000001">
        <ele>429.1820068359375</ele>
        <time>2020-12-09T22:20:17.586Z</time>
      </trkpt>
      <trkpt lat="39.350120000000004" lon="-6.072620000000001">
        <ele>430.11785888671875</ele>
        <time>2020-12-09T22:20:17.670Z</time>
      </trkpt>
      <trkpt lat="39.35118000000001" lon="-6.072640000000001">
        <ele>428.13775634765625</ele>
        <time>2020-12-09T22:20:17.776Z</time>
      </trkpt>
      <trkpt lat="39.35179" lon="-6.07265">
        <ele>428.84564208984375</ele>
        <time>2020-12-09T22:20:17.894Z</time>
      </trkpt>
      <trkpt lat="39.35180210943299" lon="-6.0726507451890255">
        <ele>428.8583679199219</ele>
        <time>2020-12-09T22:20:18.012Z</time>
      </trkpt>
      <trkpt lat="39.35244" lon="-6.072690000000001">
        <ele>430.6444396972656</ele>
        <time>2020-12-09T22:20:18.143Z</time>
      </trkpt>
      <trkpt lat="39.35282" lon="-6.072690000000001">
        <ele>431.99884033203125</ele>
        <time>2020-12-09T22:20:18.281Z</time>
      </trkpt>
      <trkpt lat="39.352990000000005" lon="-6.072660000000001">
        <ele>432.478759765625</ele>
        <time>2020-12-09T22:20:18.423Z</time>
      </trkpt>
      <trkpt lat="39.353170000000006" lon="-6.072660000000001">
        <ele>432.9106750488281</ele>
        <time>2020-12-09T22:20:18.568Z</time>
      </trkpt>
      <trkpt lat="39.35323" lon="-6.072640000000001">
        <ele>433.1026611328125</ele>
        <time>2020-12-09T22:20:18.715Z</time>
      </trkpt>
      <trkpt lat="39.353300000000004" lon="-6.072570000000001">
        <ele>433.4385986328125</ele>
        <time>2020-12-09T22:20:18.863Z</time>
      </trkpt>
      <trkpt lat="39.353440000000006" lon="-6.0723">
        <ele>434.42242431640625</ele>
        <time>2020-12-09T22:20:19.017Z</time>
      </trkpt>
      <trkpt lat="39.353530000000006" lon="-6.07221">
        <ele>434.6065979003906</ele>
        <time>2020-12-09T22:20:19.173Z</time>
      </trkpt>
      <trkpt lat="39.35362000000001" lon="-6.0722000000000005">
        <ele>434.798583984375</ele>
        <time>2020-12-09T22:20:19.331Z</time>
      </trkpt>
      <trkpt lat="39.35369" lon="-6.072220000000001">
        <ele>434.78570556640625</ele>
        <time>2020-12-09T22:20:19.490Z</time>
      </trkpt>
      <trkpt lat="39.35376" lon="-6.072220000000001">
        <ele>434.61773681640625</ele>
        <time>2020-12-09T22:20:19.650Z</time>
      </trkpt>
      <trkpt lat="39.35387" lon="-6.072220000000001">
        <ele>434.3537902832031</ele>
        <time>2020-12-09T22:20:19.813Z</time>
      </trkpt>
      <trkpt lat="39.354040000000005" lon="-6.07223">
        <ele>433.9698486328125</ele>
        <time>2020-12-09T22:20:19.979Z</time>
      </trkpt>
      <trkpt lat="39.35406382192954" lon="-6.0722323354669445">
        <ele>433.91827392578125</ele>
        <time>2020-12-09T22:20:20.145Z</time>
      </trkpt>
      <trkpt lat="39.35455" lon="-6.07228">
        <ele>432.9338684082031</ele>
        <time>2020-12-09T22:20:20.321Z</time>
      </trkpt>
      <trkpt lat="39.35466" lon="-6.072330000000001">
        <ele>432.7538757324219</ele>
        <time>2020-12-09T22:20:20.500Z</time>
      </trkpt>
      <trkpt lat="39.35483" lon="-6.07242">
        <ele>432.429931640625</ele>
        <time>2020-12-09T22:20:20.682Z</time>
      </trkpt>
      <trkpt lat="39.3551" lon="-6.07251">
        <ele>432.1529235839844</ele>
        <time>2020-12-09T22:20:20.870Z</time>
      </trkpt>
      <trkpt lat="39.355290000000004" lon="-6.07256">
        <ele>432.2608947753906</ele>
        <time>2020-12-09T22:20:21.062Z</time>
      </trkpt>
      <trkpt lat="39.35535" lon="-6.07258">
        <ele>432.1382751464844</ele>
        <time>2020-12-09T22:20:21.255Z</time>
      </trkpt>
      <trkpt lat="39.35546" lon="-6.07263">
        <ele>431.75433349609375</ele>
        <time>2020-12-09T22:20:21.450Z</time>
      </trkpt>
      <trkpt lat="39.35566" lon="-6.0726700000000005">
        <ele>431.1784362792969</ele>
        <time>2020-12-09T22:20:21.649Z</time>
      </trkpt>
      <trkpt lat="39.356030000000004" lon="-6.07279">
        <ele>430.5013122558594</ele>
        <time>2020-12-09T22:20:21.856Z</time>
      </trkpt>
      <trkpt lat="39.35615000000001" lon="-6.07282">
        <ele>430.3126220703125</ele>
        <time>2020-12-09T22:20:22.065Z</time>
      </trkpt>
      <trkpt lat="39.35627" lon="-6.072830000000001">
        <ele>430.0126647949219</ele>
        <time>2020-12-09T22:20:22.277Z</time>
      </trkpt>
      <trkpt lat="39.356300660213286" lon="-6.072835110028992">
        <ele>429.9329833984375</ele>
        <time>2020-12-09T22:20:22.489Z</time>
      </trkpt>
      <trkpt lat="39.356390000000005" lon="-6.072850000000001">
        <ele>429.7085266113281</ele>
        <time>2020-12-09T22:20:22.703Z</time>
      </trkpt>
      <trkpt lat="39.356500000000004" lon="-6.07289">
        <ele>429.9364929199219</ele>
        <time>2020-12-09T22:20:22.919Z</time>
      </trkpt>
      <trkpt lat="39.356680000000004" lon="-6.072900000000001">
        <ele>430.17645263671875</ele>
        <time>2020-12-09T22:20:23.139Z</time>
      </trkpt>
      <trkpt lat="39.356820000000006" lon="-6.0729500000000005">
        <ele>430.46441650390625</ele>
        <time>2020-12-09T22:20:23.362Z</time>
      </trkpt>
      <trkpt lat="39.357130000000005" lon="-6.073060000000001">
        <ele>430.4043273925781</ele>
        <time>2020-12-09T22:20:23.591Z</time>
      </trkpt>
      <trkpt lat="39.35725" lon="-6.073130000000001">
        <ele>429.8888854980469</ele>
        <time>2020-12-09T22:20:23.823Z</time>
      </trkpt>
      <trkpt lat="39.357400000000005" lon="-6.07319">
        <ele>429.13299560546875</ele>
        <time>2020-12-09T22:20:24.058Z</time>
      </trkpt>
      <trkpt lat="39.357530000000004" lon="-6.07322">
        <ele>428.5570983886719</ele>
        <time>2020-12-09T22:20:24.296Z</time>
      </trkpt>
      <trkpt lat="39.35781" lon="-6.07333">
        <ele>426.8711242675781</ele>
        <time>2020-12-09T22:20:24.540Z</time>
      </trkpt>
      <trkpt lat="39.35842" lon="-6.0734900000000005">
        <ele>423.3818054199219</ele>
        <time>2020-12-09T22:20:24.796Z</time>
      </trkpt>
      <trkpt lat="39.35859000000001" lon="-6.07352">
        <ele>422.66192626953125</ele>
        <time>2020-12-09T22:20:25.056Z</time>
      </trkpt>
      <trkpt lat="39.358760000000004" lon="-6.07357">
        <ele>422.01025390625</ele>
        <time>2020-12-09T22:20:25.319Z</time>
      </trkpt>
      <trkpt lat="39.358920000000005" lon="-6.073650000000001">
        <ele>421.3383483886719</ele>
        <time>2020-12-09T22:20:25.585Z</time>
      </trkpt>
      <trkpt lat="39.359100000000005" lon="-6.07375">
        <ele>420.88037109375</ele>
        <time>2020-12-09T22:20:25.855Z</time>
      </trkpt>
      <trkpt lat="39.359280000000005" lon="-6.07385">
        <ele>420.4244384765625</ele>
        <time>2020-12-09T22:20:26.129Z</time>
      </trkpt>
      <trkpt lat="39.35938" lon="-6.073930000000001">
        <ele>420.11248779296875</ele>
        <time>2020-12-09T22:20:26.406Z</time>
      </trkpt>
      <trkpt lat="39.35951" lon="-6.074000000000001">
        <ele>419.7028503417969</ele>
        <time>2020-12-09T22:20:26.685Z</time>
      </trkpt>
      <trkpt lat="39.359730000000006" lon="-6.07411">
        <ele>419.0429382324219</ele>
        <time>2020-12-09T22:20:26.969Z</time>
      </trkpt>
      <trkpt lat="39.359970000000004" lon="-6.07418">
        <ele>418.5030517578125</ele>
        <time>2020-12-09T22:20:27.258Z</time>
      </trkpt>
      <trkpt lat="39.36009000000001" lon="-6.07422">
        <ele>418.3862609863281</ele>
        <time>2020-12-09T22:20:27.550Z</time>
      </trkpt>
      <trkpt lat="39.360670000000006" lon="-6.07429">
        <ele>418.1345520019531</ele>
        <time>2020-12-09T22:20:27.853Z</time>
      </trkpt>
      <trkpt lat="39.36102" lon="-6.074350000000001">
        <ele>417.2852478027344</ele>
        <time>2020-12-09T22:20:28.163Z</time>
      </trkpt>
      <trkpt lat="39.361067254454085" lon="-6.074356443711908">
        <ele>417.1564025878906</ele>
        <time>2020-12-09T22:20:28.474Z</time>
      </trkpt>
      <trkpt lat="39.361900000000006" lon="-6.074470000000001">
        <ele>418.16552734375</ele>
        <time>2020-12-09T22:20:28.802Z</time>
      </trkpt>
      <trkpt lat="39.362260000000006" lon="-6.07444">
        <ele>418.3863830566406</ele>
        <time>2020-12-09T22:20:29.137Z</time>
      </trkpt>
      <trkpt lat="39.362680000000005" lon="-6.07443">
        <ele>418.8434143066406</ele>
        <time>2020-12-09T22:20:29.481Z</time>
      </trkpt>
      <trkpt lat="39.36274" lon="-6.074400000000001">
        <ele>418.9154052734375</ele>
        <time>2020-12-09T22:20:29.826Z</time>
      </trkpt>
      <trkpt lat="39.363060000000004" lon="-6.0736300000000005">
        <ele>417.6260070800781</ele>
        <time>2020-12-09T22:20:30.184Z</time>
      </trkpt>
      <trkpt lat="39.363083333219784" lon="-6.073581212852761">
        <ele>417.4223937988281</ele>
        <time>2020-12-09T22:20:30.543Z</time>
      </trkpt>
      <trkpt lat="39.36339" lon="-6.072940000000001">
        <ele>415.11865234375</ele>
        <time>2020-12-09T22:20:30.914Z</time>
      </trkpt>
      <trkpt lat="39.36354" lon="-6.07268">
        <ele>414.6267395019531</ele>
        <time>2020-12-09T22:20:31.290Z</time>
      </trkpt>
      <trkpt lat="39.363580000000006" lon="-6.07265">
        <ele>414.5427551269531</ele>
        <time>2020-12-09T22:20:31.667Z</time>
      </trkpt>
      <trkpt lat="39.363820000000004" lon="-6.0726">
        <ele>414.1947937011719</ele>
        <time>2020-12-09T22:20:32.049Z</time>
      </trkpt>
      <trkpt lat="39.36433" lon="-6.072500000000001">
        <ele>413.2447509765625</ele>
        <time>2020-12-09T22:20:32.441Z</time>
      </trkpt>
      <trkpt lat="39.36446" lon="-6.07253">
        <ele>412.7408447265625</ele>
        <time>2020-12-09T22:20:32.836Z</time>
      </trkpt>
      <trkpt lat="39.36511" lon="-6.0728100000000005">
        <ele>410.8990173339844</ele>
        <time>2020-12-09T22:20:33.244Z</time>
      </trkpt>
      <trkpt lat="39.36515253890735" lon="-6.072829194158303">
        <ele>410.8710021972656</ele>
        <time>2020-12-09T22:20:33.653Z</time>
      </trkpt>
      <trkpt lat="39.365930000000006" lon="-6.073180000000001">
        <ele>410.592529296875</ele>
        <time>2020-12-09T22:20:34.079Z</time>
      </trkpt>
      <trkpt lat="39.366080000000004" lon="-6.07322">
        <ele>410.5457458496094</ele>
        <time>2020-12-09T22:20:34.508Z</time>
      </trkpt>
      <trkpt lat="39.367000000000004" lon="-6.07333">
        <ele>407.6916198730469</ele>
        <time>2020-12-09T22:20:34.955Z</time>
      </trkpt>
      <trkpt lat="39.36713" lon="-6.073340000000001">
        <ele>407.5236511230469</ele>
        <time>2020-12-09T22:20:35.405Z</time>
      </trkpt>
      <trkpt lat="39.367179452270975" lon="-6.073337252670916">
        <ele>407.4676208496094</ele>
        <time>2020-12-09T22:20:35.856Z</time>
      </trkpt>
      <trkpt lat="39.367670000000004" lon="-6.07331">
        <ele>406.64697265625</ele>
        <time>2020-12-09T22:20:36.317Z</time>
      </trkpt>
      <trkpt lat="39.36872" lon="-6.07321">
        <ele>401.6340637207031</ele>
        <time>2020-12-09T22:20:36.799Z</time>
      </trkpt>
      <trkpt lat="39.368930000000006" lon="-6.07322">
        <ele>401.3581237792969</ele>
        <time>2020-12-09T22:20:37.285Z</time>
      </trkpt>
      <trkpt lat="39.369550000000004" lon="-6.0732800000000005">
        <ele>400.38421630859375</ele>
        <time>2020-12-09T22:20:37.783Z</time>
      </trkpt>
      <trkpt lat="39.36959688673217" lon="-6.073286758344381">
        <ele>400.2554931640625</ele>
        <time>2020-12-09T22:20:38.282Z</time>
      </trkpt>
      <trkpt lat="39.37066" lon="-6.073440000000001">
        <ele>396.9189147949219</ele>
        <time>2020-12-09T22:20:38.803Z</time>
      </trkpt>
      <trkpt lat="39.370990000000006" lon="-6.07347">
        <ele>396.71337890625</ele>
        <time>2020-12-09T22:20:39.330Z</time>
      </trkpt>
      <trkpt lat="39.371430000000004" lon="-6.07347">
        <ele>396.21630859375</ele>
        <time>2020-12-09T22:20:39.866Z</time>
      </trkpt>
      <trkpt lat="39.37207" lon="-6.07347">
        <ele>395.47064208984375</ele>
        <time>2020-12-09T22:20:40.415Z</time>
      </trkpt>
      <trkpt lat="39.37218" lon="-6.073480000000001">
        <ele>395.1227111816406</ele>
        <time>2020-12-09T22:20:40.966Z</time>
      </trkpt>
      <trkpt lat="39.37232" lon="-6.07347">
        <ele>394.57080078125</ele>
        <time>2020-12-09T22:20:41.520Z</time>
      </trkpt>
      <trkpt lat="39.37248" lon="-6.073410000000001">
        <ele>393.7069396972656</ele>
        <time>2020-12-09T22:20:42.077Z</time>
      </trkpt>
      <trkpt lat="39.37256" lon="-6.073370000000001">
        <ele>393.19976806640625</ele>
        <time>2020-12-09T22:20:42.636Z</time>
      </trkpt>
      <trkpt lat="39.37260851598487" lon="-6.073346153358233">
        <ele>392.8810729980469</ele>
        <time>2020-12-09T22:20:43.196Z</time>
      </trkpt>
      <trkpt lat="39.37315" lon="-6.073080000000001">
        <ele>389.83837890625</ele>
        <time>2020-12-09T22:20:43.768Z</time>
      </trkpt>
      <trkpt lat="39.373250000000006" lon="-6.0730200000000005">
        <ele>389.69439697265625</ele>
        <time>2020-12-09T22:20:44.342Z</time>
      </trkpt>
      <trkpt lat="39.37332000000001" lon="-6.07293">
        <ele>389.7663879394531</ele>
        <time>2020-12-09T22:20:44.918Z</time>
      </trkpt>
      <trkpt lat="39.37409" lon="-6.07199">
        <ele>388.98614501953125</ele>
        <time>2020-12-09T22:20:45.515Z</time>
      </trkpt>
      <trkpt lat="39.37431" lon="-6.071700000000001">
        <ele>388.36224365234375</ele>
        <time>2020-12-09T22:20:46.118Z</time>
      </trkpt>
      <trkpt lat="39.37435" lon="-6.0716">
        <ele>388.36224365234375</ele>
        <time>2020-12-09T22:20:46.723Z</time>
      </trkpt>
      <trkpt lat="39.37503" lon="-6.069990000000001">
        <ele>385.8546142578125</ele>
        <time>2020-12-09T22:20:47.356Z</time>
      </trkpt>
      <trkpt lat="39.3751" lon="-6.0698300000000005">
        <ele>386.2625427246094</ele>
        <time>2020-12-09T22:20:47.992Z</time>
      </trkpt>
      <trkpt lat="39.37512029879176" lon="-6.06977463988796">
        <ele>386.4130859375</ele>
        <time>2020-12-09T22:20:48.629Z</time>
      </trkpt>
      <trkpt lat="39.37521" lon="-6.06953">
        <ele>387.3558044433594</ele>
        <time>2020-12-09T22:20:49.270Z</time>
      </trkpt>
      <trkpt lat="39.37519" lon="-6.06906">
        <ele>389.659423828125</ele>
        <time>2020-12-09T22:20:49.919Z</time>
      </trkpt>
      <trkpt lat="39.37520000000001" lon="-6.06887">
        <ele>390.0727233886719</ele>
        <time>2020-12-09T22:20:50.571Z</time>
      </trkpt>
      <trkpt lat="39.375240000000005" lon="-6.06873">
        <ele>390.6246337890625</ele>
        <time>2020-12-09T22:20:51.225Z</time>
      </trkpt>
      <trkpt lat="39.375350000000005" lon="-6.06857">
        <ele>391.51202392578125</ele>
        <time>2020-12-09T22:20:51.882Z</time>
      </trkpt>
      <trkpt lat="39.3761" lon="-6.067760000000001">
        <ele>398.9267883300781</ele>
        <time>2020-12-09T22:20:52.559Z</time>
      </trkpt>
      <trkpt lat="39.377100000000006" lon="-6.06667">
        <ele>405.9978942871094</ele>
        <time>2020-12-09T22:20:53.262Z</time>
      </trkpt>
      <trkpt lat="39.37713696150557" lon="-6.066629852580157">
        <ele>406.1347351074219</ele>
        <time>2020-12-09T22:20:53.966Z</time>
      </trkpt>
      <trkpt lat="39.377680000000005" lon="-6.06604">
        <ele>408.1455383300781</ele>
        <time>2020-12-09T22:20:54.684Z</time>
      </trkpt>
      <trkpt lat="39.37787" lon="-6.06583">
        <ele>408.9901428222656</ele>
        <time>2020-12-09T22:20:55.407Z</time>
      </trkpt>
      <trkpt lat="39.37801" lon="-6.06561">
        <ele>409.9259948730469</ele>
        <time>2020-12-09T22:20:56.135Z</time>
      </trkpt>
      <trkpt lat="39.37814" lon="-6.06522">
        <ele>410.4568176269531</ele>
        <time>2020-12-09T22:20:56.869Z</time>
      </trkpt>
      <trkpt lat="39.37845" lon="-6.0641300000000005">
        <ele>410.0729064941406</ele>
        <time>2020-12-09T22:20:57.621Z</time>
      </trkpt>
      <trkpt lat="39.378820000000005" lon="-6.062690000000001">
        <ele>407.8646545410156</ele>
        <time>2020-12-09T22:20:58.397Z</time>
      </trkpt>
      <trkpt lat="39.378835723686635" lon="-6.06262877330433">
        <ele>407.793212890625</ele>
        <time>2020-12-09T22:20:59.174Z</time>
      </trkpt>
      <trkpt lat="39.37986" lon="-6.0586400000000005">
        <ele>411.4559631347656</ele>
        <time>2020-12-09T22:21:00.016Z</time>
      </trkpt>
      <trkpt lat="39.37987410979329" lon="-6.058584940919652">
        <ele>411.472900390625</ele>
        <time>2020-12-09T22:21:00.859Z</time>
      </trkpt>
      <trkpt lat="39.380680000000005" lon="-6.055440000000001">
        <ele>412.9542541503906</ele>
        <time>2020-12-09T22:21:01.753Z</time>
      </trkpt>
      <trkpt lat="39.380810000000004" lon="-6.05501">
        <ele>412.5957946777344</ele>
        <time>2020-12-09T22:21:02.654Z</time>
      </trkpt>
      <trkpt lat="39.380880000000005" lon="-6.05466">
        <ele>412.9166259765625</ele>
        <time>2020-12-09T22:21:03.561Z</time>
      </trkpt>
      <trkpt lat="39.380900000000004" lon="-6.05445">
        <ele>413.4445495605469</ele>
        <time>2020-12-09T22:21:04.471Z</time>
      </trkpt>
      <trkpt lat="39.380970000000005" lon="-6.054430000000001">
        <ele>413.5765075683594</ele>
        <time>2020-12-09T22:21:05.383Z</time>
      </trkpt>
      <trkpt lat="39.38098" lon="-6.05431">
        <ele>413.87646484375</ele>
        <time>2020-12-09T22:21:06.296Z</time>
      </trkpt>
      <trkpt lat="39.381" lon="-6.054200000000001">
        <ele>414.1644287109375</ele>
        <time>2020-12-09T22:21:07.211Z</time>
      </trkpt>
      <trkpt lat="39.38103" lon="-6.054080000000001">
        <ele>414.4883728027344</ele>
        <time>2020-12-09T22:21:08.128Z</time>
      </trkpt>
      <trkpt lat="39.38109" lon="-6.053890000000001">
        <ele>414.947998046875</ele>
        <time>2020-12-09T22:21:09.048Z</time>
      </trkpt>
      <trkpt lat="39.38111000000001" lon="-6.05377">
        <ele>415.283935546875</ele>
        <time>2020-12-09T22:21:09.970Z</time>
      </trkpt>
      <trkpt lat="39.38111000000001" lon="-6.0537600000000005">
        <ele>415.3079528808594</ele>
        <time>2020-12-09T22:21:10.892Z</time>
      </trkpt>
      <trkpt lat="39.3811156130632" lon="-6.053720709388404">
        <ele>415.41571044921875</ele>
        <time>2020-12-09T22:21:11.815Z</time>
      </trkpt>
      <trkpt lat="39.38121" lon="-6.05306">
        <ele>417.00103759765625</ele>
        <time>2020-12-09T22:21:12.748Z</time>
      </trkpt>
      <trkpt lat="39.38143" lon="-6.0522800000000005">
        <ele>419.5821838378906</ele>
        <time>2020-12-09T22:21:13.694Z</time>
      </trkpt>
      <trkpt lat="39.381710000000005" lon="-6.05158">
        <ele>421.4894104003906</ele>
        <time>2020-12-09T22:21:14.653Z</time>
      </trkpt>
      <trkpt lat="39.3821" lon="-6.050730000000001">
        <ele>423.5237731933594</ele>
        <time>2020-12-09T22:21:15.627Z</time>
      </trkpt>
      <trkpt lat="39.382250000000006" lon="-6.0502400000000005">
        <ele>425.1665954589844</ele>
        <time>2020-12-09T22:21:16.609Z</time>
      </trkpt>
      <trkpt lat="39.382400000000004" lon="-6.0500300000000005">
        <ele>425.8504638671875</ele>
        <time>2020-12-09T22:21:17.595Z</time>
      </trkpt>
      <trkpt lat="39.382670000000005" lon="-6.049670000000001">
        <ele>427.03826904296875</ele>
        <time>2020-12-09T22:21:18.589Z</time>
      </trkpt>
      <trkpt lat="39.3828" lon="-6.0495">
        <ele>427.6021728515625</ele>
        <time>2020-12-09T22:21:19.587Z</time>
      </trkpt>
      <trkpt lat="39.38290000000001" lon="-6.0493500000000004">
        <ele>427.9787292480469</ele>
        <time>2020-12-09T22:21:20.588Z</time>
      </trkpt>
      <trkpt lat="39.38289" lon="-6.04931">
        <ele>428.07470703125</ele>
        <time>2020-12-09T22:21:21.590Z</time>
      </trkpt>
      <trkpt lat="39.38288257197093" lon="-6.049272287891649">
        <ele>428.16522216796875</ele>
        <time>2020-12-09T22:21:22.592Z</time>
      </trkpt>
      <trkpt lat="39.382760000000005" lon="-6.04865">
        <ele>428.4769592285156</ele>
        <time>2020-12-09T22:21:23.604Z</time>
      </trkpt>
      <trkpt lat="39.38266" lon="-6.048260000000001">
        <ele>427.64910888671875</ele>
        <time>2020-12-09T22:21:24.623Z</time>
      </trkpt>
      <trkpt lat="39.382470000000005" lon="-6.047630000000001">
        <ele>427.1748962402344</ele>
        <time>2020-12-09T22:21:25.652Z</time>
      </trkpt>
      <trkpt lat="39.382360000000006" lon="-6.0471200000000005">
        <ele>427.4554748535156</ele>
        <time>2020-12-09T22:21:26.689Z</time>
      </trkpt>
      <trkpt lat="39.38259" lon="-6.04687">
        <ele>427.7314147949219</ele>
        <time>2020-12-09T22:21:27.732Z</time>
      </trkpt>
      <trkpt lat="39.382650000000005" lon="-6.04692">
        <ele>427.80340576171875</ele>
        <time>2020-12-09T22:21:28.777Z</time>
      </trkpt>
      <trkpt lat="39.382740000000005" lon="-6.046760000000001">
        <ele>427.9114074707031</ele>
        <time>2020-12-09T22:21:29.825Z</time>
      </trkpt>
      <trkpt lat="39.382810000000006" lon="-6.04656">
        <ele>427.9953918457031</ele>
        <time>2020-12-09T22:21:30.876Z</time>
      </trkpt>
      <trkpt lat="39.38290000000001" lon="-6.046250000000001">
        <ele>428.1053771972656</ele>
        <time>2020-12-09T22:21:31.932Z</time>
      </trkpt>
      <trkpt lat="39.382960000000004" lon="-6.045870000000001">
        <ele>428.48931884765625</ele>
        <time>2020-12-09T22:21:32.994Z</time>
      </trkpt>
      <trkpt lat="39.382969003633455" lon="-6.045833985528777">
        <ele>428.521728515625</ele>
        <time>2020-12-09T22:21:34.057Z</time>
      </trkpt>
      <trkpt lat="39.38299000000001" lon="-6.045750000000001">
        <ele>428.5972900390625</ele>
        <time>2020-12-09T22:21:35.121Z</time>
      </trkpt>
      <trkpt lat="39.38306" lon="-6.0455700000000006">
        <ele>428.7292785644531</ele>
        <time>2020-12-09T22:21:36.188Z</time>
      </trkpt>
      <trkpt lat="39.383250000000004" lon="-6.0452900000000005">
        <ele>428.8372497558594</ele>
        <time>2020-12-09T22:21:37.261Z</time>
      </trkpt>
      <trkpt lat="39.383410000000005" lon="-6.0449">
        <ele>429.11322021484375</ele>
        <time>2020-12-09T22:21:38.341Z</time>
      </trkpt>
      <trkpt lat="39.38341375809571" lon="-6.044853823722503">
        <ele>429.1640930175781</ele>
        <time>2020-12-09T22:21:39.422Z</time>
      </trkpt>
      <trkpt lat="39.383443631137176" lon="-6.04448676109314">
        <ele>430.54150390625</ele>
        <time>2020-12-09T22:21:40.508Z</time>
      </trkpt>
      <trkpt lat="39.383462636033684" lon="-6.044447493086972">
        <ele>430.7071533203125</ele>
        <time>2020-12-09T22:21:41.595Z</time>
      </trkpt>
      <trkpt lat="39.38372142931079" lon="-6.043912768363953">
        <ele>433.05181884765625</ele>
        <time>2020-12-09T22:21:42.692Z</time>
      </trkpt>
      <trkpt lat="39.383740090887905" lon="-6.043873259388791">
        <ele>433.2414245605469</ele>
        <time>2020-12-09T22:21:43.790Z</time>
      </trkpt>
      <trkpt lat="39.383858254870475" lon="-6.043623089790345">
        <ele>434.2272033691406</ele>
        <time>2020-12-09T22:21:44.892Z</time>
      </trkpt>
      <trkpt lat="39.38388529100122" lon="-6.043592880227298">
        <ele>434.36456298828125</ele>
        <time>2020-12-09T22:21:45.995Z</time>
      </trkpt>
      <trkpt lat="39.38404068853278" lon="-6.043419241905212">
        <ele>435.15411376953125</ele>
        <time>2020-12-09T22:21:47.102Z</time>
      </trkpt>
      <trkpt lat="39.3840588329048" lon="-6.043379541161846">
        <ele>435.29290771484375</ele>
        <time>2020-12-09T22:21:48.210Z</time>
      </trkpt>
      <trkpt lat="39.38432263052749" lon="-6.042802333831788">
        <ele>437.3110046386719</ele>
        <time>2020-12-09T22:21:49.328Z</time>
      </trkpt>
      <trkpt lat="39.38432" lon="-6.042800000000001">
        <ele>437.3102722167969</ele>
        <time>2020-12-09T22:21:50.446Z</time>
      </trkpt>
      <trkpt lat="39.38433580764232" lon="-6.042763355290339">
        <ele>437.4361572265625</ele>
        <time>2020-12-09T22:21:51.565Z</time>
      </trkpt>
      <trkpt lat="39.38454" lon="-6.04229">
        <ele>439.63031005859375</ele>
        <time>2020-12-09T22:21:52.692Z</time>
      </trkpt>
      <trkpt lat="39.38461" lon="-6.041900000000001">
        <ele>442.4974060058594</ele>
        <time>2020-12-09T22:21:53.825Z</time>
      </trkpt>
      <trkpt lat="39.384660000000004" lon="-6.04145">
        <ele>446.0968017578125</ele>
        <time>2020-12-09T22:21:54.965Z</time>
      </trkpt>
      <trkpt lat="39.38465" lon="-6.04131">
        <ele>447.03265380859375</ele>
        <time>2020-12-09T22:21:56.108Z</time>
      </trkpt>
      <trkpt lat="39.384640000000005" lon="-6.0411600000000005">
        <ele>447.915771484375</ele>
        <time>2020-12-09T22:21:57.253Z</time>
      </trkpt>
      <trkpt lat="39.384570000000004" lon="-6.040940000000001">
        <ele>448.64764404296875</ele>
        <time>2020-12-09T22:21:58.402Z</time>
      </trkpt>
      <trkpt lat="39.384260000000005" lon="-6.040220000000001">
        <ele>449.56256103515625</ele>
        <time>2020-12-09T22:21:59.563Z</time>
      </trkpt>
      <trkpt lat="39.38387" lon="-6.03931">
        <ele>453.2091064453125</ele>
        <time>2020-12-09T22:22:00.741Z</time>
      </trkpt>
      <trkpt lat="39.38383" lon="-6.039210000000001">
        <ele>453.2810974121094</ele>
        <time>2020-12-09T22:22:01.920Z</time>
      </trkpt>
      <trkpt lat="39.383822754671" lon="-6.0391773959115875">
        <ele>453.3462829589844</ele>
        <time>2020-12-09T22:22:03.100Z</time>
      </trkpt>
      <trkpt lat="39.383790000000005" lon="-6.03903">
        <ele>453.64105224609375</ele>
        <time>2020-12-09T22:22:04.282Z</time>
      </trkpt>
      <trkpt lat="39.38376" lon="-6.03875">
        <ele>454.1535949707031</ele>
        <time>2020-12-09T22:22:05.469Z</time>
      </trkpt>
      <trkpt lat="39.38382" lon="-6.037870000000001">
        <ele>455.1476745605469</ele>
        <time>2020-12-09T22:22:06.669Z</time>
      </trkpt>
      <trkpt lat="39.383860000000006" lon="-6.03741">
        <ele>456.3954772949219</ele>
        <time>2020-12-09T22:22:07.876Z</time>
      </trkpt>
      <trkpt lat="39.383900000000004" lon="-6.03723">
        <ele>456.9404296875</ele>
        <time>2020-12-09T22:22:09.086Z</time>
      </trkpt>
      <trkpt lat="39.384060000000005" lon="-6.03676">
        <ele>457.98052978515625</ele>
        <time>2020-12-09T22:22:10.304Z</time>
      </trkpt>
      <trkpt lat="39.384130000000006" lon="-6.036300000000001">
        <ele>458.31646728515625</ele>
        <time>2020-12-09T22:22:11.530Z</time>
      </trkpt>
      <trkpt lat="39.38418" lon="-6.03584">
        <ele>458.49688720703125</ele>
        <time>2020-12-09T22:22:12.763Z</time>
      </trkpt>
      <trkpt lat="39.38421" lon="-6.0350600000000005">
        <ele>459.0100402832031</ele>
        <time>2020-12-09T22:22:14.008Z</time>
      </trkpt>
      <trkpt lat="39.384260000000005" lon="-6.034820000000001">
        <ele>459.97265625</ele>
        <time>2020-12-09T22:22:15.257Z</time>
      </trkpt>
      <trkpt lat="39.38426973670197" lon="-6.034800526694186">
        <ele>460.07781982421875</ele>
        <time>2020-12-09T22:22:16.506Z</time>
      </trkpt>
      <trkpt lat="39.38443" lon="-6.03448">
        <ele>460.8171691894531</ele>
        <time>2020-12-09T22:22:17.761Z</time>
      </trkpt>
      <trkpt lat="39.38456" lon="-6.034330000000001">
        <ele>461.5702209472656</ele>
        <time>2020-12-09T22:22:19.020Z</time>
      </trkpt>
      <trkpt lat="39.38492" lon="-6.034070000000001">
        <ele>464.1617736816406</ele>
        <time>2020-12-09T22:22:20.287Z</time>
      </trkpt>
      <trkpt lat="39.385220000000004" lon="-6.033650000000001">
        <ele>465.6689758300781</ele>
        <time>2020-12-09T22:22:21.563Z</time>
      </trkpt>
      <trkpt lat="39.38561" lon="-6.033">
        <ele>465.81573486328125</ele>
        <time>2020-12-09T22:22:22.851Z</time>
      </trkpt>
      <trkpt lat="39.38618" lon="-6.03204">
        <ele>468.85113525390625</ele>
        <time>2020-12-09T22:22:24.158Z</time>
      </trkpt>
      <trkpt lat="39.386186581215355" lon="-6.032020256482707">
        <ele>468.93798828125</ele>
        <time>2020-12-09T22:22:25.465Z</time>
      </trkpt>
      <trkpt lat="39.38631" lon="-6.031650000000001">
        <ele>470.5668640136719</ele>
        <time>2020-12-09T22:22:26.779Z</time>
      </trkpt>
      <trkpt lat="39.386900000000004" lon="-6.029590000000001">
        <ele>481.08197021484375</ele>
        <time>2020-12-09T22:22:28.127Z</time>
      </trkpt>
      <trkpt lat="39.387040000000006" lon="-6.029070000000001">
        <ele>483.4968566894531</ele>
        <time>2020-12-09T22:22:29.483Z</time>
      </trkpt>
      <trkpt lat="39.387130000000006" lon="-6.0285400000000005">
        <ele>485.7286682128906</ele>
        <time>2020-12-09T22:22:30.848Z</time>
      </trkpt>
      <trkpt lat="39.387220000000006" lon="-6.027900000000001">
        <ele>488.0231628417969</ele>
        <time>2020-12-09T22:22:32.223Z</time>
      </trkpt>
      <trkpt lat="39.38722136443926" lon="-6.027889596584891">
        <ele>488.0513916015625</ele>
        <time>2020-12-09T22:22:33.598Z</time>
      </trkpt>
      <trkpt lat="39.38738" lon="-6.026680000000001">
        <ele>490.8992004394531</ele>
        <time>2020-12-09T22:22:34.992Z</time>
      </trkpt>
      <trkpt lat="39.387480000000004" lon="-6.026420000000001">
        <ele>491.40545654296875</ele>
        <time>2020-12-09T22:22:36.391Z</time>
      </trkpt>
      <trkpt lat="39.387550000000005" lon="-6.026300000000001">
        <ele>492.0413513183594</ele>
        <time>2020-12-09T22:22:37.792Z</time>
      </trkpt>
      <trkpt lat="39.388000000000005" lon="-6.02587">
        <ele>494.97039794921875</ele>
        <time>2020-12-09T22:22:39.204Z</time>
      </trkpt>
      <trkpt lat="39.388470000000005" lon="-6.025390000000001">
        <ele>499.3050537109375</ele>
        <time>2020-12-09T22:22:40.628Z</time>
      </trkpt>
      <trkpt lat="39.38847382393595" lon="-6.025385049110032">
        <ele>499.34259033203125</ele>
        <time>2020-12-09T22:22:42.052Z</time>
      </trkpt>
      <trkpt lat="39.38942" lon="-6.02416">
        <ele>496.9450378417969</ele>
        <time>2020-12-09T22:22:43.503Z</time>
      </trkpt>
      <trkpt lat="39.39" lon="-6.02341">
        <ele>493.52197265625</ele>
        <time>2020-12-09T22:22:44.970Z</time>
      </trkpt>
      <trkpt lat="39.39045" lon="-6.0228">
        <ele>491.5144348144531</ele>
        <time>2020-12-09T22:22:46.450Z</time>
      </trkpt>
      <trkpt lat="39.390600000000006" lon="-6.022550000000001">
        <ele>490.9745178222656</ele>
        <time>2020-12-09T22:22:47.935Z</time>
      </trkpt>
      <trkpt lat="39.39060074520431" lon="-6.02254869589532">
        <ele>490.9718322753906</ele>
        <time>2020-12-09T22:22:49.420Z</time>
      </trkpt>
      <trkpt lat="39.39068" lon="-6.022410000000001">
        <ele>490.6865539550781</ele>
        <time>2020-12-09T22:22:50.908Z</time>
      </trkpt>
      <trkpt lat="39.3913" lon="-6.02127">
        <ele>492.18170166015625</ele>
        <time>2020-12-09T22:22:52.418Z</time>
      </trkpt>
      <trkpt lat="39.39168" lon="-6.020390000000001">
        <ele>493.2355651855469</ele>
        <time>2020-12-09T22:22:53.943Z</time>
      </trkpt>
      <trkpt lat="39.39202" lon="-6.01949">
        <ele>494.0455322265625</ele>
        <time>2020-12-09T22:22:55.484Z</time>
      </trkpt>
      <trkpt lat="39.39229" lon="-6.01895">
        <ele>494.3694763183594</ele>
        <time>2020-12-09T22:22:57.035Z</time>
      </trkpt>
      <trkpt lat="39.39262826011913" lon="-6.018392865711347">
        <ele>495.4070739746094</ele>
        <time>2020-12-09T22:22:58.597Z</time>
      </trkpt>
      <trkpt lat="39.392630000000004" lon="-6.01839">
        <ele>495.41259765625</ele>
        <time>2020-12-09T22:23:00.159Z</time>
      </trkpt>
      <trkpt lat="39.39294" lon="-6.01782">
        <ele>496.63812255859375</ele>
        <time>2020-12-09T22:23:01.731Z</time>
      </trkpt>
      <trkpt lat="39.39318" lon="-6.017250000000001">
        <ele>498.0029602050781</ele>
        <time>2020-12-09T22:23:03.314Z</time>
      </trkpt>
      <trkpt lat="39.39377" lon="-6.015610000000001">
        <ele>501.23162841796875</ele>
        <time>2020-12-09T22:23:04.925Z</time>
      </trkpt>
      <trkpt lat="39.39412807515555" lon="-6.01460540035097">
        <ele>502.0</ele>
        <time>2020-12-09T22:23:06.553Z</time>
      </trkpt>
      <trkpt lat="39.394130000000004" lon="-6.014600000000001">
        <ele>502.0</ele>
        <time>2020-12-09T22:23:08.181Z</time>
      </trkpt>
      <trkpt lat="39.39419" lon="-6.014410000000001">
        <ele>502.0</ele>
        <time>2020-12-09T22:23:09.812Z</time>
      </trkpt>
      <trkpt lat="39.39435" lon="-6.01372">
        <ele>502.1592102050781</ele>
        <time>2020-12-09T22:23:11.454Z</time>
      </trkpt>
      <trkpt lat="39.39455" lon="-6.01278">
        <ele>498.29266357421875</ele>
        <time>2020-12-09T22:23:13.111Z</time>
      </trkpt>
      <trkpt lat="39.39461" lon="-6.0126100000000005">
        <ele>497.2608337402344</ele>
        <time>2020-12-09T22:23:14.771Z</time>
      </trkpt>
      <trkpt lat="39.39477" lon="-6.0122800000000005">
        <ele>495.1011962890625</ele>
        <time>2020-12-09T22:23:16.437Z</time>
      </trkpt>
      <trkpt lat="39.395320000000005" lon="-6.011290000000001">
        <ele>490.98046875</ele>
        <time>2020-12-09T22:23:18.122Z</time>
      </trkpt>
      <trkpt lat="39.395540000000004" lon="-6.010980000000001">
        <ele>489.9246520996094</ele>
        <time>2020-12-09T22:23:19.814Z</time>
      </trkpt>
      <trkpt lat="39.39567469987633" lon="-6.010826057300508">
        <ele>489.2781982421875</ele>
        <time>2020-12-09T22:23:21.509Z</time>
      </trkpt>
      <trkpt lat="39.395680000000006" lon="-6.010820000000001">
        <ele>489.25274658203125</ele>
        <time>2020-12-09T22:23:23.204Z</time>
      </trkpt>
      <trkpt lat="39.3965" lon="-6.00989">
        <ele>483.64263916015625</ele>
        <time>2020-12-09T22:23:24.921Z</time>
      </trkpt>
      <trkpt lat="39.39679" lon="-6.00964">
        <ele>481.92218017578125</ele>
        <time>2020-12-09T22:23:26.645Z</time>
      </trkpt>
      <trkpt lat="39.39699" lon="-6.00949">
        <ele>481.1851806640625</ele>
        <time>2020-12-09T22:23:28.374Z</time>
      </trkpt>
      <trkpt lat="39.39719" lon="-6.009290000000001">
        <ele>480.225341796875</ele>
        <time>2020-12-09T22:23:30.108Z</time>
      </trkpt>
      <trkpt lat="39.397330000000004" lon="-6.009060000000001">
        <ele>479.9853820800781</ele>
        <time>2020-12-09T22:23:31.846Z</time>
      </trkpt>
      <trkpt lat="39.397450000000006" lon="-6.008750000000001">
        <ele>478.91259765625</ele>
        <time>2020-12-09T22:23:33.590Z</time>
      </trkpt>
      <trkpt lat="39.39748" lon="-6.008590000000001">
        <ele>478.0487365722656</ele>
        <time>2020-12-09T22:23:35.336Z</time>
      </trkpt>
      <trkpt lat="39.3974699856685" lon="-6.00802919754359">
        <ele>477.78857421875</ele>
        <time>2020-12-09T22:23:37.091Z</time>
      </trkpt>
      <trkpt lat="39.397470000000006" lon="-6.008030000000001">
        <ele>477.791259765625</ele>
        <time>2020-12-09T22:23:38.846Z</time>
      </trkpt>
      <trkpt lat="39.397420000000004" lon="-6.006710000000001">
        <ele>472.8577880859375</ele>
        <time>2020-12-09T22:23:40.621Z</time>
      </trkpt>
      <trkpt lat="39.39741" lon="-6.00605">
        <ele>470.5781555175781</ele>
        <time>2020-12-09T22:23:42.407Z</time>
      </trkpt>
      <trkpt lat="39.3975" lon="-6.005610000000001">
        <ele>467.4342041015625</ele>
        <time>2020-12-09T22:23:44.200Z</time>
      </trkpt>
      <trkpt lat="39.397540000000006" lon="-6.005420000000001">
        <ele>465.80987548828125</ele>
        <time>2020-12-09T22:23:45.996Z</time>
      </trkpt>
      <trkpt lat="39.397560000000006" lon="-6.00513">
        <ele>463.5782470703125</ele>
        <time>2020-12-09T22:23:47.796Z</time>
      </trkpt>
      <trkpt lat="39.397600000000004" lon="-6.004720000000001">
        <ele>459.3733825683594</ele>
        <time>2020-12-09T22:23:49.603Z</time>
      </trkpt>
      <trkpt lat="39.39762" lon="-6.004630000000001">
        <ele>458.8934631347656</ele>
        <time>2020-12-09T22:23:51.411Z</time>
      </trkpt>
      <trkpt lat="39.397846247953176" lon="-6.00406929863629">
        <ele>455.76727294921875</ele>
        <time>2020-12-09T22:23:53.229Z</time>
      </trkpt>
      <trkpt lat="39.397850000000005" lon="-6.004060000000001">
        <ele>455.7271423339844</ele>
        <time>2020-12-09T22:23:55.047Z</time>
      </trkpt>
      <trkpt lat="39.39813" lon="-6.003380000000001">
        <ele>453.6031799316406</ele>
        <time>2020-12-09T22:23:56.877Z</time>
      </trkpt>
      <trkpt lat="39.39838" lon="-6.00279">
        <ele>452.29541015625</ele>
        <time>2020-12-09T22:23:58.718Z</time>
      </trkpt>
      <trkpt lat="39.39865" lon="-6.002230000000001">
        <ele>450.9510192871094</ele>
        <time>2020-12-09T22:24:00.569Z</time>
      </trkpt>
      <trkpt lat="39.39916" lon="-6.00114">
        <ele>446.2711486816406</ele>
        <time>2020-12-09T22:24:02.439Z</time>
      </trkpt>
      <trkpt lat="39.399280000000005" lon="-6.00103">
        <ele>445.6832580566406</ele>
        <time>2020-12-09T22:24:04.312Z</time>
      </trkpt>
      <trkpt lat="39.39959" lon="-6.00086">
        <ele>444.1555480957031</ele>
        <time>2020-12-09T22:24:06.192Z</time>
      </trkpt>
      <trkpt lat="39.39962035436128" lon="-6.0008448228216205">
        <ele>444.028076171875</ele>
        <time>2020-12-09T22:24:08.073Z</time>
      </trkpt>
      <trkpt lat="39.39963" lon="-6.00084">
        <ele>443.9875793457031</ele>
        <time>2020-12-09T22:24:09.954Z</time>
      </trkpt>
      <trkpt lat="39.400110000000005" lon="-6.000590000000001">
        <ele>441.9839172363281</ele>
        <time>2020-12-09T22:24:11.845Z</time>
      </trkpt>
      <trkpt lat="39.40023" lon="-6.00058">
        <ele>441.41278076171875</ele>
        <time>2020-12-09T22:24:13.739Z</time>
      </trkpt>
      <trkpt lat="39.400400000000005" lon="-6.000640000000001">
        <ele>440.50604248046875</ele>
        <time>2020-12-09T22:24:15.636Z</time>
      </trkpt>
      <trkpt lat="39.40062" lon="-6.000710000000001">
        <ele>438.9103088378906</ele>
        <time>2020-12-09T22:24:17.538Z</time>
      </trkpt>
      <trkpt lat="39.40066" lon="-6.000570000000001">
        <ele>438.02362060546875</ele>
        <time>2020-12-09T22:24:19.442Z</time>
      </trkpt>
      <trkpt lat="39.40066" lon="-5.999720000000001">
        <ele>434.9873352050781</ele>
        <time>2020-12-09T22:24:21.359Z</time>
      </trkpt>
      <trkpt lat="39.40068" lon="-5.99962">
        <ele>434.45941162109375</ele>
        <time>2020-12-09T22:24:23.278Z</time>
      </trkpt>
      <trkpt lat="39.40073" lon="-5.9995">
        <ele>433.45159912109375</ele>
        <time>2020-12-09T22:24:25.199Z</time>
      </trkpt>
      <trkpt lat="39.400800000000004" lon="-5.9994700000000005">
        <ele>432.37176513671875</ele>
        <time>2020-12-09T22:24:27.121Z</time>
      </trkpt>
      <trkpt lat="39.40106" lon="-5.9994000000000005">
        <ele>428.4604187011719</ele>
        <time>2020-12-09T22:24:29.049Z</time>
      </trkpt>
      <trkpt lat="39.40193" lon="-5.999140000000001">
        <ele>424.78485107421875</ele>
        <time>2020-12-09T22:24:30.995Z</time>
      </trkpt>
      <trkpt lat="39.4022" lon="-5.99903">
        <ele>425.7646484375</ele>
        <time>2020-12-09T22:24:32.946Z</time>
      </trkpt>
      <trkpt lat="39.40236" lon="-5.998950000000001">
        <ele>426.7244873046875</ele>
        <time>2020-12-09T22:24:34.901Z</time>
      </trkpt>
      <trkpt lat="39.402460000000005" lon="-5.998810000000001">
        <ele>427.4130859375</ele>
        <time>2020-12-09T22:24:36.859Z</time>
      </trkpt>
      <trkpt lat="39.402477425671194" lon="-5.998757722993593">
        <ele>427.5594177246094</ele>
        <time>2020-12-09T22:24:38.818Z</time>
      </trkpt>
      <trkpt lat="39.402480000000004" lon="-5.99875">
        <ele>427.5810546875</ele>
        <time>2020-12-09T22:24:40.777Z</time>
      </trkpt>
      <trkpt lat="39.40258" lon="-5.9983200000000005">
        <ele>428.5768737792969</ele>
        <time>2020-12-09T22:24:42.743Z</time>
      </trkpt>
      <trkpt lat="39.40294" lon="-5.99739">
        <ele>428.927490234375</ele>
        <time>2020-12-09T22:24:44.725Z</time>
      </trkpt>
      <trkpt lat="39.40314" lon="-5.9970300000000005">
        <ele>431.126708984375</ele>
        <time>2020-12-09T22:24:46.714Z</time>
      </trkpt>
      <trkpt lat="39.40357" lon="-5.996600000000001">
        <ele>436.28582763671875</ele>
        <time>2020-12-09T22:24:48.714Z</time>
      </trkpt>
      <trkpt lat="39.403620000000004" lon="-5.9964200000000005">
        <ele>437.7268981933594</ele>
        <time>2020-12-09T22:24:50.716Z</time>
      </trkpt>
      <trkpt lat="39.403600000000004" lon="-5.99624">
        <ele>439.4713134765625</ele>
        <time>2020-12-09T22:24:52.721Z</time>
      </trkpt>
      <trkpt lat="39.40355" lon="-5.9958100000000005">
        <ele>443.6946105957031</ele>
        <time>2020-12-09T22:24:54.733Z</time>
      </trkpt>
      <trkpt lat="39.403580000000005" lon="-5.99556">
        <ele>446.2370910644531</ele>
        <time>2020-12-09T22:24:56.749Z</time>
      </trkpt>
      <trkpt lat="39.40364" lon="-5.99537">
        <ele>446.8849792480469</ele>
        <time>2020-12-09T22:24:58.768Z</time>
      </trkpt>
      <trkpt lat="39.403800000000004" lon="-5.99495">
        <ele>446.4624328613281</ele>
        <time>2020-12-09T22:25:00.794Z</time>
      </trkpt>
      <trkpt lat="39.40397" lon="-5.994650000000001">
        <ele>446.56109619140625</ele>
        <time>2020-12-09T22:25:02.826Z</time>
      </trkpt>
      <trkpt lat="39.404230000000005" lon="-5.99429">
        <ele>448.2168273925781</ele>
        <time>2020-12-09T22:25:04.866Z</time>
      </trkpt>
      <trkpt lat="39.40457443534704" lon="-5.9938176315829335">
        <ele>450.3688049316406</ele>
        <time>2020-12-09T22:25:06.916Z</time>
      </trkpt>
      <trkpt lat="39.40458" lon="-5.993810000000001">
        <ele>450.4012451171875</ele>
        <time>2020-12-09T22:25:08.966Z</time>
      </trkpt>
      <trkpt lat="39.40487" lon="-5.99338">
        <ele>452.284912109375</ele>
        <time>2020-12-09T22:25:11.025Z</time>
      </trkpt>
      <trkpt lat="39.40498" lon="-5.99312">
        <ele>453.5807189941406</ele>
        <time>2020-12-09T22:25:13.088Z</time>
      </trkpt>
      <trkpt lat="39.40531" lon="-5.99197">
        <ele>455.37945556640625</ele>
        <time>2020-12-09T22:25:15.170Z</time>
      </trkpt>
      <trkpt lat="39.40554" lon="-5.99136">
        <ele>455.7294006347656</ele>
        <time>2020-12-09T22:25:17.263Z</time>
      </trkpt>
      <trkpt lat="39.4057" lon="-5.99077">
        <ele>458.177001953125</ele>
        <time>2020-12-09T22:25:19.366Z</time>
      </trkpt>
      <trkpt lat="39.40577667780455" lon="-5.990319518140803">
        <ele>460.1549377441406</ele>
        <time>2020-12-09T22:25:21.476Z</time>
      </trkpt>
      <trkpt lat="39.40578" lon="-5.9903">
        <ele>460.24066162109375</ele>
        <time>2020-12-09T22:25:23.586Z</time>
      </trkpt>
      <trkpt lat="39.40579" lon="-5.989990000000001">
        <ele>461.56170654296875</ele>
        <time>2020-12-09T22:25:25.701Z</time>
      </trkpt>
      <trkpt lat="39.405770000000004" lon="-5.9895000000000005">
        <ele>463.052001953125</ele>
        <time>2020-12-09T22:25:27.824Z</time>
      </trkpt>
      <trkpt lat="39.40565" lon="-5.988700000000001">
        <ele>465.8035583496094</ele>
        <time>2020-12-09T22:25:29.959Z</time>
      </trkpt>
      <trkpt lat="39.405590000000004" lon="-5.98775">
        <ele>467.0195007324219</ele>
        <time>2020-12-09T22:25:32.109Z</time>
      </trkpt>
      <trkpt lat="39.40549" lon="-5.987170000000001">
        <ele>467.5653076171875</ele>
        <time>2020-12-09T22:25:34.268Z</time>
      </trkpt>
      <trkpt lat="39.40532" lon="-5.986350000000001">
        <ele>466.0854187011719</ele>
        <time>2020-12-09T22:25:36.440Z</time>
      </trkpt>
      <trkpt lat="39.405260000000006" lon="-5.98603">
        <ele>466.66802978515625</ele>
        <time>2020-12-09T22:25:38.617Z</time>
      </trkpt>
      <trkpt lat="39.40523" lon="-5.98568">
        <ele>467.1959228515625</ele>
        <time>2020-12-09T22:25:40.800Z</time>
      </trkpt>
      <trkpt lat="39.40525704836734" lon="-5.985391484508707">
        <ele>467.7441711425781</ele>
        <time>2020-12-09T22:25:42.987Z</time>
      </trkpt>
      <trkpt lat="39.405260000000006" lon="-5.985360000000001">
        <ele>467.8055725097656</ele>
        <time>2020-12-09T22:25:45.175Z</time>
      </trkpt>
      <trkpt lat="39.405370000000005" lon="-5.984800000000001">
        <ele>468.9986572265625</ele>
        <time>2020-12-09T22:25:47.372Z</time>
      </trkpt>
      <trkpt lat="39.405440000000006" lon="-5.98442">
        <ele>470.1771545410156</ele>
        <time>2020-12-09T22:25:49.575Z</time>
      </trkpt>
      <trkpt lat="39.40541" lon="-5.9836100000000005">
        <ele>472.5859375</ele>
        <time>2020-12-09T22:25:51.790Z</time>
      </trkpt>
      <trkpt lat="39.405390000000004" lon="-5.9828600000000005">
        <ele>473.52813720703125</ele>
        <time>2020-12-09T22:25:54.017Z</time>
      </trkpt>
      <trkpt lat="39.40538" lon="-5.98153">
        <ele>477.5045471191406</ele>
        <time>2020-12-09T22:25:56.265Z</time>
      </trkpt>
      <trkpt lat="39.405351205027934" lon="-5.980637351426137">
        <ele>479.8212890625</ele>
        <time>2020-12-09T22:25:58.527Z</time>
      </trkpt>
      <trkpt lat="39.405350000000006" lon="-5.980600000000001">
        <ele>479.912353515625</ele>
        <time>2020-12-09T22:26:00.789Z</time>
      </trkpt>
      <trkpt lat="39.40529" lon="-5.97989">
        <ele>479.9006652832031</ele>
        <time>2020-12-09T22:26:03.062Z</time>
      </trkpt>
      <trkpt lat="39.405170000000005" lon="-5.979330000000001">
        <ele>480.0</ele>
        <time>2020-12-09T22:26:05.344Z</time>
      </trkpt>
      <trkpt lat="39.405120000000004" lon="-5.979100000000001">
        <ele>480.0247802734375</ele>
        <time>2020-12-09T22:26:07.630Z</time>
      </trkpt>
      <trkpt lat="39.405100000000004" lon="-5.97874">
        <ele>480.7294006347656</ele>
        <time>2020-12-09T22:26:09.921Z</time>
      </trkpt>
      <trkpt lat="39.40507" lon="-5.978300000000001">
        <ele>481.29705810546875</ele>
        <time>2020-12-09T22:26:12.219Z</time>
      </trkpt>
      <trkpt lat="39.405010000000004" lon="-5.97799">
        <ele>481.3690490722656</ele>
        <time>2020-12-09T22:26:14.522Z</time>
      </trkpt>
      <trkpt lat="39.40494726683317" lon="-5.9776404862681005">
        <ele>481.4443359375</ele>
        <time>2020-12-09T22:26:16.831Z</time>
      </trkpt>
      <trkpt lat="39.40494" lon="-5.977600000000001">
        <ele>481.39691162109375</ele>
        <time>2020-12-09T22:26:19.141Z</time>
      </trkpt>
      <trkpt lat="39.405010000000004" lon="-5.977580000000001">
        <ele>481.3690490722656</ele>
        <time>2020-12-09T22:26:21.452Z</time>
      </trkpt>
      <trkpt lat="39.405010000000004" lon="-5.97752">
        <ele>481.2889404296875</ele>
        <time>2020-12-09T22:26:23.764Z</time>
      </trkpt>
      <trkpt lat="39.404990000000005" lon="-5.977250000000001">
        <ele>480.6170654296875</ele>
        <time>2020-12-09T22:26:26.080Z</time>
      </trkpt>
      <trkpt lat="39.40494363159047" lon="-5.977087710418915">
        <ele>480.740966796875</ele>
        <time>2020-12-09T22:26:28.399Z</time>
      </trkpt>
      <trkpt lat="39.40493" lon="-5.977040000000001">
        <ele>480.7818603515625</ele>
        <time>2020-12-09T22:26:30.719Z</time>
      </trkpt>
      <trkpt lat="39.4048" lon="-5.9765500000000005">
        <ele>481.21380615234375</ele>
        <time>2020-12-09T22:26:33.047Z</time>
      </trkpt>
      <trkpt lat="39.404770000000006" lon="-5.976360000000001">
        <ele>481.2174377441406</ele>
        <time>2020-12-09T22:26:35.378Z</time>
      </trkpt>
      <trkpt lat="39.4048" lon="-5.976100000000001">
        <ele>480.6295471191406</ele>
        <time>2020-12-09T22:26:37.713Z</time>
      </trkpt>
      <trkpt lat="39.4048" lon="-5.975860000000001">
        <ele>480.33734130859375</ele>
        <time>2020-12-09T22:26:40.051Z</time>
      </trkpt>
      <trkpt lat="39.40484" lon="-5.975650000000001">
        <ele>480.0853576660156</ele>
        <time>2020-12-09T22:26:42.393Z</time>
      </trkpt>
      <trkpt lat="39.404900000000005" lon="-5.9754000000000005">
        <ele>479.5708312988281</ele>
        <time>2020-12-09T22:26:44.739Z</time>
      </trkpt>
      <trkpt lat="39.405103299968346" lon="-5.974780859746122">
        <ele>478.08514404296875</ele>
        <time>2020-12-09T22:26:47.095Z</time>
      </trkpt>
      <trkpt lat="39.405120000000004" lon="-5.97473">
        <ele>477.9446716308594</ele>
        <time>2020-12-09T22:26:49.452Z</time>
      </trkpt>
      <trkpt lat="39.40513" lon="-5.9747">
        <ele>477.836669921875</ele>
        <time>2020-12-09T22:26:51.810Z</time>
      </trkpt>
      <trkpt lat="39.405170000000005" lon="-5.9747200000000005">
        <ele>477.9086608886719</ele>
        <time>2020-12-09T22:26:54.168Z</time>
      </trkpt>
      <trkpt lat="39.405280000000005" lon="-5.974290000000001">
        <ele>476.3609313964844</ele>
        <time>2020-12-09T22:26:56.533Z</time>
      </trkpt>
      <trkpt lat="39.40549" lon="-5.97376">
        <ele>474.01495361328125</ele>
        <time>2020-12-09T22:26:58.908Z</time>
      </trkpt>
      <trkpt lat="39.405570000000004" lon="-5.973450000000001">
        <ele>472.48040771484375</ele>
        <time>2020-12-09T22:27:01.288Z</time>
      </trkpt>
      <trkpt lat="39.405756164222005" lon="-5.972500564118747">
        <ele>470.3066711425781</ele>
        <time>2020-12-09T22:27:03.683Z</time>
      </trkpt>
      <trkpt lat="39.405770000000004" lon="-5.97243">
        <ele>470.2220153808594</ele>
        <time>2020-12-09T22:27:06.079Z</time>
      </trkpt>
      <trkpt lat="39.40479112146408" lon="-5.972097371119035">
        <ele>469.1912536621094</ele>
        <time>2020-12-09T22:27:08.495Z</time>
      </trkpt>
      <trkpt lat="39.404740000000004" lon="-5.97208">
        <ele>469.10906982421875</ele>
        <time>2020-12-09T22:27:10.912Z</time>
      </trkpt>
      <trkpt lat="39.40536" lon="-5.97071">
        <ele>464.79180908203125</ele>
        <time>2020-12-09T22:27:13.354Z</time>
      </trkpt>
      <trkpt lat="39.405530000000006" lon="-5.97032">
        <ele>463.12603759765625</ele>
        <time>2020-12-09T22:27:15.803Z</time>
      </trkpt>
      <trkpt lat="39.40548098343508" lon="-5.970234220938472">
        <ele>462.97900390625</ele>
        <time>2020-12-09T22:27:18.254Z</time>
      </trkpt>
      <trkpt lat="39.40545" lon="-5.970180000000001">
        <ele>462.8860778808594</ele>
        <time>2020-12-09T22:27:20.706Z</time>
      </trkpt>
      <trkpt lat="39.40529" lon="-5.969720000000001">
        <ele>461.8785705566406</ele>
        <time>2020-12-09T22:27:23.165Z</time>
      </trkpt>
      <trkpt lat="39.40516" lon="-5.96942">
        <ele>460.64276123046875</ele>
        <time>2020-12-09T22:27:25.630Z</time>
      </trkpt>
      <trkpt lat="39.40498" lon="-5.969010000000001">
        <ele>459.8100891113281</ele>
        <time>2020-12-09T22:27:28.102Z</time>
      </trkpt>
      <trkpt lat="39.40473" lon="-5.9686200000000005">
        <ele>460.1692199707031</ele>
        <time>2020-12-09T22:27:30.582Z</time>
      </trkpt>
      <trkpt lat="39.4044" lon="-5.9683">
        <ele>461.9350280761719</ele>
        <time>2020-12-09T22:27:33.070Z</time>
      </trkpt>
      <trkpt lat="39.40392000000001" lon="-5.967440000000001">
        <ele>463.0</ele>
        <time>2020-12-09T22:27:35.575Z</time>
      </trkpt>
      <trkpt lat="39.40328" lon="-5.966480000000001">
        <ele>462.8335876464844</ele>
        <time>2020-12-09T22:27:38.099Z</time>
      </trkpt>
      <trkpt lat="39.403020000000005" lon="-5.9660400000000005">
        <ele>463.889404296875</ele>
        <time>2020-12-09T22:27:40.632Z</time>
      </trkpt>
      <trkpt lat="39.40305" lon="-5.965960000000001">
        <ele>464.0813903808594</ele>
        <time>2020-12-09T22:27:43.166Z</time>
      </trkpt>
      <trkpt lat="39.40309029245602" lon="-5.965702128756321">
        <ele>464.7001647949219</ele>
        <time>2020-12-09T22:27:45.704Z</time>
      </trkpt>
      <trkpt lat="39.4031" lon="-5.9656400000000005">
        <ele>464.8492431640625</ele>
        <time>2020-12-09T22:27:48.243Z</time>
      </trkpt>
      <trkpt lat="39.40346" lon="-5.962370000000001">
        <ele>469.4588928222656</ele>
        <time>2020-12-09T22:27:50.833Z</time>
      </trkpt>
      <trkpt lat="39.403710000000004" lon="-5.95992">
        <ele>471.9288024902344</ele>
        <time>2020-12-09T22:27:53.462Z</time>
      </trkpt>
      <trkpt lat="39.403751180089785" lon="-5.959549380372212">
        <ele>472.22308349609375</ele>
        <time>2020-12-09T22:27:56.096Z</time>
      </trkpt>
      <trkpt lat="39.403760000000005" lon="-5.9594700000000005">
        <ele>472.39239501953125</ele>
        <time>2020-12-09T22:27:58.732Z</time>
      </trkpt>
      <trkpt lat="39.40419" lon="-5.9553">
        <ele>471.714111328125</ele>
        <time>2020-12-09T22:28:01.433Z</time>
      </trkpt>
      <trkpt lat="39.40429" lon="-5.95413">
        <ele>470.20013427734375</ele>
        <time>2020-12-09T22:28:04.152Z</time>
      </trkpt>
      <trkpt lat="39.40431" lon="-5.95408">
        <ele>470.20892333984375</ele>
        <time>2020-12-09T22:28:06.872Z</time>
      </trkpt>
      <trkpt lat="39.40438" lon="-5.95403">
        <ele>470.1041564941406</ele>
        <time>2020-12-09T22:28:09.594Z</time>
      </trkpt>
      <trkpt lat="39.404830000000004" lon="-5.95399">
        <ele>468.6573486328125</ele>
        <time>2020-12-09T22:28:12.325Z</time>
      </trkpt>
      <trkpt lat="39.40491" lon="-5.95399">
        <ele>468.3694152832031</ele>
        <time>2020-12-09T22:28:15.057Z</time>
      </trkpt>
      <trkpt lat="39.404970000000006" lon="-5.95396">
        <ele>468.1894226074219</ele>
        <time>2020-12-09T22:28:17.791Z</time>
      </trkpt>
      <trkpt lat="39.40498" lon="-5.953900000000001">
        <ele>468.2048645019531</ele>
        <time>2020-12-09T22:28:20.526Z</time>
      </trkpt>
      <trkpt lat="39.404970000000006" lon="-5.9536500000000006">
        <ele>467.94091796875</ele>
        <time>2020-12-09T22:28:23.264Z</time>
      </trkpt>
      <trkpt lat="39.404955769634334" lon="-5.9534223126910994">
        <ele>467.7189636230469</ele>
        <time>2020-12-09T22:28:26.006Z</time>
      </trkpt>
      <trkpt lat="39.40495000000001" lon="-5.95333">
        <ele>467.62896728515625</ele>
        <time>2020-12-09T22:28:28.749Z</time>
      </trkpt>
      <trkpt lat="39.40469" lon="-5.94904">
        <ele>457.3173828125</ele>
        <time>2020-12-09T22:28:31.559Z</time>
      </trkpt>
      <trkpt lat="39.404650000000004" lon="-5.948">
        <ele>453.7118835449219</ele>
        <time>2020-12-09T22:28:34.385Z</time>
      </trkpt>
      <trkpt lat="39.404650000000004" lon="-5.9478100000000005">
        <ele>453.3658752441406</ele>
        <time>2020-12-09T22:28:37.214Z</time>
      </trkpt>
      <trkpt lat="39.40485" lon="-5.947290000000001">
        <ele>452.1180725097656</ele>
        <time>2020-12-09T22:28:40.052Z</time>
      </trkpt>
      <trkpt lat="39.40491" lon="-5.94709">
        <ele>452.0</ele>
        <time>2020-12-09T22:28:42.893Z</time>
      </trkpt>
      <trkpt lat="39.404900000000005" lon="-5.94681">
        <ele>452.0</ele>
        <time>2020-12-09T22:28:45.739Z</time>
      </trkpt>
      <trkpt lat="39.404900000000005" lon="-5.946680000000001">
        <ele>452.0</ele>
        <time>2020-12-09T22:28:48.587Z</time>
      </trkpt>
      <trkpt lat="39.404920000000004" lon="-5.94657">
        <ele>452.0</ele>
        <time>2020-12-09T22:28:51.437Z</time>
      </trkpt>
      <trkpt lat="39.40518" lon="-5.94606">
        <ele>452.4167175292969</ele>
        <time>2020-12-09T22:28:54.296Z</time>
      </trkpt>
      <trkpt lat="39.405218402029874" lon="-5.945978395800856">
        <ele>452.5146179199219</ele>
        <time>2020-12-09T22:28:57.157Z</time>
      </trkpt>
      <trkpt lat="39.405260000000006" lon="-5.94589">
        <ele>452.62066650390625</ele>
        <time>2020-12-09T22:29:00.019Z</time>
      </trkpt>
      <trkpt lat="39.406220000000005" lon="-5.94404">
        <ele>462.35552978515625</ele>
        <time>2020-12-09T22:29:02.916Z</time>
      </trkpt>
      <trkpt lat="39.40674069913051" lon="-5.94307168370994">
        <ele>461.8735046386719</ele>
        <time>2020-12-09T22:29:05.831Z</time>
      </trkpt>
      <trkpt lat="39.40679" lon="-5.94298">
        <ele>461.4760437011719</ele>
        <time>2020-12-09T22:29:08.748Z</time>
      </trkpt>
      <trkpt lat="39.406310000000005" lon="-5.94275">
        <ele>462.8492126464844</ele>
        <time>2020-12-09T22:29:11.675Z</time>
      </trkpt>
      <trkpt lat="39.40639" lon="-5.942640000000001">
        <ele>462.3332824707031</ele>
        <time>2020-12-09T22:29:14.604Z</time>
      </trkpt>
      <trkpt lat="39.40681" lon="-5.942290000000001">
        <ele>459.897705078125</ele>
        <time>2020-12-09T22:29:17.543Z</time>
      </trkpt>
      <trkpt lat="39.407180000000004" lon="-5.94186">
        <ele>459.0</ele>
        <time>2020-12-09T22:29:20.492Z</time>
      </trkpt>
      <trkpt lat="39.40728" lon="-5.941660000000001">
        <ele>459.0</ele>
        <time>2020-12-09T22:29:23.445Z</time>
      </trkpt>
      <trkpt lat="39.40728554555613" lon="-5.941648908903233">
        <ele>459.0</ele>
        <time>2020-12-09T22:29:26.398Z</time>
      </trkpt>
      <trkpt lat="39.40733" lon="-5.941560000000001">
        <ele>459.0</ele>
        <time>2020-12-09T22:29:29.353Z</time>
      </trkpt>
      <trkpt lat="39.4074" lon="-5.94148">
        <ele>459.0</ele>
        <time>2020-12-09T22:29:32.310Z</time>
      </trkpt>
      <trkpt lat="39.40753" lon="-5.941400000000001">
        <ele>458.9922180175781</ele>
        <time>2020-12-09T22:29:35.269Z</time>
      </trkpt>
      <trkpt lat="39.40811" lon="-5.941020000000001">
        <ele>459.2369384765625</ele>
        <time>2020-12-09T22:29:38.241Z</time>
      </trkpt>
      <trkpt lat="39.40858" lon="-5.940670000000001">
        <ele>459.82244873046875</ele>
        <time>2020-12-09T22:29:41.224Z</time>
      </trkpt>
      <trkpt lat="39.40892" lon="-5.94036">
        <ele>459.80023193359375</ele>
        <time>2020-12-09T22:29:44.216Z</time>
      </trkpt>
      <trkpt lat="39.409150000000004" lon="-5.94014">
        <ele>459.76422119140625</ele>
        <time>2020-12-09T22:29:47.213Z</time>
      </trkpt>
      <trkpt lat="39.40934065685029" lon="-5.939846071044624">
        <ele>460.0453186035156</ele>
        <time>2020-12-09T22:29:50.216Z</time>
      </trkpt>
      <trkpt lat="39.40939" lon="-5.93977">
        <ele>460.077392578125</ele>
        <time>2020-12-09T22:29:53.221Z</time>
      </trkpt>
      <trkpt lat="39.409620000000004" lon="-5.939400000000001">
        <ele>460.245361328125</ele>
        <time>2020-12-09T22:29:56.233Z</time>
      </trkpt>
      <trkpt lat="39.40977" lon="-5.93923">
        <ele>460.26934814453125</ele>
        <time>2020-12-09T22:29:59.249Z</time>
      </trkpt>
      <trkpt lat="39.41006" lon="-5.938980000000001">
        <ele>460.22137451171875</ele>
        <time>2020-12-09T22:30:02.272Z</time>
      </trkpt>
      <trkpt lat="39.4104" lon="-5.938650000000001">
        <ele>460.3072204589844</ele>
        <time>2020-12-09T22:30:05.304Z</time>
      </trkpt>
      <trkpt lat="39.4108" lon="-5.938160000000001">
        <ele>460.8951416015625</ele>
        <time>2020-12-09T22:30:08.347Z</time>
      </trkpt>
      <trkpt lat="39.41116" lon="-5.9377200000000006">
        <ele>462.2691345214844</ele>
        <time>2020-12-09T22:30:11.400Z</time>
      </trkpt>
      <trkpt lat="39.41158" lon="-5.93719">
        <ele>464.17681884765625</ele>
        <time>2020-12-09T22:30:14.464Z</time>
      </trkpt>
      <trkpt lat="39.412130000000005" lon="-5.93656">
        <ele>466.7914733886719</ele>
        <time>2020-12-09T22:30:17.543Z</time>
      </trkpt>
      <trkpt lat="39.41241" lon="-5.93618">
        <ele>468.5603942871094</ele>
        <time>2020-12-09T22:30:20.630Z</time>
      </trkpt>
      <trkpt lat="39.412556130899354" lon="-5.935990030051619">
        <ele>469.3669128417969</ele>
        <time>2020-12-09T22:30:23.721Z</time>
      </trkpt>
      <trkpt lat="39.41261" lon="-5.93592">
        <ele>469.6642150878906</ele>
        <time>2020-12-09T22:30:26.814Z</time>
      </trkpt>
      <trkpt lat="39.413790000000006" lon="-5.934240000000001">
        <ele>472.8663024902344</ele>
        <time>2020-12-09T22:30:29.942Z</time>
      </trkpt>
      <trkpt lat="39.41422" lon="-5.9336">
        <ele>473.3702392578125</ele>
        <time>2020-12-09T22:30:33.083Z</time>
      </trkpt>
      <trkpt lat="39.41433000000001" lon="-5.933350000000001">
        <ele>473.7061767578125</ele>
        <time>2020-12-09T22:30:36.229Z</time>
      </trkpt>
      <trkpt lat="39.41442" lon="-5.93322">
        <ele>473.8021545410156</ele>
        <time>2020-12-09T22:30:39.377Z</time>
      </trkpt>
      <trkpt lat="39.414570000000005" lon="-5.93301">
        <ele>474.0740966796875</ele>
        <time>2020-12-09T22:30:42.530Z</time>
      </trkpt>
      <trkpt lat="39.41469" lon="-5.932670000000001">
        <ele>474.71905517578125</ele>
        <time>2020-12-09T22:30:45.688Z</time>
      </trkpt>
      <trkpt lat="39.41481" lon="-5.93228">
        <ele>475.51092529296875</ele>
        <time>2020-12-09T22:30:48.853Z</time>
      </trkpt>
      <trkpt lat="39.41489" lon="-5.93189">
        <ele>475.0971374511719</ele>
        <time>2020-12-09T22:30:52.024Z</time>
      </trkpt>
      <trkpt lat="39.415020000000005" lon="-5.931590000000001">
        <ele>474.7181091308594</ele>
        <time>2020-12-09T22:30:55.201Z</time>
      </trkpt>
      <trkpt lat="39.41517" lon="-5.9311300000000005">
        <ele>474.0284423828125</ele>
        <time>2020-12-09T22:30:58.385Z</time>
      </trkpt>
      <trkpt lat="39.41519663967745" lon="-5.931076720717831">
        <ele>473.9006042480469</ele>
        <time>2020-12-09T22:31:01.570Z</time>
      </trkpt>
      <trkpt lat="39.415240000000004" lon="-5.93099">
        <ele>473.6925048828125</ele>
        <time>2020-12-09T22:31:04.757Z</time>
      </trkpt>
      <trkpt lat="39.415290000000006" lon="-5.9309">
        <ele>473.46453857421875</ele>
        <time>2020-12-09T22:31:07.946Z</time>
      </trkpt>
      <trkpt lat="39.41536" lon="-5.93069">
        <ele>472.9957275390625</ele>
        <time>2020-12-09T22:31:11.138Z</time>
      </trkpt>
      <trkpt lat="39.41545" lon="-5.93041">
        <ele>472.3457946777344</ele>
        <time>2020-12-09T22:31:14.335Z</time>
      </trkpt>
      <trkpt lat="39.415510000000005" lon="-5.9301200000000005">
        <ele>470.75006103515625</ele>
        <time>2020-12-09T22:31:17.536Z</time>
      </trkpt>
      <trkpt lat="39.41565000000001" lon="-5.929710000000001">
        <ele>468.65985107421875</ele>
        <time>2020-12-09T22:31:20.744Z</time>
      </trkpt>
      <trkpt lat="39.415820000000004" lon="-5.929290000000001">
        <ele>467.0521240234375</ele>
        <time>2020-12-09T22:31:23.960Z</time>
      </trkpt>
      <trkpt lat="39.41597" lon="-5.9290400000000005">
        <ele>466.3819274902344</ele>
        <time>2020-12-09T22:31:27.181Z</time>
      </trkpt>
      <trkpt lat="39.41608" lon="-5.928730000000001">
        <ele>465.45953369140625</ele>
        <time>2020-12-09T22:31:30.407Z</time>
      </trkpt>
      <trkpt lat="39.416140000000006" lon="-5.92856">
        <ele>464.775634765625</ele>
        <time>2020-12-09T22:31:33.636Z</time>
      </trkpt>
      <trkpt lat="39.416270000000004" lon="-5.92832">
        <ele>463.8965148925781</ele>
        <time>2020-12-09T22:31:36.869Z</time>
      </trkpt>
      <trkpt lat="39.41646" lon="-5.9278900000000005">
        <ele>462.7829284667969</ele>
        <time>2020-12-09T22:31:40.110Z</time>
      </trkpt>
      <trkpt lat="39.41671" lon="-5.9275400000000005">
        <ele>462.3630065917969</ele>
        <time>2020-12-09T22:31:43.358Z</time>
      </trkpt>
      <trkpt lat="39.416830000000004" lon="-5.92733">
        <ele>461.958251953125</ele>
        <time>2020-12-09T22:31:46.610Z</time>
      </trkpt>
      <trkpt lat="39.416990000000006" lon="-5.92696">
        <ele>460.3355407714844</ele>
        <time>2020-12-09T22:31:49.869Z</time>
      </trkpt>
      <trkpt lat="39.417170000000006" lon="-5.92673">
        <ele>458.9557800292969</ele>
        <time>2020-12-09T22:31:53.133Z</time>
      </trkpt>
      <trkpt lat="39.417410000000004" lon="-5.926200000000001">
        <ele>457.0</ele>
        <time>2020-12-09T22:31:56.407Z</time>
      </trkpt>
      <trkpt lat="39.41761" lon="-5.925840000000001">
        <ele>457.0</ele>
        <time>2020-12-09T22:31:59.687Z</time>
      </trkpt>
      <trkpt lat="39.41789473434955" lon="-5.925287788689221">
        <ele>456.41162109375</ele>
        <time>2020-12-09T22:32:02.978Z</time>
      </trkpt>
      <trkpt lat="39.41794" lon="-5.9252">
        <ele>456.2552795410156</ele>
        <time>2020-12-09T22:32:06.270Z</time>
      </trkpt>
      <trkpt lat="39.4183" lon="-5.924650000000001">
        <ele>455.1585693359375</ele>
        <time>2020-12-09T22:32:09.574Z</time>
      </trkpt>
      <trkpt lat="39.41868" lon="-5.92407">
        <ele>452.8953857421875</ele>
        <time>2020-12-09T22:32:12.889Z</time>
      </trkpt>
      <trkpt lat="39.418890000000005" lon="-5.92363">
        <ele>451.9118957519531</ele>
        <time>2020-12-09T22:32:16.212Z</time>
      </trkpt>
      <trkpt lat="39.41917" lon="-5.92314">
        <ele>451.407958984375</ele>
        <time>2020-12-09T22:32:19.545Z</time>
      </trkpt>
      <trkpt lat="39.4193" lon="-5.922960000000001">
        <ele>451.2879943847656</ele>
        <time>2020-12-09T22:32:22.882Z</time>
      </trkpt>
      <trkpt lat="39.4193" lon="-5.922860000000001">
        <ele>451.04803466796875</ele>
        <time>2020-12-09T22:32:26.220Z</time>
      </trkpt>
      <trkpt lat="39.41953" lon="-5.92274">
        <ele>451.0517883300781</ele>
        <time>2020-12-09T22:32:29.563Z</time>
      </trkpt>
      <trkpt lat="39.41959000000001" lon="-5.922680000000001">
        <ele>450.69183349609375</ele>
        <time>2020-12-09T22:32:32.908Z</time>
      </trkpt>
      <trkpt lat="39.419650000000004" lon="-5.9225">
        <ele>450.0439453125</ele>
        <time>2020-12-09T22:32:36.256Z</time>
      </trkpt>
      <trkpt lat="39.41973" lon="-5.922280000000001">
        <ele>449.22808837890625</ele>
        <time>2020-12-09T22:32:39.607Z</time>
      </trkpt>
      <trkpt lat="39.41974843391545" lon="-5.922253665866441">
        <ele>449.0985412597656</ele>
        <time>2020-12-09T22:32:42.959Z</time>
      </trkpt>
      <trkpt lat="39.4198" lon="-5.922180000000001">
        <ele>448.668212890625</ele>
        <time>2020-12-09T22:32:46.312Z</time>
      </trkpt>
      <trkpt lat="39.420080000000006" lon="-5.92173">
        <ele>446.0406799316406</ele>
        <time>2020-12-09T22:32:49.674Z</time>
      </trkpt>
      <trkpt lat="39.420350000000006" lon="-5.92135">
        <ele>443.8564758300781</ele>
        <time>2020-12-09T22:32:53.044Z</time>
      </trkpt>
      <trkpt lat="39.420770000000005" lon="-5.920750000000001">
        <ele>441.8408203125</ele>
        <time>2020-12-09T22:32:56.427Z</time>
      </trkpt>
      <trkpt lat="39.42094" lon="-5.920540000000001">
        <ele>441.02496337890625</ele>
        <time>2020-12-09T22:32:59.815Z</time>
      </trkpt>
      <trkpt lat="39.421220000000005" lon="-5.92011">
        <ele>439.6811828613281</ele>
        <time>2020-12-09T22:33:03.211Z</time>
      </trkpt>
      <trkpt lat="39.421580000000006" lon="-5.919580000000001">
        <ele>437.76605224609375</ele>
        <time>2020-12-09T22:33:06.618Z</time>
      </trkpt>
      <trkpt lat="39.421890000000005" lon="-5.9192100000000005">
        <ele>435.8343811035156</ele>
        <time>2020-12-09T22:33:10.034Z</time>
      </trkpt>
      <trkpt lat="39.421960000000006" lon="-5.919090000000001">
        <ele>435.3544616699219</ele>
        <time>2020-12-09T22:33:13.452Z</time>
      </trkpt>
      <trkpt lat="39.4219651332353" lon="-5.919083155694514">
        <ele>435.3216247558594</ele>
        <time>2020-12-09T22:33:16.870Z</time>
      </trkpt>
      <trkpt lat="39.42202" lon="-5.91901">
        <ele>435.04962158203125</ele>
        <time>2020-12-09T22:33:20.290Z</time>
      </trkpt>
      <trkpt lat="39.42221" lon="-5.918880000000001">
        <ele>434.3831481933594</ele>
        <time>2020-12-09T22:33:23.714Z</time>
      </trkpt>
      <trkpt lat="39.423730000000006" lon="-5.91807">
        <ele>430.0008850097656</ele>
        <time>2020-12-09T22:33:27.171Z</time>
      </trkpt>
      <trkpt lat="39.42409000000001" lon="-5.91788">
        <ele>430.0</ele>
        <time>2020-12-09T22:33:30.636Z</time>
      </trkpt>
      <trkpt lat="39.42436" lon="-5.91774">
        <ele>430.0</ele>
        <time>2020-12-09T22:33:34.107Z</time>
      </trkpt>
      <trkpt lat="39.42454" lon="-5.91767">
        <ele>429.7478332519531</ele>
        <time>2020-12-09T22:33:37.581Z</time>
      </trkpt>
      <trkpt lat="39.42483" lon="-5.917540000000001">
        <ele>428.3560791015625</ele>
        <time>2020-12-09T22:33:41.061Z</time>
      </trkpt>
      <trkpt lat="39.425270000000005" lon="-5.917260000000001">
        <ele>426.2444152832031</ele>
        <time>2020-12-09T22:33:44.551Z</time>
      </trkpt>
      <trkpt lat="39.425810000000006" lon="-5.917020000000001">
        <ele>423.9117736816406</ele>
        <time>2020-12-09T22:33:48.053Z</time>
      </trkpt>
      <trkpt lat="39.42583926906629" lon="-5.917008292385913">
        <ele>423.78533935546875</ele>
        <time>2020-12-09T22:33:51.555Z</time>
      </trkpt>
      <trkpt lat="39.42591" lon="-5.916980000000001">
        <ele>423.4798278808594</ele>
        <time>2020-12-09T22:33:55.059Z</time>
      </trkpt>
      <trkpt lat="39.42643" lon="-5.916760000000001">
        <ele>421.2481994628906</ele>
        <time>2020-12-09T22:33:58.574Z</time>
      </trkpt>
      <trkpt lat="39.426790000000004" lon="-5.9164900000000005">
        <ele>419.8444519042969</ele>
        <time>2020-12-09T22:34:02.097Z</time>
      </trkpt>
      <trkpt lat="39.427020000000006" lon="-5.9164">
        <ele>418.9614562988281</ele>
        <time>2020-12-09T22:34:05.625Z</time>
      </trkpt>
      <trkpt lat="39.42741" lon="-5.9162300000000005">
        <ele>418.4935302734375</ele>
        <time>2020-12-09T22:34:09.161Z</time>
      </trkpt>
      <trkpt lat="39.427890000000005" lon="-5.9159500000000005">
        <ele>417.6705322265625</ele>
        <time>2020-12-09T22:34:12.708Z</time>
      </trkpt>
      <trkpt lat="39.42831" lon="-5.91577">
        <ele>415.65484619140625</ele>
        <time>2020-12-09T22:34:16.263Z</time>
      </trkpt>
      <trkpt lat="39.428520000000006" lon="-5.91574">
        <ele>414.64703369140625</ele>
        <time>2020-12-09T22:34:19.823Z</time>
      </trkpt>
      <trkpt lat="39.428612228738764" lon="-5.915728471418906">
        <ele>414.20440673828125</ele>
        <time>2020-12-09T22:34:23.384Z</time>
      </trkpt>
      <trkpt lat="39.42868" lon="-5.91572">
        <ele>413.84893798828125</ele>
        <time>2020-12-09T22:34:26.947Z</time>
      </trkpt>
      <trkpt lat="39.428720000000006" lon="-5.91568">
        <ele>413.6089782714844</ele>
        <time>2020-12-09T22:34:30.511Z</time>
      </trkpt>
      <trkpt lat="39.42904" lon="-5.915080000000001">
        <ele>411.316162109375</ele>
        <time>2020-12-09T22:34:34.086Z</time>
      </trkpt>
      <trkpt lat="39.42916" lon="-5.91485">
        <ele>410.2003479003906</ele>
        <time>2020-12-09T22:34:37.665Z</time>
      </trkpt>
      <trkpt lat="39.4292" lon="-5.91483">
        <ele>410.0323791503906</ele>
        <time>2020-12-09T22:34:41.245Z</time>
      </trkpt>
      <trkpt lat="39.429210000000005" lon="-5.914790000000001">
        <ele>409.8644104003906</ele>
        <time>2020-12-09T22:34:44.826Z</time>
      </trkpt>
      <trkpt lat="39.429190000000006" lon="-5.91455">
        <ele>410.3830261230469</ele>
        <time>2020-12-09T22:34:48.411Z</time>
      </trkpt>
      <trkpt lat="39.429190000000006" lon="-5.914390000000001">
        <ele>410.95892333984375</ele>
        <time>2020-12-09T22:34:51.998Z</time>
      </trkpt>
      <trkpt lat="39.42922" lon="-5.914320000000001">
        <ele>411.1388854980469</ele>
        <time>2020-12-09T22:34:55.586Z</time>
      </trkpt>
      <trkpt lat="39.42934" lon="-5.9142">
        <ele>411.2828674316406</ele>
        <time>2020-12-09T22:34:59.177Z</time>
      </trkpt>
      <trkpt lat="39.429520000000004" lon="-5.9141900000000005">
        <ele>411.1532287597656</ele>
        <time>2020-12-09T22:35:02.772Z</time>
      </trkpt>
      <trkpt lat="39.429610000000004" lon="-5.9141">
        <ele>412.01708984375</ele>
        <time>2020-12-09T22:35:06.369Z</time>
      </trkpt>
      <trkpt lat="39.429750000000006" lon="-5.91401">
        <ele>413.180908203125</ele>
        <time>2020-12-09T22:35:09.969Z</time>
      </trkpt>
      <trkpt lat="39.42985558010477" lon="-5.913930814993684">
        <ele>414.09930419921875</ele>
        <time>2020-12-09T22:35:13.572Z</time>
      </trkpt>
      <trkpt lat="39.42991000000001" lon="-5.91389">
        <ele>414.5583801269531</ele>
        <time>2020-12-09T22:35:17.176Z</time>
      </trkpt>
      <trkpt lat="39.43014" lon="-5.91361">
        <ele>416.61004638671875</ele>
        <time>2020-12-09T22:35:20.786Z</time>
      </trkpt>
      <trkpt lat="39.4305" lon="-5.913220000000001">
        <ele>418.63629150390625</ele>
        <time>2020-12-09T22:35:24.406Z</time>
      </trkpt>
      <trkpt lat="39.431340000000006" lon="-5.9122200000000005">
        <ele>421.2755126953125</ele>
        <time>2020-12-09T22:35:28.049Z</time>
      </trkpt>
      <trkpt lat="39.431630000000006" lon="-5.911720000000001">
        <ele>423.37493896484375</ele>
        <time>2020-12-09T22:35:31.701Z</time>
      </trkpt>
      <trkpt lat="39.43184" lon="-5.91141">
        <ele>424.6227111816406</ele>
        <time>2020-12-09T22:35:35.360Z</time>
      </trkpt>
      <trkpt lat="39.43201629707084" lon="-5.911279693586239">
        <ele>425.1324157714844</ele>
        <time>2020-12-09T22:35:39.023Z</time>
      </trkpt>
      <trkpt lat="39.43207" lon="-5.91124">
        <ele>425.39013671875</ele>
        <time>2020-12-09T22:35:42.687Z</time>
      </trkpt>
      <trkpt lat="39.43249" lon="-5.9109300000000005">
        <ele>427.33428955078125</ele>
        <time>2020-12-09T22:35:46.361Z</time>
      </trkpt>
      <trkpt lat="39.43273000000001" lon="-5.91075">
        <ele>428.34210205078125</ele>
        <time>2020-12-09T22:35:50.040Z</time>
      </trkpt>
      <trkpt lat="39.433130000000006" lon="-5.910500000000001">
        <ele>429.82025146484375</ele>
        <time>2020-12-09T22:35:53.728Z</time>
      </trkpt>
      <trkpt lat="39.433400000000006" lon="-5.9103">
        <ele>430.7080993652344</ele>
        <time>2020-12-09T22:35:57.422Z</time>
      </trkpt>
      <trkpt lat="39.43376000000001" lon="-5.91014">
        <ele>431.63873291015625</ele>
        <time>2020-12-09T22:36:01.124Z</time>
      </trkpt>
      <trkpt lat="39.4339" lon="-5.910100000000001">
        <ele>431.85467529296875</ele>
        <time>2020-12-09T22:36:04.829Z</time>
      </trkpt>
      <trkpt lat="39.43408" lon="-5.91004">
        <ele>432.14263916015625</ele>
        <time>2020-12-09T22:36:08.538Z</time>
      </trkpt>
      <trkpt lat="39.434140000000006" lon="-5.91">
        <ele>432.26263427734375</ele>
        <time>2020-12-09T22:36:12.248Z</time>
      </trkpt>
      <trkpt lat="39.43426" lon="-5.909840000000001">
        <ele>432.59857177734375</ele>
        <time>2020-12-09T22:36:15.961Z</time>
      </trkpt>
      <trkpt lat="39.4345" lon="-5.9095">
        <ele>432.7185974121094</ele>
        <time>2020-12-09T22:36:19.681Z</time>
      </trkpt>
      <trkpt lat="39.434559892500175" lon="-5.909404172096988">
        <ele>432.6036376953125</ele>
        <time>2020-12-09T22:36:23.403Z</time>
      </trkpt>
      <trkpt lat="39.4346" lon="-5.90934">
        <ele>432.5266418457031</ele>
        <time>2020-12-09T22:36:27.127Z</time>
      </trkpt>
      <trkpt lat="39.43471" lon="-5.90913">
        <ele>432.274658203125</ele>
        <time>2020-12-09T22:36:30.855Z</time>
      </trkpt>
      <trkpt lat="39.434870000000004" lon="-5.90871">
        <ele>432.229248046875</ele>
        <time>2020-12-09T22:36:34.590Z</time>
      </trkpt>
      <trkpt lat="39.434960000000004" lon="-5.908390000000001">
        <ele>432.5167236328125</ele>
        <time>2020-12-09T22:36:38.330Z</time>
      </trkpt>
      <trkpt lat="39.435030000000005" lon="-5.907970000000001">
        <ele>432.41497802734375</ele>
        <time>2020-12-09T22:36:42.077Z</time>
      </trkpt>
      <trkpt lat="39.43509" lon="-5.9076">
        <ele>433.00286865234375</ele>
        <time>2020-12-09T22:36:45.830Z</time>
      </trkpt>
      <trkpt lat="39.435190000000006" lon="-5.907170000000001">
        <ele>434.15386962890625</ele>
        <time>2020-12-09T22:36:49.590Z</time>
      </trkpt>
      <trkpt lat="39.43522" lon="-5.906980000000001">
        <ele>434.60980224609375</ele>
        <time>2020-12-09T22:36:53.353Z</time>
      </trkpt>
      <trkpt lat="39.435280000000006" lon="-5.90683">
        <ele>434.9697265625</ele>
        <time>2020-12-09T22:36:57.118Z</time>
      </trkpt>
      <trkpt lat="39.435480000000005" lon="-5.90629">
        <ele>436.3421936035156</ele>
        <time>2020-12-09T22:37:00.892Z</time>
      </trkpt>
      <trkpt lat="39.435610000000004" lon="-5.905970000000001">
        <ele>437.20635986328125</ele>
        <time>2020-12-09T22:37:04.672Z</time>
      </trkpt>
      <trkpt lat="39.43563" lon="-5.9057">
        <ele>437.5782775878906</ele>
        <time>2020-12-09T22:37:08.456Z</time>
      </trkpt>
      <trkpt lat="39.435680000000005" lon="-5.90542">
        <ele>438.56396484375</ele>
        <time>2020-12-09T22:37:12.245Z</time>
      </trkpt>
      <trkpt lat="39.43567" lon="-5.90521">
        <ele>439.53607177734375</ele>
        <time>2020-12-09T22:37:16.037Z</time>
      </trkpt>
      <trkpt lat="39.43567" lon="-5.9051100000000005">
        <ele>439.8960266113281</ele>
        <time>2020-12-09T22:37:19.831Z</time>
      </trkpt>
      <trkpt lat="39.435770000000005" lon="-5.904960000000001">
        <ele>440.7958679199219</ele>
        <time>2020-12-09T22:37:23.628Z</time>
      </trkpt>
      <trkpt lat="39.43587" lon="-5.90486">
        <ele>441.5157470703125</ele>
        <time>2020-12-09T22:37:27.427Z</time>
      </trkpt>
      <trkpt lat="39.43592" lon="-5.904710000000001">
        <ele>442.1787414550781</ele>
        <time>2020-12-09T22:37:31.229Z</time>
      </trkpt>
      <trkpt lat="39.435970000000005" lon="-5.9047">
        <ele>442.3706970214844</ele>
        <time>2020-12-09T22:37:35.032Z</time>
      </trkpt>
      <trkpt lat="39.436020000000006" lon="-5.9047">
        <ele>442.5506591796875</ele>
        <time>2020-12-09T22:37:38.836Z</time>
      </trkpt>
      <trkpt lat="39.436060000000005" lon="-5.90467">
        <ele>442.73065185546875</ele>
        <time>2020-12-09T22:37:42.641Z</time>
      </trkpt>
      <trkpt lat="39.43612" lon="-5.90453">
        <ele>443.1145935058594</ele>
        <time>2020-12-09T22:37:46.448Z</time>
      </trkpt>
      <trkpt lat="39.436170000000004" lon="-5.904470000000001">
        <ele>443.3498229980469</ele>
        <time>2020-12-09T22:37:50.256Z</time>
      </trkpt>
      <trkpt lat="39.436240000000005" lon="-5.904380000000001">
        <ele>443.6257629394531</ele>
        <time>2020-12-09T22:37:54.066Z</time>
      </trkpt>
      <trkpt lat="39.43628" lon="-5.9043">
        <ele>443.8177490234375</ele>
        <time>2020-12-09T22:37:57.878Z</time>
      </trkpt>
      <trkpt lat="39.43639" lon="-5.90423">
        <ele>444.1656799316406</ele>
        <time>2020-12-09T22:38:01.692Z</time>
      </trkpt>
      <trkpt lat="39.436390571447255" lon="-5.904229714276598">
        <ele>444.1673889160156</ele>
        <time>2020-12-09T22:38:05.506Z</time>
      </trkpt>
      <trkpt lat="39.43645" lon="-5.9042">
        <ele>444.3456726074219</ele>
        <time>2020-12-09T22:38:09.322Z</time>
      </trkpt>
      <trkpt lat="39.436530000000005" lon="-5.904100000000001">
        <ele>444.6575927734375</ele>
        <time>2020-12-09T22:38:13.140Z</time>
      </trkpt>
      <trkpt lat="39.43661" lon="-5.9039">
        <ele>445.090087890625</ele>
        <time>2020-12-09T22:38:16.961Z</time>
      </trkpt>
      <trkpt lat="39.436690000000006" lon="-5.9037500000000005">
        <ele>445.82196044921875</ele>
        <time>2020-12-09T22:38:20.785Z</time>
      </trkpt>
      <trkpt lat="39.43683" lon="-5.90357">
        <ele>446.8058166503906</ele>
        <time>2020-12-09T22:38:24.613Z</time>
      </trkpt>
      <trkpt lat="39.436930000000004" lon="-5.903460000000001">
        <ele>447.44171142578125</ele>
        <time>2020-12-09T22:38:28.444Z</time>
      </trkpt>
      <trkpt lat="39.437000000000005" lon="-5.9034200000000014">
        <ele>447.753662109375</ele>
        <time>2020-12-09T22:38:32.276Z</time>
      </trkpt>
      <trkpt lat="39.43719" lon="-5.903340000000001">
        <ele>448.4975280761719</ele>
        <time>2020-12-09T22:38:36.112Z</time>
      </trkpt>
      <trkpt lat="39.437290000000004" lon="-5.903320000000001">
        <ele>448.8094787597656</ele>
        <time>2020-12-09T22:38:39.950Z</time>
      </trkpt>
      <trkpt lat="39.43748" lon="-5.903340000000001">
        <ele>449.19342041015625</ele>
        <time>2020-12-09T22:38:43.792Z</time>
      </trkpt>
      <trkpt lat="39.437757514197116" lon="-5.903331837825078">
        <ele>449.4098205566406</ele>
        <time>2020-12-09T22:38:47.640Z</time>
      </trkpt>
      <trkpt lat="39.43782" lon="-5.90333">
        <ele>449.42083740234375</ele>
        <time>2020-12-09T22:38:51.489Z</time>
      </trkpt>
      <trkpt lat="39.43807" lon="-5.9032800000000005">
        <ele>449.12811279296875</ele>
        <time>2020-12-09T22:38:55.343Z</time>
      </trkpt>
      <trkpt lat="39.438320000000004" lon="-5.903110000000001">
        <ele>449.54803466796875</ele>
        <time>2020-12-09T22:38:59.203Z</time>
      </trkpt>
      <trkpt lat="39.43874" lon="-5.9029300000000005">
        <ele>449.7202453613281</ele>
        <time>2020-12-09T22:39:03.071Z</time>
      </trkpt>
      <trkpt lat="39.439310000000006" lon="-5.90289">
        <ele>448.1322937011719</ele>
        <time>2020-12-09T22:39:06.951Z</time>
      </trkpt>
      <trkpt lat="39.439620000000005" lon="-5.902810000000001">
        <ele>448.468505859375</ele>
        <time>2020-12-09T22:39:10.837Z</time>
      </trkpt>
      <trkpt lat="39.439960000000006" lon="-5.902660000000001">
        <ele>450.5441589355469</ele>
        <time>2020-12-09T22:39:14.730Z</time>
      </trkpt>
      <trkpt lat="39.4401" lon="-5.902520000000001">
        <ele>452.055908203125</ele>
        <time>2020-12-09T22:39:18.627Z</time>
      </trkpt>
      <trkpt lat="39.440200000000004" lon="-5.9024600000000005">
        <ele>452.7997741699219</ele>
        <time>2020-12-09T22:39:22.526Z</time>
      </trkpt>
      <trkpt lat="39.44039" lon="-5.90226">
        <ele>454.4561767578125</ele>
        <time>2020-12-09T22:39:26.430Z</time>
      </trkpt>
      <trkpt lat="39.44059" lon="-5.9019200000000005">
        <ele>455.43194580078125</ele>
        <time>2020-12-09T22:39:30.341Z</time>
      </trkpt>
      <trkpt lat="39.440670000000004" lon="-5.901870000000001">
        <ele>455.4559326171875</ele>
        <time>2020-12-09T22:39:34.253Z</time>
      </trkpt>
      <trkpt lat="39.44084" lon="-5.901840000000001">
        <ele>454.8802185058594</ele>
        <time>2020-12-09T22:39:38.169Z</time>
      </trkpt>
      <trkpt lat="39.44106" lon="-5.90181">
        <ele>454.0043640136719</ele>
        <time>2020-12-09T22:39:42.089Z</time>
      </trkpt>
      <trkpt lat="39.441300000000005" lon="-5.90162">
        <ele>454.850830078125</ele>
        <time>2020-12-09T22:39:46.015Z</time>
      </trkpt>
      <trkpt lat="39.44172884145152" lon="-5.901245904536878">
        <ele>457.42486572265625</ele>
        <time>2020-12-09T22:39:49.951Z</time>
      </trkpt>
      <trkpt lat="39.441770000000005" lon="-5.901210000000001">
        <ele>457.6465759277344</ele>
        <time>2020-12-09T22:39:53.888Z</time>
      </trkpt>
      <trkpt lat="39.442310000000006" lon="-5.900760000000001">
        <ele>461.60455322265625</ele>
        <time>2020-12-09T22:39:57.838Z</time>
      </trkpt>
      <trkpt lat="39.442460000000004" lon="-5.900620000000001">
        <ele>462.996337890625</ele>
        <time>2020-12-09T22:40:01.792Z</time>
      </trkpt>
      <trkpt lat="39.442780000000006" lon="-5.900320000000001">
        <ele>465.9718322753906</ele>
        <time>2020-12-09T22:40:05.754Z</time>
      </trkpt>
      <trkpt lat="39.442930000000004" lon="-5.900150000000001">
        <ele>466.9981384277344</ele>
        <time>2020-12-09T22:40:09.720Z</time>
      </trkpt>
      <trkpt lat="39.44308" lon="-5.89991">
        <ele>468.1499328613281</ele>
        <time>2020-12-09T22:40:13.690Z</time>
      </trkpt>
      <trkpt lat="39.44328" lon="-5.8992700000000005">
        <ele>472.3321228027344</ele>
        <time>2020-12-09T22:40:17.671Z</time>
      </trkpt>
      <trkpt lat="39.44341" lon="-5.8989400000000005">
        <ele>474.7077331542969</ele>
        <time>2020-12-09T22:40:21.658Z</time>
      </trkpt>
      <trkpt lat="39.443470000000005" lon="-5.898720000000001">
        <ele>476.5067138671875</ele>
        <time>2020-12-09T22:40:25.648Z</time>
      </trkpt>
      <trkpt lat="39.443780000000004" lon="-5.8982600000000005">
        <ele>479.4869079589844</ele>
        <time>2020-12-09T22:40:29.648Z</time>
      </trkpt>
      <trkpt lat="39.44411" lon="-5.89792">
        <ele>479.44158935546875</ele>
        <time>2020-12-09T22:40:33.656Z</time>
      </trkpt>
      <trkpt lat="39.444370000000006" lon="-5.897600000000001">
        <ele>479.10565185546875</ele>
        <time>2020-12-09T22:40:37.672Z</time>
      </trkpt>
      <trkpt lat="39.44447" lon="-5.89742">
        <ele>479.2496032714844</ele>
        <time>2020-12-09T22:40:41.691Z</time>
      </trkpt>
      <trkpt lat="39.444590000000005" lon="-5.8973">
        <ele>478.36651611328125</ele>
        <time>2020-12-09T22:40:45.713Z</time>
      </trkpt>
      <trkpt lat="39.44478" lon="-5.89707">
        <ele>477.5474853515625</ele>
        <time>2020-12-09T22:40:49.740Z</time>
      </trkpt>
      <trkpt lat="39.4448" lon="-5.89698">
        <ele>478.0393981933594</ele>
        <time>2020-12-09T22:40:53.769Z</time>
      </trkpt>
      <trkpt lat="39.44487" lon="-5.89665">
        <ele>480.1309509277344</ele>
        <time>2020-12-09T22:40:57.803Z</time>
      </trkpt>
      <trkpt lat="39.445135442126734" lon="-5.895635633008248">
        <ele>482.3820495605469</ele>
        <time>2020-12-09T22:41:01.854Z</time>
      </trkpt>
      <trkpt lat="39.445150000000005" lon="-5.895580000000001">
        <ele>482.439453125</ele>
        <time>2020-12-09T22:41:05.905Z</time>
      </trkpt>
      <trkpt lat="39.44516" lon="-5.895580000000001">
        <ele>482.29547119140625</ele>
        <time>2020-12-09T22:41:09.957Z</time>
      </trkpt>
      <trkpt lat="39.44536" lon="-5.895020000000001">
        <ele>479.21685791015625</ele>
        <time>2020-12-09T22:41:14.018Z</time>
      </trkpt>
      <trkpt lat="39.445530000000005" lon="-5.89461">
        <ele>478.69873046875</ele>
        <time>2020-12-09T22:41:18.086Z</time>
      </trkpt>
      <trkpt lat="39.44583" lon="-5.893980000000001">
        <ele>481.6596374511719</ele>
        <time>2020-12-09T22:41:22.166Z</time>
      </trkpt>
      <trkpt lat="39.44639" lon="-5.89308">
        <ele>483.79156494140625</ele>
        <time>2020-12-09T22:41:26.264Z</time>
      </trkpt>
      <trkpt lat="39.446720000000006" lon="-5.892650000000001">
        <ele>482.5675354003906</ele>
        <time>2020-12-09T22:41:30.371Z</time>
      </trkpt>
      <trkpt lat="39.44679942871486" lon="-5.8925639522932585">
        <ele>482.1387023925781</ele>
        <time>2020-12-09T22:41:34.480Z</time>
      </trkpt>
      <trkpt lat="39.44684" lon="-5.89252">
        <ele>481.9196472167969</ele>
        <time>2020-12-09T22:41:38.590Z</time>
      </trkpt>
      <trkpt lat="39.44717" lon="-5.8921600000000005">
        <ele>480.54168701171875</ele>
        <time>2020-12-09T22:41:42.709Z</time>
      </trkpt>
      <trkpt lat="39.44762" lon="-5.89177">
        <ele>477.62615966796875</ele>
        <time>2020-12-09T22:41:46.839Z</time>
      </trkpt>
      <trkpt lat="39.44794" lon="-5.8915500000000005">
        <ele>476.0383605957031</ele>
        <time>2020-12-09T22:41:50.976Z</time>
      </trkpt>
      <trkpt lat="39.448570000000004" lon="-5.891100000000001">
        <ele>476.10589599609375</ele>
        <time>2020-12-09T22:41:55.127Z</time>
      </trkpt>
      <trkpt lat="39.44941" lon="-5.8904000000000005">
        <ele>477.9862060546875</ele>
        <time>2020-12-09T22:41:59.298Z</time>
      </trkpt>
      <trkpt lat="39.449870000000004" lon="-5.88987">
        <ele>479.8799133300781</ele>
        <time>2020-12-09T22:42:03.482Z</time>
      </trkpt>
      <trkpt lat="39.45067" lon="-5.888920000000001">
        <ele>483.6018371582031</ele>
        <time>2020-12-09T22:42:07.687Z</time>
      </trkpt>
      <trkpt lat="39.450630000000004" lon="-5.88881">
        <ele>483.56854248046875</ele>
        <time>2020-12-09T22:42:11.894Z</time>
      </trkpt>
      <trkpt lat="39.45064" lon="-5.88869">
        <ele>483.7605285644531</ele>
        <time>2020-12-09T22:42:16.103Z</time>
      </trkpt>
      <trkpt lat="39.450660000000006" lon="-5.888660000000001">
        <ele>483.8924865722656</ele>
        <time>2020-12-09T22:42:20.313Z</time>
      </trkpt>
      <trkpt lat="39.45060686051418" lon="-5.888577338502248">
        <ele>483.92205810546875</ele>
        <time>2020-12-09T22:42:24.524Z</time>
      </trkpt>
      <trkpt lat="39.450570000000006" lon="-5.888520000000001">
        <ele>484.2660217285156</ele>
        <time>2020-12-09T22:42:28.737Z</time>
      </trkpt>
      <trkpt lat="39.45035" lon="-5.888210000000001">
        <ele>486.125732421875</ele>
        <time>2020-12-09T22:42:32.956Z</time>
      </trkpt>
      <trkpt lat="39.45029" lon="-5.88808">
        <ele>487.0086975097656</ele>
        <time>2020-12-09T22:42:37.177Z</time>
      </trkpt>
      <trkpt lat="39.450300000000006" lon="-5.88794">
        <ele>488.2529296875</ele>
        <time>2020-12-09T22:42:41.401Z</time>
      </trkpt>
      <trkpt lat="39.45038" lon="-5.8878">
        <ele>489.1412658691406</ele>
        <time>2020-12-09T22:42:45.627Z</time>
      </trkpt>
      <trkpt lat="39.45114" lon="-5.886920000000001">
        <ele>490.99810791015625</ele>
        <time>2020-12-09T22:42:49.874Z</time>
      </trkpt>
      <trkpt lat="39.45181" lon="-5.886150000000001">
        <ele>494.1086120605469</ele>
        <time>2020-12-09T22:42:54.139Z</time>
      </trkpt>
      <trkpt lat="39.45177759913179" lon="-5.886000955730881">
        <ele>494.6839599609375</ele>
        <time>2020-12-09T22:42:58.406Z</time>
      </trkpt>
      <trkpt lat="39.45176" lon="-5.8859200000000005">
        <ele>494.9964599609375</ele>
        <time>2020-12-09T22:43:02.674Z</time>
      </trkpt>
      <trkpt lat="39.451730000000005" lon="-5.885750000000001">
        <ele>495.64434814453125</ele>
        <time>2020-12-09T22:43:06.945Z</time>
      </trkpt>
      <trkpt lat="39.45176" lon="-5.88543">
        <ele>496.7601623535156</ele>
        <time>2020-12-09T22:43:11.221Z</time>
      </trkpt>
      <trkpt lat="39.45178000000001" lon="-5.8852400000000005">
        <ele>497.4200439453125</ele>
        <time>2020-12-09T22:43:15.500Z</time>
      </trkpt>
      <trkpt lat="39.451730000000005" lon="-5.884880000000001">
        <ele>499.04559326171875</ele>
        <time>2020-12-09T22:43:19.785Z</time>
      </trkpt>
      <trkpt lat="39.45197" lon="-5.88473">
        <ele>499.0806884765625</ele>
        <time>2020-12-09T22:43:24.075Z</time>
      </trkpt>
      <trkpt lat="39.45203" lon="-5.8846300000000005">
        <ele>499.4979248046875</ele>
        <time>2020-12-09T22:43:28.367Z</time>
      </trkpt>
      <trkpt lat="39.452090000000005" lon="-5.884460000000001">
        <ele>500.3257751464844</ele>
        <time>2020-12-09T22:43:32.662Z</time>
      </trkpt>
      <trkpt lat="39.452160000000006" lon="-5.88417">
        <ele>501.6215515136719</ele>
        <time>2020-12-09T22:43:36.962Z</time>
      </trkpt>
      <trkpt lat="39.45221" lon="-5.883710000000001">
        <ele>502.7845153808594</ele>
        <time>2020-12-09T22:43:41.269Z</time>
      </trkpt>
      <trkpt lat="39.452228260947244" lon="-5.88367956512132">
        <ele>502.8502502441406</ele>
        <time>2020-12-09T22:43:45.576Z</time>
      </trkpt>
      <trkpt lat="39.452270000000006" lon="-5.883610000000001">
        <ele>502.98974609375</ele>
        <time>2020-12-09T22:43:49.885Z</time>
      </trkpt>
      <trkpt lat="39.45244" lon="-5.883310000000001">
        <ele>503.4456787109375</ele>
        <time>2020-12-09T22:43:54.200Z</time>
      </trkpt>
      <trkpt lat="39.45253" lon="-5.88323">
        <ele>503.7816162109375</ele>
        <time>2020-12-09T22:43:58.517Z</time>
      </trkpt>
      <trkpt lat="39.452580000000005" lon="-5.8832">
        <ele>503.985595703125</ele>
        <time>2020-12-09T22:44:02.835Z</time>
      </trkpt>
      <trkpt lat="39.452720000000014" lon="-5.883190000000001">
        <ele>504.6202087402344</ele>
        <time>2020-12-09T22:44:07.156Z</time>
      </trkpt>
      <trkpt lat="39.452830000000006" lon="-5.88323">
        <ele>505.0107727050781</ele>
        <time>2020-12-09T22:44:11.479Z</time>
      </trkpt>
      <trkpt lat="39.453" lon="-5.8833">
        <ele>505.418701171875</ele>
        <time>2020-12-09T22:44:15.805Z</time>
      </trkpt>
      <trkpt lat="39.4532" lon="-5.88337">
        <ele>505.89862060546875</ele>
        <time>2020-12-09T22:44:20.136Z</time>
      </trkpt>
      <trkpt lat="39.453286636230665" lon="-5.883205391227326">
        <ele>506.10650634765625</ele>
        <time>2020-12-09T22:44:24.470Z</time>
      </trkpt>
      <trkpt lat="39.453300000000006" lon="-5.88318">
        <ele>506.1385803222656</ele>
        <time>2020-12-09T22:44:28.804Z</time>
      </trkpt>
      <trkpt lat="39.45329" lon="-5.883140000000001">
        <ele>506.1145935058594</ele>
        <time>2020-12-09T22:44:33.139Z</time>
      </trkpt>
      <trkpt lat="39.45284" lon="-5.88154">
        <ele>506.82781982421875</ele>
        <time>2020-12-09T22:44:37.500Z</time>
      </trkpt>
      <trkpt lat="39.45275" lon="-5.881200000000001">
        <ele>507.1451416015625</ele>
        <time>2020-12-09T22:44:41.867Z</time>
      </trkpt>
      <trkpt lat="39.45273" lon="-5.880610000000001">
        <ele>507.71258544921875</ele>
        <time>2020-12-09T22:44:46.243Z</time>
      </trkpt>
      <trkpt lat="39.45205" lon="-5.88076">
        <ele>505.4449768066406</ele>
        <time>2020-12-09T22:44:50.633Z</time>
      </trkpt>
      <trkpt lat="39.451980000000006" lon="-5.88076">
        <ele>505.20745849609375</ele>
        <time>2020-12-09T22:44:55.024Z</time>
      </trkpt>
      <trkpt lat="39.451950000000004" lon="-5.88076">
        <ele>505.1354675292969</ele>
        <time>2020-12-09T22:44:59.416Z</time>
      </trkpt>
      <trkpt lat="39.4519" lon="-5.88074">
        <ele>504.9914855957031</ele>
        <time>2020-12-09T22:45:03.809Z</time>
      </trkpt>
      <trkpt lat="39.451840000000004" lon="-5.880660000000001">
        <ele>504.81756591796875</ele>
        <time>2020-12-09T22:45:08.203Z</time>
      </trkpt>
      <trkpt lat="39.452020000000005" lon="-5.880560000000001">
        <ele>505.10064697265625</ele>
        <time>2020-12-09T22:45:12.601Z</time>
      </trkpt>
      <trkpt lat="39.452040000000004" lon="-5.880520000000001">
        <ele>505.172607421875</ele>
        <time>2020-12-09T22:45:17.000Z</time>
      </trkpt>
      <trkpt lat="39.45205" lon="-5.8805000000000005">
        <ele>505.226806640625</ele>
        <time>2020-12-09T22:45:21.399Z</time>
      </trkpt>
      <trkpt lat="39.452130000000004" lon="-5.88044">
        <ele>505.49658203125</ele>
        <time>2020-12-09T22:45:25.800Z</time>
      </trkpt>
      <trkpt lat="39.45241" lon="-5.880240000000001">
        <ele>506.50439453125</ele>
        <time>2020-12-09T22:45:30.208Z</time>
      </trkpt>
      <trkpt lat="39.452650000000006" lon="-5.87997">
        <ele>507.3682556152344</ele>
        <time>2020-12-09T22:45:34.622Z</time>
      </trkpt>
      <trkpt lat="39.452720000000014" lon="-5.87992">
        <ele>507.6202087402344</ele>
        <time>2020-12-09T22:45:39.038Z</time>
      </trkpt>
      <trkpt lat="39.45290000000001" lon="-5.8799">
        <ele>508.2680969238281</ele>
        <time>2020-12-09T22:45:43.457Z</time>
      </trkpt>
      <trkpt lat="39.452877293828536" lon="-5.879688075134196">
        <ele>508.2361145019531</ele>
        <time>2020-12-09T22:45:47.880Z</time>
      </trkpt>
      <trkpt lat="39.452870000000004" lon="-5.87962">
        <ele>508.3695983886719</ele>
        <time>2020-12-09T22:45:52.304Z</time>
      </trkpt>
      <trkpt lat="39.452670000000005" lon="-5.878120000000001">
        <ele>510.44024658203125</ele>
        <time>2020-12-09T22:45:56.751Z</time>
      </trkpt>
      <trkpt lat="39.45268" lon="-5.877960000000001">
        <ele>510.722412109375</ele>
        <time>2020-12-09T22:46:01.201Z</time>
      </trkpt>
      <trkpt lat="39.45273" lon="-5.877770000000001">
        <ele>511.3583068847656</ele>
        <time>2020-12-09T22:46:05.654Z</time>
      </trkpt>
      <trkpt lat="39.452760000000005" lon="-5.877700000000001">
        <ele>511.63427734375</ele>
        <time>2020-12-09T22:46:10.108Z</time>
      </trkpt>
      <trkpt lat="39.453920000000004" lon="-5.876200000000001">
        <ele>514.3736572265625</ele>
        <time>2020-12-09T22:46:14.595Z</time>
      </trkpt>
      <trkpt lat="39.454038176116214" lon="-5.876044893988551">
        <ele>514.090087890625</ele>
        <time>2020-12-09T22:46:19.085Z</time>
      </trkpt>
      <trkpt lat="39.454080000000005" lon="-5.875990000000001">
        <ele>513.98974609375</ele>
        <time>2020-12-09T22:46:23.576Z</time>
      </trkpt>
      <trkpt lat="39.454550000000005" lon="-5.875360000000001">
        <ele>512.8264770507812</ele>
        <time>2020-12-09T22:46:28.081Z</time>
      </trkpt>
      <trkpt lat="39.45483" lon="-5.87478">
        <ele>512.466552734375</ele>
        <time>2020-12-09T22:46:32.597Z</time>
      </trkpt>
      <trkpt lat="39.45501" lon="-5.874370000000001">
        <ele>513.0513305664062</ele>
        <time>2020-12-09T22:46:37.120Z</time>
      </trkpt>
      <trkpt lat="39.455110000000005" lon="-5.87422">
        <ele>513.3512573242188</ele>
        <time>2020-12-09T22:46:41.646Z</time>
      </trkpt>
      <trkpt lat="39.455270000000006" lon="-5.87406">
        <ele>513.7352294921875</ele>
        <time>2020-12-09T22:46:46.176Z</time>
      </trkpt>
      <trkpt lat="39.45559" lon="-5.873810000000001">
        <ele>514.1022338867188</ele>
        <time>2020-12-09T22:46:50.713Z</time>
      </trkpt>
      <trkpt lat="39.45608" lon="-5.87354">
        <ele>514.4262084960938</ele>
        <time>2020-12-09T22:46:55.261Z</time>
      </trkpt>
      <trkpt lat="39.45682" lon="-5.87323">
        <ele>517.968505859375</ele>
        <time>2020-12-09T22:46:59.825Z</time>
      </trkpt>
      <trkpt lat="39.457170000000005" lon="-5.8731100000000005">
        <ele>519.1546630859375</ele>
        <time>2020-12-09T22:47:04.396Z</time>
      </trkpt>
      <trkpt lat="39.45734" lon="-5.873030000000001">
        <ele>519.3021850585938</ele>
        <time>2020-12-09T22:47:08.971Z</time>
      </trkpt>
      <trkpt lat="39.45758" lon="-5.87298">
        <ele>519.41015625</ele>
        <time>2020-12-09T22:47:13.550Z</time>
      </trkpt>
      <trkpt lat="39.45771375005411" lon="-5.872973312503712">
        <ele>519.5465698242188</ele>
        <time>2020-12-09T22:47:18.132Z</time>
      </trkpt>
      <trkpt lat="39.45778000000001" lon="-5.8729700000000005">
        <ele>519.6140747070312</ele>
        <time>2020-12-09T22:47:22.715Z</time>
      </trkpt>
      <trkpt lat="39.458027264346846" lon="-5.872221363616985">
        <ele>517.2244262695312</ele>
        <time>2020-12-09T22:47:27.311Z</time>
      </trkpt>
      <trkpt lat="39.45804864026701" lon="-5.872020721435548">
        <ele>526.459106</ele>
        <time>2010-05-21T07:52:16Z</time>
      </trkpt>
      <trkpt lat="39.458293" lon="-5.87147">
        <ele>523.094604</ele>
        <time>2010-05-21T07:52:17Z</time>
      </trkpt>
      <trkpt lat="39.458689" lon="-5.870197">
        <ele>519.249268</ele>
        <time>2010-05-21T07:52:18Z</time>
      </trkpt>
      <trkpt lat="39.458875" lon="-5.869228">
        <ele>513.481445</ele>
        <time>2010-05-21T07:52:19Z</time>
      </trkpt>
      <trkpt lat="39.458877" lon="-5.868043">
        <ele>511.558716</ele>
        <time>2010-05-21T07:52:20Z</time>
      </trkpt>
      <trkpt lat="39.458914" lon="-5.867103">
        <ele>510.116699</ele>
        <time>2010-05-21T07:52:21Z</time>
      </trkpt>
      <trkpt lat="39.45887" lon="-5.866683">
        <ele>509.155365</ele>
        <time>2010-05-21T07:52:22Z</time>
      </trkpt>
      <trkpt lat="39.458933" lon="-5.866337">
        <ele>509.636078</ele>
        <time>2010-05-21T07:52:23Z</time>
      </trkpt>
      <trkpt lat="39.45921" lon="-5.865512">
        <ele>509.636078</ele>
        <time>2010-05-21T07:52:24Z</time>
      </trkpt>
      <trkpt lat="39.459311" lon="-5.864679">
        <ele>507.713501</ele>
        <time>2010-05-21T07:52:25Z</time>
      </trkpt>
      <trkpt lat="39.459279" lon="-5.863806">
        <ele>509.155365</ele>
        <time>2010-05-21T07:52:26Z</time>
      </trkpt>
      <trkpt lat="39.459203" lon="-5.863036">
        <ele>510.116699</ele>
        <time>2010-05-21T07:52:27Z</time>
      </trkpt>
      <trkpt lat="39.459217" lon="-5.862496">
        <ele>513.481445</ele>
        <time>2010-05-21T07:52:28Z</time>
      </trkpt>
      <trkpt lat="39.459224" lon="-5.862218">
        <ele>515.404053</ele>
        <time>2010-05-21T07:52:29Z</time>
      </trkpt>
      <trkpt lat="39.45928" lon="-5.86194">
        <ele>517.807251</ele>
        <time>2010-05-21T07:52:30Z</time>
      </trkpt>
      <trkpt lat="39.45927" lon="-5.86194">
        <ele>517.807251</ele>
        <time>2010-05-21T07:52:31Z</time>
      </trkpt>
      <trkpt lat="39.45929" lon="-5.86191">
        <ele>518.768555</ele>
        <time>2010-05-21T07:52:32Z</time>
      </trkpt>
      <trkpt lat="39.45936" lon="-5.8616">
        <ele>518.768555</ele>
        <time>2010-05-21T07:52:33Z</time>
      </trkpt>
      <trkpt lat="39.45957" lon="-5.86135">
        <ele>519.249268</ele>
        <time>2010-05-21T07:52:34Z</time>
      </trkpt>
      <trkpt lat="39.45974" lon="-5.86127">
        <ele>522.133179</ele>
        <time>2010-05-21T07:52:35Z</time>
      </trkpt>
      <trkpt lat="39.45964" lon="-5.86074">
        <ele>522.133179</ele>
        <time>2010-05-21T07:52:36Z</time>
      </trkpt>
      <trkpt lat="39.45956" lon="-5.86058">
        <ele>523.094604</ele>
        <time>2010-05-21T07:52:37Z</time>
      </trkpt>
      <trkpt lat="39.45956" lon="-5.86058">
        <ele>522.133179</ele>
        <time>2010-05-21T07:52:38Z</time>
      </trkpt>
      <trkpt lat="39.45917" lon="-5.86064">
        <ele>519.729858</ele>
        <time>2010-05-21T07:52:39Z</time>
      </trkpt>
      <trkpt lat="39.45895" lon="-5.86052">
        <ele>522.133179</ele>
        <time>2010-05-21T07:52:40Z</time>
      </trkpt>
      <trkpt lat="39.45891" lon="-5.8601">
        <ele>525.497803</ele>
        <time>2010-05-21T07:52:41Z</time>
      </trkpt>
      <trkpt lat="39.45876" lon="-5.85908">
        <ele>532.227051</ele>
        <time>2010-05-21T07:52:42Z</time>
      </trkpt>
      <trkpt lat="39.45853" lon="-5.85752">
        <ele>534.149658</ele>
        <time>2010-05-21T07:52:43Z</time>
      </trkpt>
      <trkpt lat="39.45834" lon="-5.85672">
        <ele>531.265747</ele>
        <time>2010-05-21T07:52:44Z</time>
      </trkpt>
      <trkpt lat="39.45791" lon="-5.85582">
        <ele>529.82373</ele>
        <time>2010-05-21T07:52:45Z</time>
      </trkpt>
      <trkpt lat="39.45777" lon="-5.85559">
        <ele>529.34314</ele>
        <time>2010-05-21T07:52:46Z</time>
      </trkpt>
      <trkpt lat="39.45776" lon="-5.85556">
        <ele>531.746338</ele>
        <time>2010-05-21T07:52:47Z</time>
      </trkpt>
      <trkpt lat="39.4577" lon="-5.85547">
        <ele>533.668945</ele>
        <time>2010-05-21T07:52:48Z</time>
      </trkpt>
      <trkpt lat="39.45764" lon="-5.85538">
        <ele>534.149658</ele>
        <time>2010-05-21T07:52:49Z</time>
      </trkpt>
      <trkpt lat="39.45764" lon="-5.85536">
        <ele>534.630371</ele>
        <time>2010-05-21T07:52:50Z</time>
      </trkpt>
      <trkpt lat="39.45761" lon="-5.85529">
        <ele>533.668945</ele>
        <time>2010-05-21T07:52:51Z</time>
      </trkpt>
      <trkpt lat="39.45757" lon="-5.85526">
        <ele>533.188354</ele>
        <time>2010-05-21T07:52:52Z</time>
      </trkpt>
      <trkpt lat="39.45743" lon="-5.85504">
        <ele>533.668945</ele>
        <time>2010-05-21T07:52:53Z</time>
      </trkpt>
      <trkpt lat="39.45693" lon="-5.85382">
        <ele>540.398315</ele>
        <time>2010-05-21T07:52:54Z</time>
      </trkpt>
      <trkpt lat="39.45664" lon="-5.85236">
        <ele>551.453369</ele>
        <time>2010-05-21T07:52:55Z</time>
      </trkpt>
      <trkpt lat="39.45641" lon="-5.85003">
        <ele>558.182861</ele>
        <time>2010-05-21T07:52:56Z</time>
      </trkpt>
      <trkpt lat="39.45631" lon="-5.84777">
        <ele>552.895264</ele>
        <time>2010-05-21T07:52:57Z</time>
      </trkpt>
      <trkpt lat="39.45661" lon="-5.84637">
        <ele>553.375977</ele>
        <time>2010-05-21T07:52:58Z</time>
      </trkpt>
      <trkpt lat="39.45669" lon="-5.84624">
        <ele>551.453369</ele>
        <time>2010-05-21T07:52:59Z</time>
      </trkpt>
      <trkpt lat="39.45676" lon="-5.84601">
        <ele>551.453369</ele>
        <time>2010-05-21T07:53:00Z</time>
      </trkpt>
      <trkpt lat="39.45676" lon="-5.84601">
        <ele>550.972656</ele>
        <time>2010-05-21T07:53:01Z</time>
      </trkpt>
      <trkpt lat="39.45685" lon="-5.84563">
        <ele>549.050049</ele>
        <time>2010-05-21T07:53:02Z</time>
      </trkpt>
      <trkpt lat="39.45693" lon="-5.84519">
        <ele>546.646851</ele>
        <time>2010-05-21T07:53:03Z</time>
      </trkpt>
      <trkpt lat="39.45681" lon="-5.84472">
        <ele>542.801514</ele>
        <time>2010-05-21T07:53:04Z</time>
      </trkpt>
      <trkpt lat="39.45632" lon="-5.84422">
        <ele>542.320923</ele>
        <time>2010-05-21T07:53:05Z</time>
      </trkpt>
      <trkpt lat="39.45632" lon="-5.84421">
        <ele>537.033691</ele>
        <time>2010-05-21T07:53:06Z</time>
      </trkpt>
      <trkpt lat="39.45629" lon="-5.84424">
        <ele>537.033691</ele>
        <time>2010-05-21T07:53:07Z</time>
      </trkpt>
      <trkpt lat="39.4563" lon="-5.84424">
        <ele>537.514282</ele>
        <time>2010-05-21T07:53:08Z</time>
      </trkpt>
      <trkpt lat="39.456266" lon="-5.843968">
        <ele>534.630371</ele>
        <time>2010-05-21T07:53:09Z</time>
      </trkpt>
      <trkpt lat="39.456263" lon="-5.843567">
        <ele>536.553101</ele>
        <time>2010-05-21T07:53:10Z</time>
      </trkpt>
      <trkpt lat="39.456332" lon="-5.842943">
        <ele>538.475708</ele>
        <time>2010-05-21T07:53:11Z</time>
      </trkpt>
      <trkpt lat="39.456285" lon="-5.842121">
        <ele>536.072388</ele>
        <time>2010-05-21T07:53:12Z</time>
      </trkpt>
      <trkpt lat="39.456221" lon="-5.841404">
        <ele>540.878906</ele>
        <time>2010-05-21T07:53:13Z</time>
      </trkpt>
      <trkpt lat="39.456215" lon="-5.84055">
        <ele>540</ele>
        <time>2010-05-21T07:53:14Z</time>
      </trkpt>
      <trkpt lat="39.456286" lon="-5.839315">
        <ele>540</ele>
        <time>2010-05-21T07:53:15Z</time>
      </trkpt>
      <trkpt lat="39.456054" lon="-5.838295">
        <ele>535</ele>
        <time>2010-05-21T07:53:16Z</time>
      </trkpt>
      <trkpt lat="39.455904" lon="-5.837801">
        <ele>530</ele>
        <time>2010-05-21T07:53:17Z</time>
      </trkpt>
      <trkpt lat="39.455599" lon="-5.837021">
        <ele>523</ele>
        <time>2010-05-21T07:53:18Z</time>
      </trkpt>
      <trkpt lat="39.455422" lon="-5.836509">
        <ele>519</ele>
        <time>2010-05-21T07:53:19Z</time>
      </trkpt>
      <trkpt lat="39.455301" lon="-5.835911">
        <ele>514.442627</ele>
        <time>2010-05-21T07:53:20Z</time>
      </trkpt>
      <trkpt lat="39.45518" lon="-5.835348">
        <ele>507.713501</ele>
        <time>2010-05-21T07:53:21Z</time>
      </trkpt>
      <trkpt lat="39.455141" lon="-5.834737">
        <ele>505.790894</ele>
        <time>2010-05-21T07:53:22Z</time>
      </trkpt>
      <trkpt lat="39.455163" lon="-5.833814">
        <ele>503.868134</ele>
        <time>2010-05-21T07:53:23Z</time>
      </trkpt>
      <trkpt lat="39.455235" lon="-5.833102">
        <ele>503.868134</ele>
        <time>2010-05-21T07:53:24Z</time>
      </trkpt>
      <trkpt lat="39.45523" lon="-5.832178">
        <ele>500.50354</ele>
        <time>2010-05-21T07:53:25Z</time>
      </trkpt>
      <trkpt lat="39.455242" lon="-5.83115">
        <ele>501.999969</ele>
        <time>2010-05-21T07:53:26Z</time>
      </trkpt>
      <trkpt lat="39.45524" lon="-5.830679">
        <ele>500.50354</ele>
        <time>2010-05-21T07:53:27Z</time>
      </trkpt>
      <trkpt lat="39.45506" lon="-5.830306">
        <ele>500.984131</ele>
        <time>2010-05-21T07:53:28Z</time>
      </trkpt>
      <trkpt lat="39.454476" lon="-5.829289">
        <ele>501.464844</ele>
        <time>2010-05-21T07:53:29Z</time>
      </trkpt>
      <trkpt lat="39.453717" lon="-5.827933">
        <ele>501.999969</ele>
        <time>2010-05-21T07:53:30Z</time>
      </trkpt>
      <trkpt lat="39.453334" lon="-5.82736">
        <ele>501.999969</ele>
        <time>2010-05-21T07:53:31Z</time>
      </trkpt>
      <trkpt lat="39.452916" lon="-5.826762">
        <ele>503</ele>
        <time>2010-05-21T07:53:32Z</time>
      </trkpt>
      <trkpt lat="39.452592" lon="-5.826005">
        <ele>504</ele>
        <time>2010-05-21T07:53:33Z</time>
      </trkpt>
      <trkpt lat="39.452444" lon="-5.825441">
        <ele>504.999969</ele>
        <time>2010-05-21T07:53:34Z</time>
      </trkpt>
      <trkpt lat="39.452347" lon="-5.824996">
        <ele>507.232788</ele>
        <time>2010-05-21T07:54:01Z</time>
      </trkpt>
      <trkpt lat="39.45213" lon="-5.82432">
        <ele>506.271484</ele>
        <time>2010-05-21T07:54:02Z</time>
      </trkpt>
      <trkpt lat="39.45202" lon="-5.82383">
        <ele>501.464844</ele>
        <time>2010-05-21T07:54:03Z</time>
      </trkpt>
      <trkpt lat="39.45194" lon="-5.82334">
        <ele>499.061523</ele>
        <time>2010-05-21T07:54:04Z</time>
      </trkpt>
      <trkpt lat="39.45191" lon="-5.82303">
        <ele>498.100342</ele>
        <time>2010-05-21T07:54:05Z</time>
      </trkpt>
      <trkpt lat="39.45186" lon="-5.82274">
        <ele>498.100342</ele>
        <time>2010-05-21T07:54:06Z</time>
      </trkpt>
      <trkpt lat="39.45177" lon="-5.82232">
        <ele>500.984131</ele>
        <time>2010-05-21T07:54:07Z</time>
      </trkpt>
      <trkpt lat="39.45167" lon="-5.82188">
        <ele>498.100342</ele>
        <time>2010-05-21T07:54:08Z</time>
      </trkpt>
      <trkpt lat="39.45162" lon="-5.82115">
        <ele>500.50354</ele>
        <time>2010-05-21T07:54:09Z</time>
      </trkpt>
      <trkpt lat="39.45162" lon="-5.82092">
        <ele>506.271484</ele>
        <time>2010-05-21T07:54:10Z</time>
      </trkpt>
      <trkpt lat="39.45156" lon="-5.82052">
        <ele>503.868134</ele>
        <time>2010-05-21T07:54:11Z</time>
      </trkpt>
      <trkpt lat="39.45138" lon="-5.81949">
        <ele>501.945557</ele>
        <time>2010-05-21T07:54:12Z</time>
      </trkpt>
      <trkpt lat="39.45116" lon="-5.81846">
        <ele>500.50354</ele>
        <time>2010-05-21T07:54:13Z</time>
      </trkpt>
      <trkpt lat="39.45089" lon="-5.81732">
        <ele>500.50354</ele>
        <time>2010-05-21T07:54:14Z</time>
      </trkpt>
      <trkpt lat="39.45086" lon="-5.81724">
        <ele>507.713501</ele>
        <time>2010-05-21T07:54:15Z</time>
      </trkpt>
      <trkpt lat="39.45061" lon="-5.81657">
        <ele>512.52002</ele>
        <time>2010-05-21T07:54:16Z</time>
      </trkpt>
      <trkpt lat="39.4503" lon="-5.81546">
        <ele>509.636078</ele>
        <time>2010-05-21T07:54:17Z</time>
      </trkpt>
      <trkpt lat="39.45015" lon="-5.81497">
        <ele>508.674713</ele>
        <time>2010-05-21T07:54:18Z</time>
      </trkpt>
      <trkpt lat="39.45009" lon="-5.81466">
        <ele>508.194092</ele>
        <time>2010-05-21T07:54:19Z</time>
      </trkpt>
      <trkpt lat="39.44993" lon="-5.81406">
        <ele>516.365234</ele>
        <time>2010-05-21T07:54:20Z</time>
      </trkpt>
      <trkpt lat="39.44953" lon="-5.81309">
        <ele>518.287842</ele>
        <time>2010-05-21T07:54:21Z</time>
      </trkpt>
      <trkpt lat="39.44898" lon="-5.8121">
        <ele>521.171997</ele>
        <time>2010-05-21T07:54:22Z</time>
      </trkpt>
      <trkpt lat="39.44883" lon="-5.81183">
        <ele>527.42041</ele>
        <time>2010-05-21T07:54:23Z</time>
      </trkpt>
      <trkpt lat="39.44865" lon="-5.81139">
        <ele>528.862549</ele>
        <time>2010-05-21T07:54:24Z</time>
      </trkpt>
      <trkpt lat="39.44848" lon="-5.81102">
        <ele>526.459106</ele>
        <time>2010-05-21T07:54:25Z</time>
      </trkpt>
      <trkpt lat="39.44798" lon="-5.81032">
        <ele>523.094604</ele>
        <time>2010-05-21T07:54:26Z</time>
      </trkpt>
      <trkpt lat="39.44775" lon="-5.80993">
        <ele>524.055786</ele>
        <time>2010-05-21T07:54:27Z</time>
      </trkpt>
      <trkpt lat="39.44715" lon="-5.80912">
        <ele>521.652588</ele>
        <time>2010-05-21T07:54:28Z</time>
      </trkpt>
      <trkpt lat="39.44691" lon="-5.80884">
        <ele>522.133179</ele>
        <time>2010-05-21T07:54:29Z</time>
      </trkpt>
      <trkpt lat="39.44686" lon="-5.80874">
        <ele>526.459106</ele>
        <time>2010-05-21T07:54:30Z</time>
      </trkpt>
      <trkpt lat="39.44636" lon="-5.80789">
        <ele>525.978394</ele>
        <time>2010-05-21T07:54:31Z</time>
      </trkpt>
      <trkpt lat="39.44629" lon="-5.80779">
        <ele>525.978394</ele>
        <time>2010-05-21T07:54:32Z</time>
      </trkpt>
      <trkpt lat="39.44578" lon="-5.80695">
        <ele>525.978394</ele>
        <time>2010-05-21T07:54:33Z</time>
      </trkpt>
      <trkpt lat="39.44514" lon="-5.8059">
        <ele>525.978394</ele>
        <time>2010-05-21T07:54:34Z</time>
      </trkpt>
      <trkpt lat="39.445" lon="-5.80566">
        <ele>527.901001</ele>
        <time>2010-05-21T07:54:35Z</time>
      </trkpt>
      <trkpt lat="39.44482" lon="-5.8053">
        <ele>530.304443</ele>
        <time>2010-05-21T07:54:36Z</time>
      </trkpt>
      <trkpt lat="39.44463" lon="-5.80499">
        <ele>531.746338</ele>
        <time>2010-05-21T07:54:37Z</time>
      </trkpt>
      <trkpt lat="39.44448" lon="-5.80479">
        <ele>540.398315</ele>
        <time>2010-05-21T07:54:38Z</time>
      </trkpt>
      <trkpt lat="39.44402" lon="-5.80404">
        <ele>541.359497</ele>
        <time>2010-05-21T07:54:39Z</time>
      </trkpt>
      <trkpt lat="39.44391" lon="-5.80379">
        <ele>546.646851</ele>
        <time>2010-05-21T07:54:40Z</time>
      </trkpt>
      <trkpt lat="39.44366" lon="-5.8033">
        <ele>546.16626</ele>
        <time>2010-05-21T07:54:41Z</time>
      </trkpt>
      <trkpt lat="39.44335" lon="-5.80237">
        <ele>540.878906</ele>
        <time>2010-05-21T07:54:42Z</time>
      </trkpt>
      <trkpt lat="39.44329" lon="-5.80196">
        <ele>541.359497</ele>
        <time>2010-05-21T07:54:43Z</time>
      </trkpt>
      <trkpt lat="39.44329" lon="-5.80197">
        <ele>541.359497</ele>
        <time>2010-05-21T07:54:44Z</time>
      </trkpt>
      <trkpt lat="39.44316" lon="-5.80167">
        <ele>541.84021</ele>
        <time>2010-05-21T07:54:45Z</time>
      </trkpt>
      <trkpt lat="39.44281" lon="-5.80062">
        <ele>542.320923</ele>
        <time>2010-05-21T07:54:46Z</time>
      </trkpt>
      <trkpt lat="39.44245" lon="-5.79948">
        <ele>543.762817</ele>
        <time>2010-05-21T07:54:47Z</time>
      </trkpt>
      <trkpt lat="39.44197" lon="-5.798">
        <ele>545.204834</ele>
        <time>2010-05-21T07:54:48Z</time>
      </trkpt>
      <trkpt lat="39.44195" lon="-5.79692">
        <ele>544.243652</ele>
        <time>2010-05-21T07:54:49Z</time>
      </trkpt>
      <trkpt lat="39.44213" lon="-5.79526">
        <ele>543.282104</ele>
        <time>2010-05-21T07:54:50Z</time>
      </trkpt>
      <trkpt lat="39.44246" lon="-5.79353">
        <ele>544.243652</ele>
        <time>2010-05-21T07:54:51Z</time>
      </trkpt>
      <trkpt lat="39.44273" lon="-5.79196">
        <ele>543.762817</ele>
        <time>2010-05-21T07:54:52Z</time>
      </trkpt>
      <trkpt lat="39.44281" lon="-5.79043">
        <ele>536.553101</ele>
        <time>2010-05-21T07:54:53Z</time>
      </trkpt>
      <trkpt lat="39.44269" lon="-5.78922">
        <ele>526.459106</ele>
        <time>2010-05-21T07:54:54Z</time>
      </trkpt>
      <trkpt lat="39.44223" lon="-5.78808">
        <ele>522.613892</ele>
        <time>2010-05-21T07:54:55Z</time>
      </trkpt>
      <trkpt lat="39.44158" lon="-5.78727">
        <ele>513.481445</ele>
        <time>2010-05-21T07:54:56Z</time>
      </trkpt>
      <trkpt lat="39.44048" lon="-5.78647">
        <ele>511.558716</ele>
        <time>2010-05-21T07:54:57Z</time>
      </trkpt>
      <trkpt lat="39.44043" lon="-5.78644">
        <ele>511.078003</ele>
        <time>2010-05-21T07:54:58Z</time>
      </trkpt>
      <trkpt lat="39.4402" lon="-5.7863">
        <ele>504.829468</ele>
        <time>2010-05-21T07:54:59Z</time>
      </trkpt>
      <trkpt lat="39.4395" lon="-5.78565">
        <ele>505.790894</ele>
        <time>2010-05-21T07:55:00Z</time>
      </trkpt>
      <trkpt lat="39.43897" lon="-5.78509">
        <ele>508.194092</ele>
        <time>2010-05-21T07:55:01Z</time>
      </trkpt>
      <trkpt lat="39.43877" lon="-5.78491">
        <ele>516.845947</ele>
        <time>2010-05-21T07:55:02Z</time>
      </trkpt>
      <trkpt lat="39.43817" lon="-5.78423">
        <ele>520.691284</ele>
        <time>2010-05-21T07:55:03Z</time>
      </trkpt>
      <trkpt lat="39.43795" lon="-5.78397">
        <ele>519.729858</ele>
        <time>2010-05-21T07:55:04Z</time>
      </trkpt>
      <trkpt lat="39.43732" lon="-5.78302">
        <ele>521.171997</ele>
        <time>2010-05-21T07:55:05Z</time>
      </trkpt>
      <trkpt lat="39.43669" lon="-5.78182">
        <ele>525.017212</ele>
        <time>2010-05-21T07:55:06Z</time>
      </trkpt>
      <trkpt lat="39.4363" lon="-5.78047">
        <ele>526.459106</ele>
        <time>2010-05-21T07:55:07Z</time>
      </trkpt>
      <trkpt lat="39.43628" lon="-5.78021">
        <ele>526.459106</ele>
        <time>2010-05-21T07:55:08Z</time>
      </trkpt>
      <trkpt lat="39.43633" lon="-5.78004">
        <ele>526.459106</ele>
        <time>2010-05-21T07:55:09Z</time>
      </trkpt>
      <trkpt lat="39.43633" lon="-5.78006">
        <ele>525.017212</ele>
        <time>2010-05-21T07:55:10Z</time>
      </trkpt>
      <trkpt lat="39.43623" lon="-5.77975">
        <ele>527.42041</ele>
        <time>2010-05-21T07:55:11Z</time>
      </trkpt>
      <trkpt lat="39.4361" lon="-5.77852">
        <ele>528.862549</ele>
        <time>2010-05-21T07:55:12Z</time>
      </trkpt>
      <trkpt lat="39.43596" lon="-5.77811">
        <ele>530.785156</ele>
        <time>2010-05-21T07:55:13Z</time>
      </trkpt>
      <trkpt lat="39.43501" lon="-5.77654">
        <ele>530.304443</ele>
        <time>2010-05-21T07:55:14Z</time>
      </trkpt>
      <trkpt lat="39.43466" lon="-5.77598">
        <ele>526.459106</ele>
        <time>2010-05-21T07:55:15Z</time>
      </trkpt>
      <trkpt lat="39.43465" lon="-5.77594">
        <ele>526.939819</ele>
        <time>2010-05-21T07:55:16Z</time>
      </trkpt>
      <trkpt lat="39.4345" lon="-5.77565">
        <ele>528.381836</ele>
        <time>2010-05-21T07:55:17Z</time>
      </trkpt>
      <trkpt lat="39.43403" lon="-5.77475">
        <ele>534.630371</ele>
        <time>2010-05-21T07:55:18Z</time>
      </trkpt>
      <trkpt lat="39.43375" lon="-5.77393">
        <ele>529.34314</ele>
        <time>2010-05-21T07:55:19Z</time>
      </trkpt>
      <trkpt lat="39.43346" lon="-5.77286">
        <ele>525.017212</ele>
        <time>2010-05-21T07:55:20Z</time>
      </trkpt>
      <trkpt lat="39.43292" lon="-5.77202">
        <ele>523.575195</ele>
        <time>2010-05-21T07:55:21Z</time>
      </trkpt>
      <trkpt lat="39.4325" lon="-5.77166">
        <ele>525.497803</ele>
        <time>2010-05-21T07:55:22Z</time>
      </trkpt>
      <trkpt lat="39.43232" lon="-5.77136">
        <ele>527.901001</ele>
        <time>2010-05-21T07:55:23Z</time>
      </trkpt>
      <trkpt lat="39.43216" lon="-5.77094">
        <ele>533.188354</ele>
        <time>2010-05-21T07:55:24Z</time>
      </trkpt>
      <trkpt lat="39.4318" lon="-5.76982">
        <ele>535.110962</ele>
        <time>2010-05-21T07:55:25Z</time>
      </trkpt>
      <trkpt lat="39.43169" lon="-5.7694">
        <ele>537.033691</ele>
        <time>2010-05-21T07:55:26Z</time>
      </trkpt>
      <trkpt lat="39.43131" lon="-5.76892">
        <ele>539.43689</ele>
        <time>2010-05-21T07:55:27Z</time>
      </trkpt>
      <trkpt lat="39.43075" lon="-5.76771">
        <ele>541.359497</ele>
        <time>2010-05-21T07:55:28Z</time>
      </trkpt>
      <trkpt lat="39.43042" lon="-5.76631">
        <ele>545.204834</ele>
        <time>2010-05-21T07:55:29Z</time>
      </trkpt>
      <trkpt lat="39.43027" lon="-5.7647">
        <ele>550.011475</ele>
        <time>2010-05-21T07:55:30Z</time>
      </trkpt>
      <trkpt lat="39.42984" lon="-5.76336">
        <ele>557.221436</ele>
        <time>2010-05-21T07:55:31Z</time>
      </trkpt>
      <trkpt lat="39.42946" lon="-5.76209">
        <ele>560.585938</ele>
        <time>2010-05-21T07:55:32Z</time>
      </trkpt>
      <trkpt lat="39.42933" lon="-5.76158">
        <ele>564.431152</ele>
        <time>2010-05-21T07:55:33Z</time>
      </trkpt>
      <trkpt lat="39.42908" lon="-5.76127">
        <ele>568.276367</ele>
        <time>2010-05-21T07:55:34Z</time>
      </trkpt>
      <trkpt lat="39.42889" lon="-5.7609">
        <ele>572.121826</ele>
        <time>2010-05-21T07:55:35Z</time>
      </trkpt>
      <trkpt lat="39.42863" lon="-5.76001">
        <ele>574.044434</ele>
        <time>2010-05-21T07:55:36Z</time>
      </trkpt>
      <trkpt lat="39.4284" lon="-5.75944">
        <ele>571.1604</ele>
        <time>2010-05-21T07:55:37Z</time>
      </trkpt>
      <trkpt lat="39.42825" lon="-5.75896">
        <ele>572.602539</ele>
        <time>2010-05-21T07:55:38Z</time>
      </trkpt>
      <trkpt lat="39.42816" lon="-5.75869">
        <ele>580.292969</ele>
        <time>2010-05-21T07:55:39Z</time>
      </trkpt>
      <trkpt lat="39.42803" lon="-5.75824">
        <ele>578.851074</ele>
        <time>2010-05-21T07:55:40Z</time>
      </trkpt>
      <trkpt lat="39.42796" lon="-5.758">
        <ele>578.370361</ele>
        <time>2010-05-21T07:55:41Z</time>
      </trkpt>
      <trkpt lat="39.42788" lon="-5.75783">
        <ele>577.889648</ele>
        <time>2010-05-21T07:55:42Z</time>
      </trkpt>
      <trkpt lat="39.42778" lon="-5.75765">
        <ele>578.370361</ele>
        <time>2010-05-21T07:55:43Z</time>
      </trkpt>
      <trkpt lat="39.42773" lon="-5.75745">
        <ele>576.928467</ele>
        <time>2010-05-21T07:55:44Z</time>
      </trkpt>
      <trkpt lat="39.4277" lon="-5.75711">
        <ele>575.967041</ele>
        <time>2010-05-21T07:55:45Z</time>
      </trkpt>
      <trkpt lat="39.42764" lon="-5.75683">
        <ele>575.486328</ele>
        <time>2010-05-21T07:55:46Z</time>
      </trkpt>
      <trkpt lat="39.42761" lon="-5.75667">
        <ele>574.525146</ele>
        <time>2010-05-21T07:55:47Z</time>
      </trkpt>
      <trkpt lat="39.42756" lon="-5.75644">
        <ele>572.121826</ele>
        <time>2010-05-21T07:55:48Z</time>
      </trkpt>
      <trkpt lat="39.42768" lon="-5.75564">
        <ele>572.121826</ele>
        <time>2010-05-21T07:55:49Z</time>
      </trkpt>
      <trkpt lat="39.427414" lon="-5.755626">
        <ele>571.1604</ele>
        <time>2010-05-21T07:55:50Z</time>
      </trkpt>
      <trkpt lat="39.42643" lon="-5.755354">
        <ele>574.525146</ele>
        <time>2010-05-21T07:55:51Z</time>
      </trkpt>
      <trkpt lat="39.426301" lon="-5.755082">
        <ele>577.40918</ele>
        <time>2010-05-21T07:55:52Z</time>
      </trkpt>
      <trkpt lat="39.426098" lon="-5.754912"/>
      <trkpt lat="39.4282667709544" lon="-5.7510906457901">
        <ele>579.333374</ele>
        <time>2010-05-21T07:56:23Z</time>
      </trkpt>
      <trkpt lat="39.428346" lon="-5.750889">
        <ele>582.228943</ele>
        <time>2010-05-21T07:56:24Z</time>
      </trkpt>
      <trkpt lat="39.428366" lon="-5.750651">
        <ele>584.606384</ele>
        <time>2010-05-21T07:56:25Z</time>
      </trkpt>
      <trkpt lat="39.428285" lon="-5.749936">
        <ele>589.909912</ele>
        <time>2010-05-21T07:56:26Z</time>
      </trkpt>
      <trkpt lat="39.428279" lon="-5.749426">
        <ele>596.158325</ele>
        <time>2010-05-21T07:56:27Z</time>
      </trkpt>
      <trkpt lat="39.428039" lon="-5.748642">
        <ele>597.10321</ele>
        <time>2010-05-21T07:56:28Z</time>
      </trkpt>
      <trkpt lat="39.427983" lon="-5.74838">
        <ele>599.023438</ele>
        <time>2010-05-21T07:56:29Z</time>
      </trkpt>
      <trkpt lat="39.427883" lon="-5.74819">
        <ele>602.406738</ele>
        <time>2010-05-21T07:56:30Z</time>
      </trkpt>
      <trkpt lat="39.427774" lon="-5.748048">
        <ele>602.406738</ele>
        <time>2010-05-21T07:56:31Z</time>
      </trkpt>
      <trkpt lat="39.427769" lon="-5.748003">
        <ele>603.351624</ele>
        <time>2010-05-21T07:56:32Z</time>
      </trkpt>
      <trkpt lat="39.427707" lon="-5.747946">
        <ele>604.814636</ele>
        <time>2010-05-21T07:56:33Z</time>
      </trkpt>
      <trkpt lat="39.427681" lon="-5.74786">
        <ele>604.814636</ele>
        <time>2010-05-21T07:56:34Z</time>
      </trkpt>
      <trkpt lat="39.42761" lon="-5.747771">
        <ele>613.470947</ele>
        <time>2010-05-21T07:56:35Z</time>
      </trkpt>
      <trkpt lat="39.427571" lon="-5.747041">
        <ele>618.256348</ele>
        <time>2010-05-21T07:56:36Z</time>
      </trkpt>
      <trkpt lat="39.427488" lon="-5.746759">
        <ele>623.072144</ele>
        <time>2010-05-21T07:56:37Z</time>
      </trkpt>
      <trkpt lat="39.427219" lon="-5.746422">
        <ele>624.047546</ele>
        <time>2010-05-21T07:56:38Z</time>
      </trkpt>
      <trkpt lat="39.427049" lon="-5.746261">
        <ele>624.5047</ele>
        <time>2010-05-21T07:56:39Z</time>
      </trkpt>
      <trkpt lat="39.427065" lon="-5.746074">
        <ele>629.320557</ele>
        <time>2010-05-21T07:56:40Z</time>
      </trkpt>
      <trkpt lat="39.427122" lon="-5.745828">
        <ele>637.489197</ele>
        <time>2010-05-21T07:56:41Z</time>
      </trkpt>
      <trkpt lat="39.427247" lon="-5.744928">
        <ele>646.145508</ele>
        <time>2010-05-21T07:56:42Z</time>
      </trkpt>
      <trkpt lat="39.427496" lon="-5.744124">
        <ele>643.73761</ele>
        <time>2010-05-21T07:56:43Z</time>
      </trkpt>
      <trkpt lat="39.427615" lon="-5.743803">
        <ele>642.792664</ele>
        <time>2010-05-21T07:56:44Z</time>
      </trkpt>
      <trkpt lat="39.427647" lon="-5.743645">
        <ele>641.817322</ele>
        <time>2010-05-21T07:56:45Z</time>
      </trkpt>
      <trkpt lat="39.427615" lon="-5.743284">
        <ele>642.792664</ele>
        <time>2010-05-21T07:56:46Z</time>
      </trkpt>
      <trkpt lat="39.427646" lon="-5.743274">
        <ele>644.225281</ele>
        <time>2010-05-21T07:56:47Z</time>
      </trkpt>
      <trkpt lat="39.427622" lon="-5.743236">
        <ele>647.578125</ele>
        <time>2010-05-21T07:56:48Z</time>
      </trkpt>
      <trkpt lat="39.427644" lon="-5.743095">
        <ele>652.39386</ele>
        <time>2010-05-21T07:56:49Z</time>
      </trkpt>
      <trkpt lat="39.427775" lon="-5.742831">
        <ele>653.338806</ele>
        <time>2010-05-21T07:56:50Z</time>
      </trkpt>
      <trkpt lat="39.427981" lon="-5.742681">
        <ele>655.28949</ele>
        <time>2010-05-21T07:56:51Z</time>
      </trkpt>
      <trkpt lat="39.42804" lon="-5.742584">
        <ele>658.154663</ele>
        <time>2010-05-21T07:56:52Z</time>
      </trkpt>
      <trkpt lat="39.428239" lon="-5.742345">
        <ele>668.731201</ele>
        <time>2010-05-21T07:56:53Z</time>
      </trkpt>
      <trkpt lat="39.428553" lon="-5.741793">
        <ele>673.547058</ele>
        <time>2010-05-21T07:56:54Z</time>
      </trkpt>
      <trkpt lat="39.428869" lon="-5.741426">
        <ele>676.899841</ele>
        <time>2010-05-21T07:56:55Z</time>
      </trkpt>
      <trkpt lat="39.429008" lon="-5.741133">
        <ele>677.387512</ele>
        <time>2010-05-21T07:56:56Z</time>
      </trkpt>
      <trkpt lat="39.429098" lon="-5.740996">
        <ele>680.283081</ele>
        <time>2010-05-21T07:56:57Z</time>
      </trkpt>
      <trkpt lat="39.429234" lon="-5.740694">
        <ele>683.635864</ele>
        <time>2010-05-21T07:56:58Z</time>
      </trkpt>
      <trkpt lat="39.429372" lon="-5.740467">
        <ele>689.884277</ele>
        <time>2010-05-21T07:56:59Z</time>
      </trkpt>
      <trkpt lat="39.42969" lon="-5.740158">
        <ele>690.372009</ele>
        <time>2010-05-21T07:57:00Z</time>
      </trkpt>
      <trkpt lat="39.429779" lon="-5.740002">
        <ele>692.292236</ele>
        <time>2010-05-21T07:57:01Z</time>
      </trkpt>
      <trkpt lat="39.429778" lon="-5.740018">
        <ele>692.292236</ele>
        <time>2010-05-21T07:57:02Z</time>
      </trkpt>
      <trkpt lat="39.429807" lon="-5.739993">
        <ele>695.645081</ele>
        <time>2010-05-21T07:57:03Z</time>
      </trkpt>
      <trkpt lat="39.429933" lon="-5.739792">
        <ele>701.405762</ele>
        <time>2010-05-21T07:57:04Z</time>
      </trkpt>
      <trkpt lat="39.430061" lon="-5.739676">
        <ele>704.301331</ele>
        <time>2010-05-21T07:57:05Z</time>
      </trkpt>
      <trkpt lat="39.43023" lon="-5.739348">
        <ele>706.221619</ele>
        <time>2010-05-21T07:57:06Z</time>
      </trkpt>
      <trkpt lat="39.430369" lon="-5.739154">
        <ele>709.604919</ele>
        <time>2010-05-21T07:57:07Z</time>
      </trkpt>
      <trkpt lat="39.430641" lon="-5.739193">
        <ele>713.902527</ele>
        <time>2010-05-21T07:57:08Z</time>
      </trkpt>
      <trkpt lat="39.430855" lon="-5.739125">
        <ele>714.877869</ele>
        <time>2010-05-21T07:57:09Z</time>
      </trkpt>
      <trkpt lat="39.430947" lon="-5.739053">
        <ele>715.365601</ele>
        <time>2010-05-21T07:57:10Z</time>
      </trkpt>
      <trkpt lat="39.431053" lon="-5.739007">
        <ele>718.230713</ele>
        <time>2010-05-21T07:57:11Z</time>
      </trkpt>
      <trkpt lat="39.431316" lon="-5.738833">
        <ele>719.206116</ele>
        <time>2010-05-21T07:57:12Z</time>
      </trkpt>
      <trkpt lat="39.431382" lon="-5.738737">
        <ele>721.126282</ele>
        <time>2010-05-21T07:57:13Z</time>
      </trkpt>
      <trkpt lat="39.431432" lon="-5.738629">
        <ele>720.15094</ele>
        <time>2010-05-21T07:57:14Z</time>
      </trkpt>
      <trkpt lat="39.431507" lon="-5.738638">
        <ele>719.206116</ele>
        <time>2010-05-21T07:57:15Z</time>
      </trkpt>
      <trkpt lat="39.431493" lon="-5.738582">
        <ele>718.718384</ele>
        <time>2010-05-21T07:57:16Z</time>
      </trkpt>
      <trkpt lat="39.431522" lon="-5.738466">
        <ele>717.773499</ele>
        <time>2010-05-21T07:57:17Z</time>
      </trkpt>
      <trkpt lat="39.431691" lon="-5.738011">
        <ele>723.04657</ele>
        <time>2010-05-21T07:57:18Z</time>
      </trkpt>
      <trkpt lat="39.432012" lon="-5.736528">
        <ele>726.887085</ele>
        <time>2010-05-21T07:57:19Z</time>
      </trkpt>
      <trkpt lat="39.432141" lon="-5.73621">
        <ele>727.374695</ele>
        <time>2010-05-21T07:57:20Z</time>
      </trkpt>
      <trkpt lat="39.43215" lon="-5.73612">
        <ele>726.399353</ele>
        <time>2010-05-21T07:57:21Z</time>
      </trkpt>
      <trkpt lat="39.432187" lon="-5.736144">
        <ele>727.374695</ele>
        <time>2010-05-21T07:57:22Z</time>
      </trkpt>
      <trkpt lat="39.432184" lon="-5.736029">
        <ele>728.350098</ele>
        <time>2010-05-21T07:57:23Z</time>
      </trkpt>
      <trkpt lat="39.432239" lon="-5.735997">
        <ele>726.887085</ele>
        <time>2010-05-21T07:57:24Z</time>
      </trkpt>
      <trkpt lat="39.432215" lon="-5.735965">
        <ele>727.374695</ele>
        <time>2010-05-21T07:57:25Z</time>
      </trkpt>
      <trkpt lat="39.432142" lon="-5.735986">
        <ele>727.862427</ele>
        <time>2010-05-21T07:57:26Z</time>
      </trkpt>
      <trkpt lat="39.432178" lon="-5.735984">
        <ele>727.374695</ele>
        <time>2010-05-21T07:57:27Z</time>
      </trkpt>
      <trkpt lat="39.432223" lon="-5.735921">
        <ele>725.942139</ele>
        <time>2010-05-21T07:57:28Z</time>
      </trkpt>
      <trkpt lat="39.432389" lon="-5.735524">
        <ele>722.558899</ele>
        <time>2010-05-21T07:57:29Z</time>
      </trkpt>
      <trkpt lat="39.432748" lon="-5.734853">
        <ele>725.454529</ele>
        <time>2010-05-21T07:57:30Z</time>
      </trkpt>
      <trkpt lat="39.432878" lon="-5.73449">
        <ele>729.782654</ele>
        <time>2010-05-21T07:57:31Z</time>
      </trkpt>
      <trkpt lat="39.432988" lon="-5.734313">
        <ele>731.702881</ele>
        <time>2010-05-21T07:57:32Z</time>
      </trkpt>
      <trkpt lat="39.433088" lon="-5.734192">
        <ele>733.623108</ele>
        <time>2010-05-21T07:57:33Z</time>
      </trkpt>
      <trkpt lat="39.433137" lon="-5.734195">
        <ele>733.623108</ele>
        <time>2010-05-21T07:57:34Z</time>
      </trkpt>
      <trkpt lat="39.433169" lon="-5.734233">
        <ele>732.647766</ele>
        <time>2010-05-21T07:57:35Z</time>
      </trkpt>
      <trkpt lat="39.433217" lon="-5.734206">
        <ele>733.623108</ele>
        <time>2010-05-21T07:57:36Z</time>
      </trkpt>
      <trkpt lat="39.433254" lon="-5.73415">
        <ele>733.135437</ele>
        <time>2010-05-21T07:57:37Z</time>
      </trkpt>
      <trkpt lat="39.433319" lon="-5.734125">
        <ele>733.623108</ele>
        <time>2010-05-21T07:57:38Z</time>
      </trkpt>
      <trkpt lat="39.433313" lon="-5.734074">
        <ele>735.543335</ele>
        <time>2010-05-21T07:57:39Z</time>
      </trkpt>
      <trkpt lat="39.433355" lon="-5.734046">
        <ele>736.031067</ele>
        <time>2010-05-21T07:57:40Z</time>
      </trkpt>
      <trkpt lat="39.433391" lon="-5.733969">
        <ele>739.87146</ele>
        <time>2010-05-21T07:57:41Z</time>
      </trkpt>
      <trkpt lat="39.433689" lon="-5.733632">
        <ele>739.87146</ele>
        <time>2010-05-21T07:57:42Z</time>
      </trkpt>
      <trkpt lat="39.433784" lon="-5.733475">
        <ele>742.76709</ele>
        <time>2010-05-21T07:57:43Z</time>
      </trkpt>
      <trkpt lat="39.433845" lon="-5.733258">
        <ele>745.144531</ele>
        <time>2010-05-21T07:57:44Z</time>
      </trkpt>
      <trkpt lat="39.433974" lon="-5.733026">
        <ele>744.199707</ele>
        <time>2010-05-21T07:57:45Z</time>
      </trkpt>
      <trkpt lat="39.434004" lon="-5.732914">
        <ele>748.527832</ele>
        <time>2010-05-21T07:57:46Z</time>
      </trkpt>
      <trkpt lat="39.434269" lon="-5.732479">
        <ele>751.392944</ele>
        <time>2010-05-21T07:57:47Z</time>
      </trkpt>
      <trkpt lat="39.434559" lon="-5.732109">
        <ele>752.368286</ele>
        <time>2010-05-21T07:57:48Z</time>
      </trkpt>
      <trkpt lat="39.43465" lon="-5.73204">
        <ele>753.800903</ele>
        <time>2010-05-21T07:57:49Z</time>
      </trkpt>
      <trkpt lat="39.434865" lon="-5.731925">
        <ele>752.856018</ele>
        <time>2010-05-21T07:57:50Z</time>
      </trkpt>
      <trkpt lat="39.434942" lon="-5.731786">
        <ele>753.800903</ele>
        <time>2010-05-21T07:57:51Z</time>
      </trkpt>
      <trkpt lat="39.434858" lon="-5.731954">
        <ele>753.800903</ele>
        <time>2010-05-21T07:57:52Z</time>
      </trkpt>
      <trkpt lat="39.434858" lon="-5.731906">
        <ele>753.343689</ele>
        <time>2010-05-21T07:57:53Z</time>
      </trkpt>
      <trkpt lat="39.434832" lon="-5.731909">
        <ele>754.776245</ele>
        <time>2010-05-21T07:57:54Z</time>
      </trkpt>
      <trkpt lat="39.434959" lon="-5.731751">
        <ele>752.368286</ele>
        <time>2010-05-21T07:57:55Z</time>
      </trkpt>
      <trkpt lat="39.435042" lon="-5.731589">
        <ele>750.93573</ele>
        <time>2010-05-21T07:57:56Z</time>
      </trkpt>
      <trkpt lat="39.435048" lon="-5.731542">
        <ele>751.880676</ele>
        <time>2010-05-21T07:57:57Z</time>
      </trkpt>
      <trkpt lat="39.435063" lon="-5.73157">
        <ele>752.368286</ele>
        <time>2010-05-21T07:57:58Z</time>
      </trkpt>
      <trkpt lat="39.435092" lon="-5.73146">
        <ele>753.800903</ele>
        <time>2010-05-21T07:57:59Z</time>
      </trkpt>
      <trkpt lat="39.435089" lon="-5.731391">
        <ele>756.208801</ele>
        <time>2010-05-21T07:58:00Z</time>
      </trkpt>
      <trkpt lat="39.435382" lon="-5.731158">
        <ele>757.641357</ele>
        <time>2010-05-21T07:58:01Z</time>
      </trkpt>
      <trkpt lat="39.435499" lon="-5.731029">
        <ele>762.457214</ele>
        <time>2010-05-21T07:58:02Z</time>
      </trkpt>
      <trkpt lat="39.435912" lon="-5.730128">
        <ele>766.297729</ele>
        <time>2010-05-21T07:58:03Z</time>
      </trkpt>
      <trkpt lat="39.43623" lon="-5.729575">
        <ele>768.217896</ele>
        <time>2010-05-21T07:58:04Z</time>
      </trkpt>
      <trkpt lat="39.436375" lon="-5.729233">
        <ele>770.138123</ele>
        <time>2010-05-21T07:58:05Z</time>
      </trkpt>
      <trkpt lat="39.4364" lon="-5.729131">
        <ele>769.680969</ele>
        <time>2010-05-21T07:58:06Z</time>
      </trkpt>
      <trkpt lat="39.436575" lon="-5.728705">
        <ele>773.033752</ele>
        <time>2010-05-21T07:58:07Z</time>
      </trkpt>
      <trkpt lat="39.436819" lon="-5.72803">
        <ele>778.794495</ele>
        <time>2010-05-21T07:58:08Z</time>
      </trkpt>
      <trkpt lat="39.437023" lon="-5.727527">
        <ele>780.257507</ele>
        <time>2010-05-21T07:58:09Z</time>
      </trkpt>
      <trkpt lat="39.437157" lon="-5.727279">
        <ele>780.257507</ele>
        <time>2010-05-21T07:58:10Z</time>
      </trkpt>
      <trkpt lat="39.437149" lon="-5.727258">
        <ele>779.769836</ele>
        <time>2010-05-21T07:58:11Z</time>
      </trkpt>
      <trkpt lat="39.43716" lon="-5.727227">
        <ele>780.714661</ele>
        <time>2010-05-21T07:58:12Z</time>
      </trkpt>
      <trkpt lat="39.437171" lon="-5.727164">
        <ele>782.177734</ele>
        <time>2010-05-21T07:58:13Z</time>
      </trkpt>
      <trkpt lat="39.437199" lon="-5.727095">
        <ele>781.202393</ele>
        <time>2010-05-21T07:58:14Z</time>
      </trkpt>
      <trkpt lat="39.437232" lon="-5.727026">
        <ele>779.769836</ele>
        <time>2010-05-21T07:58:15Z</time>
      </trkpt>
      <trkpt lat="39.437374" lon="-5.726479">
        <ele>782.177734</ele>
        <time>2010-05-21T07:58:16Z</time>
      </trkpt>
      <trkpt lat="39.437581" lon="-5.72597">
        <ele>782.665466</ele>
        <time>2010-05-21T07:58:17Z</time>
      </trkpt>
      <trkpt lat="39.437681" lon="-5.725766">
        <ele>784.585693</ele>
        <time>2010-05-21T07:58:18Z</time>
      </trkpt>
      <trkpt lat="39.437815" lon="-5.725401">
        <ele>784.098022</ele>
        <time>2010-05-21T07:58:19Z</time>
      </trkpt>
      <trkpt lat="39.438119" lon="-5.724253">
        <ele>789.371033</ele>
        <time>2010-05-21T07:58:20Z</time>
      </trkpt>
      <trkpt lat="39.438375" lon="-5.723464">
        <ele>786.963074</ele>
        <time>2010-05-21T07:58:21Z</time>
      </trkpt>
      <trkpt lat="39.4384" lon="-5.723343">
        <ele>788.913879</ele>
        <time>2010-05-21T07:58:22Z</time>
      </trkpt>
      <trkpt lat="39.438409" lon="-5.723229">
        <ele>789.858704</ele>
        <time>2010-05-21T07:58:23Z</time>
      </trkpt>
      <trkpt lat="39.438395" lon="-5.723217">
        <ele>791.778931</ele>
        <time>2010-05-21T07:58:24Z</time>
      </trkpt>
      <trkpt lat="39.438402" lon="-5.722868">
        <ele>791.778931</ele>
        <time>2010-05-21T07:58:25Z</time>
      </trkpt>
      <trkpt lat="39.438342" lon="-5.722487">
        <ele>790.346375</ele>
        <time>2010-05-21T07:58:26Z</time>
      </trkpt>
      <trkpt lat="39.438304" lon="-5.721866">
        <ele>790.834106</ele>
        <time>2010-05-21T07:58:27Z</time>
      </trkpt>
      <trkpt lat="39.438436" lon="-5.720843">
        <ele>790.346375</ele>
        <time>2010-05-21T07:58:28Z</time>
      </trkpt>
      <trkpt lat="39.438441" lon="-5.720634">
        <ele>789.371033</ele>
        <time>2010-05-21T07:58:29Z</time>
      </trkpt>
      <trkpt lat="39.43841" lon="-5.720449">
        <ele>793.699219</ele>
        <time>2010-05-21T07:58:30Z</time>
      </trkpt>
      <trkpt lat="39.438018" lon="-5.71945">
        <ele>796.107117</ele>
        <time>2010-05-21T07:58:31Z</time>
      </trkpt>
      <trkpt lat="39.43783" lon="-5.71883">
        <ele>796.594788</ele>
        <time>2010-05-21T07:58:32Z</time>
      </trkpt>
      <trkpt lat="39.437809" lon="-5.718385">
        <ele>801.319214</ele>
        <time>2010-05-21T07:58:33Z</time>
      </trkpt>
      <trkpt lat="39.43782" lon="-5.7184">
        <ele>801.014404</ele>
        <time>2010-05-21T07:58:34Z</time>
      </trkpt>
      <trkpt lat="39.43787" lon="-5.71803">
        <ele>803.757629</ele>
        <time>2010-05-21T07:58:35Z</time>
      </trkpt>
      <trkpt lat="39.43783" lon="-5.71723">
        <ele>803.757629</ele>
        <time>2010-05-21T07:58:36Z</time>
      </trkpt>
      <trkpt lat="39.43782" lon="-5.71715">
        <ele>805.281616</ele>
        <time>2010-05-21T07:58:37Z</time>
      </trkpt>
      <trkpt lat="39.43777" lon="-5.71684">
        <ele>805.281616</ele>
        <time>2010-05-21T07:58:38Z</time>
      </trkpt>
      <trkpt lat="39.4378" lon="-5.71609">
        <ele>804.671997</ele>
        <time>2010-05-21T07:58:39Z</time>
      </trkpt>
      <trkpt lat="39.43787" lon="-5.71543">
        <ele>806.195984</ele>
        <time>2010-05-21T07:58:40Z</time>
      </trkpt>
      <trkpt lat="39.438" lon="-5.71491">
        <ele>806.805603</ele>
        <time>2010-05-21T07:58:41Z</time>
      </trkpt>
      <trkpt lat="39.43814" lon="-5.71454">
        <ele>807.719971</ele>
        <time>2010-05-21T07:58:42Z</time>
      </trkpt>
      <trkpt lat="39.43819" lon="-5.7144">
        <ele>808.634399</ele>
        <time>2010-05-21T07:58:43Z</time>
      </trkpt>
      <trkpt lat="39.43824" lon="-5.71389">
        <ele>808.634399</ele>
        <time>2010-05-21T07:58:44Z</time>
      </trkpt>
      <trkpt lat="39.43827" lon="-5.71372">
        <ele>808.634399</ele>
        <time>2010-05-21T07:58:45Z</time>
      </trkpt>
      <trkpt lat="39.43823" lon="-5.7134">
        <ele>807.110413</ele>
        <time>2010-05-21T07:58:46Z</time>
      </trkpt>
      <trkpt lat="39.4381" lon="-5.713">
        <ele>804.671997</ele>
        <time>2010-05-21T07:58:47Z</time>
      </trkpt>
      <trkpt lat="39.43823" lon="-5.71253">
        <ele>802.843201</ele>
        <time>2010-05-21T07:58:48Z</time>
      </trkpt>
      <trkpt lat="39.43853" lon="-5.71206">
        <ele>797.661621</ele>
        <time>2010-05-21T07:58:49Z</time>
      </trkpt>
      <trkpt lat="39.43899" lon="-5.71138">
        <ele>796.442383</ele>
        <time>2010-05-21T07:58:50Z</time>
      </trkpt>
      <trkpt lat="39.43908" lon="-5.71125">
        <ele>790.955994</ele>
        <time>2010-05-21T07:58:51Z</time>
      </trkpt>
      <trkpt lat="39.43947" lon="-5.71091">
        <ele>788.822388</ele>
        <time>2010-05-21T07:58:52Z</time>
      </trkpt>
      <trkpt lat="39.43957" lon="-5.7108">
        <ele>785.469604</ele>
        <time>2010-05-21T07:58:53Z</time>
      </trkpt>
      <trkpt lat="39.43982" lon="-5.71039">
        <ele>783.640808</ele>
        <time>2010-05-21T07:58:54Z</time>
      </trkpt>
      <trkpt lat="39.43996" lon="-5.71018">
        <ele>780.592773</ele>
        <time>2010-05-21T07:58:55Z</time>
      </trkpt>
      <trkpt lat="39.44026" lon="-5.70964">
        <ele>778.763977</ele>
        <time>2010-05-21T07:58:56Z</time>
      </trkpt>
      <trkpt lat="39.44044" lon="-5.70907">
        <ele>777.849609</ele>
        <time>2010-05-21T07:58:57Z</time>
      </trkpt>
      <trkpt lat="39.44053" lon="-5.70795">
        <ele>779.678406</ele>
        <time>2010-05-21T07:58:58Z</time>
      </trkpt>
      <trkpt lat="39.44051" lon="-5.70775">
        <ele>781.812012</ele>
        <time>2010-05-21T07:58:59Z</time>
      </trkpt>
      <trkpt lat="39.44039" lon="-5.70685">
        <ele>780.592773</ele>
        <time>2010-05-21T07:59:00Z</time>
      </trkpt>
      <trkpt lat="39.44041" lon="-5.70636">
        <ele>781.202393</ele>
        <time>2010-05-21T07:59:01Z</time>
      </trkpt>
      <trkpt lat="39.44046" lon="-5.70621">
        <ele>780.288025</ele>
        <time>2010-05-21T07:59:02Z</time>
      </trkpt>
      <trkpt lat="39.44054" lon="-5.70576">
        <ele>780.592773</ele>
        <time>2010-05-21T07:59:03Z</time>
      </trkpt>
      <trkpt lat="39.44053" lon="-5.70549">
        <ele>779.678406</ele>
        <time>2010-05-21T07:59:04Z</time>
      </trkpt>
      <trkpt lat="39.44042" lon="-5.70516">
        <ele>779.373596</ele>
        <time>2010-05-21T07:59:05Z</time>
      </trkpt>
      <trkpt lat="39.4403" lon="-5.70504">
        <ele>778.459229</ele>
        <time>2010-05-21T07:59:06Z</time>
      </trkpt>
      <trkpt lat="39.44001" lon="-5.7049">
        <ele>776.020813</ele>
        <time>2010-05-21T07:59:07Z</time>
      </trkpt>
      <trkpt lat="39.44006" lon="-5.70454">
        <ele>775.106384</ele>
        <time>2010-05-21T07:59:08Z</time>
      </trkpt>
      <trkpt lat="39.44016" lon="-5.70442">
        <ele>772.66803</ele>
        <time>2010-05-21T07:59:09Z</time>
      </trkpt>
      <trkpt lat="39.44036" lon="-5.70407">
        <ele>770.534424</ele>
        <time>2010-05-21T07:59:10Z</time>
      </trkpt>
      <trkpt lat="39.44039" lon="-5.70393">
        <ele>768.705627</ele>
        <time>2010-05-21T07:59:11Z</time>
      </trkpt>
      <trkpt lat="39.44041" lon="-5.70371">
        <ele>767.791199</ele>
        <time>2010-05-21T07:59:12Z</time>
      </trkpt>
      <trkpt lat="39.4405" lon="-5.70342">
        <ele>769.315186</ele>
        <time>2010-05-21T07:59:13Z</time>
      </trkpt>
      <trkpt lat="39.44068" lon="-5.70241">
        <ele>770.534424</ele>
        <time>2010-05-21T07:59:14Z</time>
      </trkpt>
      <trkpt lat="39.44074" lon="-5.70223">
        <ele>772.058411</ele>
        <time>2010-05-21T07:59:15Z</time>
      </trkpt>
      <trkpt lat="39.44084" lon="-5.70161">
        <ele>773.887207</ele>
        <time>2010-05-21T07:59:16Z</time>
      </trkpt>
      <trkpt lat="39.44098" lon="-5.70126">
        <ele>777.23999</ele>
        <time>2010-05-21T07:59:17Z</time>
      </trkpt>
      <trkpt lat="39.44113" lon="-5.70059">
        <ele>778.763977</ele>
        <time>2010-05-21T07:59:18Z</time>
      </trkpt>
      <trkpt lat="39.44107" lon="-5.70012">
        <ele>782.116821</ele>
        <time>2010-05-21T07:59:19Z</time>
      </trkpt>
      <trkpt lat="39.44097" lon="-5.69987">
        <ele>784.555176</ele>
        <time>2010-05-21T07:59:20Z</time>
      </trkpt>
      <trkpt lat="39.4408" lon="-5.69966">
        <ele>787.60321</ele>
        <time>2010-05-21T07:59:21Z</time>
      </trkpt>
      <trkpt lat="39.44065" lon="-5.69947">
        <ele>788.822388</ele>
        <time>2010-05-21T07:59:22Z</time>
      </trkpt>
      <trkpt lat="39.44052" lon="-5.69923">
        <ele>792.175171</ele>
        <time>2010-05-21T07:59:23Z</time>
      </trkpt>
      <trkpt lat="39.44049" lon="-5.69905">
        <ele>794.613586</ele>
        <time>2010-05-21T07:59:24Z</time>
      </trkpt>
      <trkpt lat="39.44063" lon="-5.69868">
        <ele>794.613586</ele>
        <time>2010-05-21T07:59:25Z</time>
      </trkpt>
      <trkpt lat="39.44074" lon="-5.69834">
        <ele>796.137573</ele>
        <time>2010-05-21T07:59:26Z</time>
      </trkpt>
      <trkpt lat="39.44071" lon="-5.69795">
        <ele>799.490417</ele>
        <time>2010-05-21T07:59:27Z</time>
      </trkpt>
      <trkpt lat="39.44069" lon="-5.69717">
        <ele>801.014404</ele>
        <time>2010-05-21T07:59:28Z</time>
      </trkpt>
      <trkpt lat="39.44065" lon="-5.6969">
        <ele>802.233582</ele>
        <time>2010-05-21T07:59:29Z</time>
      </trkpt>
      <trkpt lat="39.4406" lon="-5.69633">
        <ele>801.014404</ele>
        <time>2010-05-21T07:59:30Z</time>
      </trkpt>
      <trkpt lat="39.4406" lon="-5.69638">
        <ele>802.843201</ele>
        <time>2010-05-21T07:59:31Z</time>
      </trkpt>
      <trkpt lat="39.4406" lon="-5.69608">
        <ele>811.377625</ele>
        <time>2010-05-21T07:59:32Z</time>
      </trkpt>
      <trkpt lat="39.44065" lon="-5.69499">
        <ele>812.596802</ele>
        <time>2010-05-21T07:59:33Z</time>
      </trkpt>
      <trkpt lat="39.44077" lon="-5.69467">
        <ele>815.949585</ele>
        <time>2010-05-21T07:59:34Z</time>
      </trkpt>
      <trkpt lat="39.44113" lon="-5.69399">
        <ele>817.168823</ele>
        <time>2010-05-21T07:59:35Z</time>
      </trkpt>
      <trkpt lat="39.44145" lon="-5.69271">
        <ele>816.864014</ele>
        <time>2010-05-21T07:59:36Z</time>
      </trkpt>
      <trkpt lat="39.44147" lon="-5.69246">
        <ele>808.02478</ele>
        <time>2010-05-21T07:59:37Z</time>
      </trkpt>
      <trkpt lat="39.44141" lon="-5.69202">
        <ele>794.308777</ele>
        <time>2010-05-21T07:59:38Z</time>
      </trkpt>
      <trkpt lat="39.44143" lon="-5.69146">
        <ele>788.517578</ele>
        <time>2010-05-21T07:59:39Z</time>
      </trkpt>
      <trkpt lat="39.44152" lon="-5.69068">
        <ele>787.60321</ele>
        <time>2010-05-21T07:59:40Z</time>
      </trkpt>
      <trkpt lat="39.44153" lon="-5.69047">
        <ele>788.822388</ele>
        <time>2010-05-21T07:59:41Z</time>
      </trkpt>
      <trkpt lat="39.44149" lon="-5.69031">
        <ele>788.517578</ele>
        <time>2010-05-21T07:59:42Z</time>
      </trkpt>
      <trkpt lat="39.4415" lon="-5.69029">
        <ele>789.432007</ele>
        <time>2010-05-21T07:59:43Z</time>
      </trkpt>
      <trkpt lat="39.44142" lon="-5.69018">
        <ele>787.90802</ele>
        <time>2010-05-21T07:59:44Z</time>
      </trkpt>
      <trkpt lat="39.44142" lon="-5.69018">
        <ele>786.383972</ele>
        <time>2010-05-21T07:59:45Z</time>
      </trkpt>
      <trkpt lat="39.44126" lon="-5.68985">
        <ele>783.031189</ele>
        <time>2010-05-21T07:59:46Z</time>
      </trkpt>
      <trkpt lat="39.44085" lon="-5.68944">
        <ele>780.288025</ele>
        <time>2010-05-21T07:59:47Z</time>
      </trkpt>
      <trkpt lat="39.44058" lon="-5.6891">
        <ele>772.66803</ele>
        <time>2010-05-21T07:59:48Z</time>
      </trkpt>
      <trkpt lat="39.44032" lon="-5.68875">
        <ele>768.096008</ele>
        <time>2010-05-21T07:59:49Z</time>
      </trkpt>
      <trkpt lat="39.44022" lon="-5.68863">
        <ele>761.085571</ele>
        <time>2010-05-21T07:59:50Z</time>
      </trkpt>
      <trkpt lat="39.43999" lon="-5.68837">
        <ele>762</ele>
        <time>2010-05-21T07:59:51Z</time>
      </trkpt>
      <trkpt lat="39.43988" lon="-5.68818">
        <ele>764.438416</ele>
        <time>2010-05-21T07:59:52Z</time>
      </trkpt>
      <trkpt lat="39.43977" lon="-5.68803">
        <ele>764.743225</ele>
        <time>2010-05-21T07:59:53Z</time>
      </trkpt>
      <trkpt lat="39.4396" lon="-5.68788">
        <ele>763.828796</ele>
        <time>2010-05-21T07:59:54Z</time>
      </trkpt>
      <trkpt lat="39.4394" lon="-5.68774">
        <ele>761.085571</ele>
        <time>2010-05-21T07:59:55Z</time>
      </trkpt>
      <trkpt lat="39.4392" lon="-5.68754">
        <ele>758.647217</ele>
        <time>2010-05-21T07:59:56Z</time>
      </trkpt>
      <trkpt lat="39.43901" lon="-5.68735">
        <ele>755.294373</ele>
        <time>2010-05-21T07:59:57Z</time>
      </trkpt>
      <trkpt lat="39.43896" lon="-5.68731">
        <ele>752.856018</ele>
        <time>2010-05-21T07:59:58Z</time>
      </trkpt>
      <trkpt lat="39.43883" lon="-5.68715">
        <ele>750.112793</ele>
        <time>2010-05-21T07:59:59Z</time>
      </trkpt>
      <trkpt lat="39.4387" lon="-5.68703">
        <ele>747.979187</ele>
        <time>2010-05-21T08:00:00Z</time>
      </trkpt>
      <trkpt lat="39.43862" lon="-5.68694">
        <ele>746.150391</ele>
        <time>2010-05-21T08:00:01Z</time>
      </trkpt>
      <trkpt lat="39.4384" lon="-5.68674">
        <ele>741.883179</ele>
        <time>2010-05-21T08:00:02Z</time>
      </trkpt>
      <trkpt lat="39.43812" lon="-5.68664">
        <ele>742.797607</ele>
        <time>2010-05-21T08:00:03Z</time>
      </trkpt>
      <trkpt lat="39.43779" lon="-5.68653">
        <ele>743.102417</ele>
        <time>2010-05-21T08:00:04Z</time>
      </trkpt>
      <trkpt lat="39.43738" lon="-5.68633">
        <ele>742.187988</ele>
        <time>2010-05-21T08:00:05Z</time>
      </trkpt>
      <trkpt lat="39.43703" lon="-5.68604">
        <ele>739.749573</ele>
        <time>2010-05-21T08:00:06Z</time>
      </trkpt>
      <trkpt lat="39.43693" lon="-5.68595">
        <ele>738.530396</ele>
        <time>2010-05-21T08:00:07Z</time>
      </trkpt>
      <trkpt lat="39.43687" lon="-5.68594">
        <ele>738.835205</ele>
        <time>2010-05-21T08:00:08Z</time>
      </trkpt>
      <trkpt lat="39.4367" lon="-5.6857">
        <ele>741.883179</ele>
        <time>2010-05-21T08:00:09Z</time>
      </trkpt>
      <trkpt lat="39.43657" lon="-5.6856">
        <ele>741.273621</ele>
        <time>2010-05-21T08:00:10Z</time>
      </trkpt>
      <trkpt lat="39.43641" lon="-5.6855">
        <ele>739.749573</ele>
        <time>2010-05-21T08:00:11Z</time>
      </trkpt>
      <trkpt lat="39.43629" lon="-5.6854">
        <ele>738.530396</ele>
        <time>2010-05-21T08:00:12Z</time>
      </trkpt>
      <trkpt lat="39.43606" lon="-5.68532">
        <ele>730.605591</ele>
        <time>2010-05-21T08:00:13Z</time>
      </trkpt>
      <trkpt lat="39.43573" lon="-5.68521">
        <ele>723.595215</ele>
        <time>2010-05-21T08:00:14Z</time>
      </trkpt>
      <trkpt lat="39.43533" lon="-5.68496">
        <ele>720.54718</ele>
        <time>2010-05-21T08:00:15Z</time>
      </trkpt>
      <trkpt lat="39.43508" lon="-5.68479">
        <ele>717.194397</ele>
        <time>2010-05-21T08:00:16Z</time>
      </trkpt>
      <trkpt lat="39.43482" lon="-5.68453">
        <ele>714.451172</ele>
        <time>2010-05-21T08:00:17Z</time>
      </trkpt>
      <trkpt lat="39.43451" lon="-5.68442">
        <ele>712.012817</ele>
        <time>2010-05-21T08:00:18Z</time>
      </trkpt>
      <trkpt lat="39.43434" lon="-5.68423">
        <ele>712.927185</ele>
        <time>2010-05-21T08:00:19Z</time>
      </trkpt>
      <trkpt lat="39.43411" lon="-5.68404">
        <ele>711.098389</ele>
        <time>2010-05-21T08:00:20Z</time>
      </trkpt>
      <trkpt lat="39.43395" lon="-5.68388">
        <ele>704.392822</ele>
        <time>2010-05-21T08:00:21Z</time>
      </trkpt>
      <trkpt lat="39.43357" lon="-5.68362">
        <ele>701.039978</ele>
        <time>2010-05-21T08:00:22Z</time>
      </trkpt>
      <trkpt lat="39.43327" lon="-5.68349">
        <ele>693.724792</ele>
        <time>2010-05-21T08:00:23Z</time>
      </trkpt>
      <trkpt lat="39.43285" lon="-5.6833">
        <ele>691.286377</ele>
        <time>2010-05-21T08:00:24Z</time>
      </trkpt>
      <trkpt lat="39.43253" lon="-5.68329">
        <ele>691.286377</ele>
        <time>2010-05-21T08:00:25Z</time>
      </trkpt>
      <trkpt lat="39.43252" lon="-5.68329">
        <ele>690.981628</ele>
        <time>2010-05-21T08:00:26Z</time>
      </trkpt>
      <trkpt lat="39.43232" lon="-5.68324">
        <ele>690.372009</ele>
        <time>2010-05-21T08:00:27Z</time>
      </trkpt>
      <trkpt lat="39.4322" lon="-5.68321">
        <ele>686.409607</ele>
        <time>2010-05-21T08:00:28Z</time>
      </trkpt>
      <trkpt lat="39.4318" lon="-5.68317">
        <ele>685.495178</ele>
        <time>2010-05-21T08:00:29Z</time>
      </trkpt>
      <trkpt lat="39.43172" lon="-5.68315">
        <ele>680.618408</ele>
        <time>2010-05-21T08:00:30Z</time>
      </trkpt>
      <trkpt lat="39.43127" lon="-5.68296">
        <ele>674.5224</ele>
        <time>2010-05-21T08:00:31Z</time>
      </trkpt>
      <trkpt lat="39.43079" lon="-5.68272">
        <ele>672.083984</ele>
        <time>2010-05-21T08:00:32Z</time>
      </trkpt>
      <trkpt lat="39.43062" lon="-5.68249">
        <ele>671.474426</ele>
        <time>2010-05-21T08:00:33Z</time>
      </trkpt>
      <trkpt lat="39.43055" lon="-5.68241">
        <ele>669.64563</ele>
        <time>2010-05-21T08:00:34Z</time>
      </trkpt>
      <trkpt lat="39.43022" lon="-5.68226">
        <ele>672.998413</ele>
        <time>2010-05-21T08:00:35Z</time>
      </trkpt>
      <trkpt lat="39.42981" lon="-5.68227">
        <ele>677.875183</ele>
        <time>2010-05-21T08:00:36Z</time>
      </trkpt>
      <trkpt lat="39.42944" lon="-5.68207">
        <ele>680.313599</ele>
        <time>2010-05-21T08:00:37Z</time>
      </trkpt>
      <trkpt lat="39.42905" lon="-5.68186">
        <ele>679.39917</ele>
        <time>2010-05-21T08:00:38Z</time>
      </trkpt>
      <trkpt lat="39.42867" lon="-5.6817">
        <ele>678.789612</ele>
        <time>2010-05-21T08:00:39Z</time>
      </trkpt>
      <trkpt lat="39.42827" lon="-5.68164">
        <ele>677.265625</ele>
        <time>2010-05-21T08:00:40Z</time>
      </trkpt>
      <trkpt lat="39.42829" lon="-5.68166">
        <ele>676.351196</ele>
        <time>2010-05-21T08:00:41Z</time>
      </trkpt>
      <trkpt lat="39.42812" lon="-5.68161">
        <ele>675.436829</ele>
        <time>2010-05-21T08:00:42Z</time>
      </trkpt>
      <trkpt lat="39.42796" lon="-5.68165">
        <ele>673.607971</ele>
        <time>2010-05-21T08:00:43Z</time>
      </trkpt>
      <trkpt lat="39.42786" lon="-5.68165">
        <ele>666.902405</ele>
        <time>2010-05-21T08:00:44Z</time>
      </trkpt>
      <trkpt lat="39.42721" lon="-5.68186">
        <ele>663.85437</ele>
        <time>2010-05-21T08:00:45Z</time>
      </trkpt>
      <trkpt lat="39.42657" lon="-5.68212">
        <ele>662.025574</ele>
        <time>2010-05-21T08:00:46Z</time>
      </trkpt>
      <trkpt lat="39.42633" lon="-5.68208">
        <ele>661.111206</ele>
        <time>2010-05-21T08:00:47Z</time>
      </trkpt>
      <trkpt lat="39.42576" lon="-5.68183">
        <ele>660.501587</ele>
        <time>2010-05-21T08:00:48Z</time>
      </trkpt>
      <trkpt lat="39.4255" lon="-5.68191">
        <ele>660.501587</ele>
        <time>2010-05-21T08:00:49Z</time>
      </trkpt>
      <trkpt lat="39.42541" lon="-5.68192">
        <ele>660.196777</ele>
        <time>2010-05-21T08:00:50Z</time>
      </trkpt>
      <trkpt lat="39.42525" lon="-5.68196">
        <ele>658.672791</ele>
        <time>2010-05-21T08:00:51Z</time>
      </trkpt>
      <trkpt lat="39.42504" lon="-5.6819">
        <ele>657.758423</ele>
        <time>2010-05-21T08:00:52Z</time>
      </trkpt>
      <trkpt lat="39.42496" lon="-5.68184">
        <ele>652.271973</ele>
        <time>2010-05-21T08:00:53Z</time>
      </trkpt>
      <trkpt lat="39.42467" lon="-5.68153">
        <ele>643.127991</ele>
        <time>2010-05-21T08:00:54Z</time>
      </trkpt>
      <trkpt lat="39.42454" lon="-5.68133">
        <ele>645.566406</ele>
        <time>2010-05-21T08:00:55Z</time>
      </trkpt>
      <trkpt lat="39.42432" lon="-5.68041">
        <ele>648.004822</ele>
        <time>2010-05-21T08:00:56Z</time>
      </trkpt>
      <trkpt lat="39.42395" lon="-5.67978">
        <ele>650.443176</ele>
        <time>2010-05-21T08:00:57Z</time>
      </trkpt>
      <trkpt lat="39.42391" lon="-5.67906">
        <ele>651.052795</ele>
        <time>2010-05-21T08:00:58Z</time>
      </trkpt>
      <trkpt lat="39.42407" lon="-5.67886">
        <ele>651.357605</ele>
        <time>2010-05-21T08:00:59Z</time>
      </trkpt>
      <trkpt lat="39.42487" lon="-5.67827">
        <ele>650.443176</ele>
        <time>2010-05-21T08:01:00Z</time>
      </trkpt>
      <trkpt lat="39.42562" lon="-5.67709">
        <ele>648.004822</ele>
        <time>2010-05-21T08:01:01Z</time>
      </trkpt>
      <trkpt lat="39.42666" lon="-5.67542">
        <ele>646.176025</ele>
        <time>2010-05-21T08:01:02Z</time>
      </trkpt>
      <trkpt lat="39.4268" lon="-5.67437">
        <ele>647.090393</ele>
        <time>2010-05-21T08:01:03Z</time>
      </trkpt>
      <trkpt lat="39.42635" lon="-5.67353">
        <ele>648.61438</ele>
        <time>2010-05-21T08:01:04Z</time>
      </trkpt>
      <trkpt lat="39.42616" lon="-5.67333">
        <ele>651.357605</ele>
        <time>2010-05-21T08:01:05Z</time>
      </trkpt>
      <trkpt lat="39.42597" lon="-5.67264">
        <ele>643.73761</ele>
        <time>2010-05-21T08:01:06Z</time>
      </trkpt>
      <trkpt lat="39.42597" lon="-5.67264">
        <ele>639.470398</ele>
        <time>2010-05-21T08:01:07Z</time>
      </trkpt>
      <trkpt lat="39.426275" lon="-5.671064">
        <ele>631.240784</ele>
        <time>2010-05-21T08:01:08Z</time>
      </trkpt>
      <trkpt lat="39.42613" lon="-5.669752">
        <ele>625.449585</ele>
        <time>2010-05-21T08:01:09Z</time>
      </trkpt>
      <trkpt lat="39.42616" lon="-5.66882">
        <ele>620.268005</ele>
        <time>2010-05-21T08:01:10Z</time>
      </trkpt>
      <trkpt lat="39.42628" lon="-5.66748">
        <ele>619.353577</ele>
        <time>2010-05-21T08:01:11Z</time>
      </trkpt>
      <trkpt lat="39.42629" lon="-5.6672">
        <ele>616.305603</ele>
        <time>2010-05-21T08:01:12Z</time>
      </trkpt>
      <trkpt lat="39.42618" lon="-5.66664">
        <ele>607.161621</ele>
        <time>2010-05-21T08:01:13Z</time>
      </trkpt>
      <trkpt lat="39.42551" lon="-5.66491">
        <ele>602.894409</ele>
        <time>2010-05-21T08:01:14Z</time>
      </trkpt>
      <trkpt lat="39.42469" lon="-5.66351">
        <ele>601.97998</ele>
        <time>2010-05-21T08:01:15Z</time>
      </trkpt>
      <trkpt lat="39.42442" lon="-5.66301">
        <ele>599.541626</ele>
        <time>2010-05-21T08:01:16Z</time>
      </trkpt>
      <trkpt lat="39.42442" lon="-5.66299">
        <ele>600.151184</ele>
        <time>2010-05-21T08:01:17Z</time>
      </trkpt>
      <trkpt lat="39.42442" lon="-5.663">
        <ele>599.541626</ele>
        <time>2010-05-21T08:01:18Z</time>
      </trkpt>
      <trkpt lat="39.42421" lon="-5.66271">
        <ele>596.493591</ele>
        <time>2010-05-21T08:01:19Z</time>
      </trkpt>
      <trkpt lat="39.42364" lon="-5.66171">
        <ele>594.664795</ele>
        <time>2010-05-21T08:01:20Z</time>
      </trkpt>
      <trkpt lat="39.42344" lon="-5.66116">
        <ele>592.226379</ele>
        <time>2010-05-21T08:01:21Z</time>
      </trkpt>
      <trkpt lat="39.42325" lon="-5.65929">
        <ele>592.226379</ele>
        <time>2010-05-21T08:01:22Z</time>
      </trkpt>
      <trkpt lat="39.4232" lon="-5.65892">
        <ele>591.007202</ele>
        <time>2010-05-21T08:01:23Z</time>
      </trkpt>
      <trkpt lat="39.42314" lon="-5.65874">
        <ele>591.92157</ele>
        <time>2010-05-21T08:01:24Z</time>
      </trkpt>
      <trkpt lat="39.42315" lon="-5.65849">
        <ele>593.750427</ele>
        <time>2010-05-21T08:01:25Z</time>
      </trkpt>
      <trkpt lat="39.4231" lon="-5.65761">
        <ele>594.664795</ele>
        <time>2010-05-21T08:01:26Z</time>
      </trkpt>
      <trkpt lat="39.42298" lon="-5.65555">
        <ele>591.92157</ele>
        <time>2010-05-21T08:01:27Z</time>
      </trkpt>
      <trkpt lat="39.42316" lon="-5.65306">
        <ele>589.788025</ele>
        <time>2010-05-21T08:01:28Z</time>
      </trkpt>
      <trkpt lat="39.42356" lon="-5.65109">
        <ele>591.007202</ele>
        <time>2010-05-21T08:01:29Z</time>
      </trkpt>
      <trkpt lat="39.42393" lon="-5.6494">
        <ele>592.226379</ele>
        <time>2010-05-21T08:01:30Z</time>
      </trkpt>
      <trkpt lat="39.42409" lon="-5.64868">
        <ele>592.835999</ele>
        <time>2010-05-21T08:01:31Z</time>
      </trkpt>
      <trkpt lat="39.42412" lon="-5.64856">
        <ele>593.140808</ele>
        <time>2010-05-21T08:01:32Z</time>
      </trkpt>
      <trkpt lat="39.42413" lon="-5.64859">
        <ele>592.835999</ele>
        <time>2010-05-21T08:01:33Z</time>
      </trkpt>
      <trkpt lat="39.42412" lon="-5.64859">
        <ele>592.226379</ele>
        <time>2010-05-21T08:01:34Z</time>
      </trkpt>
      <trkpt lat="39.42423" lon="-5.64841">
        <ele>591.92157</ele>
        <time>2010-05-21T08:01:35Z</time>
      </trkpt>
      <trkpt lat="39.42479" lon="-5.64764">
        <ele>592.226379</ele>
        <time>2010-05-21T08:01:36Z</time>
      </trkpt>
      <trkpt lat="39.42496" lon="-5.64735">
        <ele>593.140808</ele>
        <time>2010-05-21T08:01:37Z</time>
      </trkpt>
      <trkpt lat="39.42518" lon="-5.64672">
        <ele>597.10321</ele>
        <time>2010-05-21T08:01:38Z</time>
      </trkpt>
      <trkpt lat="39.42531" lon="-5.64544">
        <ele>597.71283</ele>
        <time>2010-05-21T08:01:39Z</time>
      </trkpt>
      <trkpt lat="39.42526" lon="-5.64492">
        <ele>597.10321</ele>
        <time>2010-05-21T08:01:40Z</time>
      </trkpt>
      <trkpt lat="39.42526" lon="-5.64494">
        <ele>597.71283</ele>
        <time>2010-05-21T08:01:41Z</time>
      </trkpt>
      <trkpt lat="39.42512" lon="-5.64488">
        <ele>598.932007</ele>
        <time>2010-05-21T08:01:42Z</time>
      </trkpt>
      <trkpt lat="39.42468" lon="-5.64491">
        <ele>601.065613</ele>
        <time>2010-05-21T08:01:43Z</time>
      </trkpt>
      <trkpt lat="39.42437" lon="-5.64498">
        <ele>609.599976</ele>
        <time>2010-05-21T08:01:44Z</time>
      </trkpt>
      <trkpt lat="39.42311" lon="-5.6451">
        <ele>614.476807</ele>
        <time>2010-05-21T08:01:45Z</time>
      </trkpt>
      <trkpt lat="39.42197" lon="-5.64518">
        <ele>612.64801</ele>
        <time>2010-05-21T08:01:46Z</time>
      </trkpt>
      <trkpt lat="39.42151" lon="-5.64519">
        <ele>609.599976</ele>
        <time>2010-05-21T08:01:47Z</time>
      </trkpt>
      <trkpt lat="39.42095" lon="-5.64495">
        <ele>608.685608</ele>
        <time>2010-05-21T08:01:48Z</time>
      </trkpt>
      <trkpt lat="39.42076" lon="-5.64475">
        <ele>608.685608</ele>
        <time>2010-05-21T08:01:49Z</time>
      </trkpt>
      <trkpt lat="39.42052" lon="-5.6444">
        <ele>611.124023</ele>
        <time>2010-05-21T08:01:50Z</time>
      </trkpt>
      <trkpt lat="39.42033" lon="-5.6438">
        <ele>611.428772</ele>
        <time>2010-05-21T08:01:51Z</time>
      </trkpt>
      <trkpt lat="39.42023" lon="-5.64188">
        <ele>611.428772</ele>
        <time>2010-05-21T08:01:52Z</time>
      </trkpt>
      <trkpt lat="39.42012" lon="-5.64048">
        <ele>619.353577</ele>
        <time>2010-05-21T08:01:53Z</time>
      </trkpt>
      <trkpt lat="39.41971" lon="-5.6388">
        <ele>619.658386</ele>
        <time>2010-05-21T08:01:54Z</time>
      </trkpt>
      <trkpt lat="39.41966" lon="-5.6386">
        <ele>621.487183</ele>
        <time>2010-05-21T08:01:55Z</time>
      </trkpt>
      <trkpt lat="39.41959" lon="-5.63843">
        <ele>622.706421</ele>
        <time>2010-05-21T08:01:56Z</time>
      </trkpt>
      <trkpt lat="39.41959" lon="-5.63847">
        <ele>623.620789</ele>
        <time>2010-05-21T08:01:57Z</time>
      </trkpt>
      <trkpt lat="39.41951" lon="-5.63807">
        <ele>625.449585</ele>
        <time>2010-05-21T08:01:58Z</time>
      </trkpt>
      <trkpt lat="39.41922" lon="-5.63687">
        <ele>635.507996</ele>
        <time>2010-05-21T08:01:59Z</time>
      </trkpt>
      <trkpt lat="39.41889" lon="-5.63542">
        <ele>648.61438</ele>
        <time>2010-05-21T08:02:00Z</time>
      </trkpt>
      <trkpt lat="39.41841" lon="-5.63344">
        <ele>651.967224</ele>
        <time>2010-05-21T08:02:01Z</time>
      </trkpt>
      <trkpt lat="39.41793" lon="-5.6327">
        <ele>652.271973</ele>
        <time>2010-05-21T08:02:02Z</time>
      </trkpt>
      <trkpt lat="39.41772" lon="-5.63238">
        <ele>647.700012</ele>
        <time>2010-05-21T08:02:03Z</time>
      </trkpt>
      <trkpt lat="39.41697" lon="-5.63066">
        <ele>643.73761</ele>
        <time>2010-05-21T08:02:04Z</time>
      </trkpt>
      <trkpt lat="39.41648" lon="-5.62958">
        <ele>633.679199</ele>
        <time>2010-05-21T08:02:05Z</time>
      </trkpt>
      <trkpt lat="39.41618" lon="-5.62927">
        <ele>632.764771</ele>
        <time>2010-05-21T08:02:06Z</time>
      </trkpt>
      <trkpt lat="39.41616" lon="-5.62928">
        <ele>631.850403</ele>
        <time>2010-05-21T08:02:07Z</time>
      </trkpt>
      <trkpt lat="39.41608" lon="-5.62926">
        <ele>630.631226</ele>
        <time>2010-05-21T08:02:08Z</time>
      </trkpt>
      <trkpt lat="39.41558" lon="-5.62921">
        <ele>631.240784</ele>
        <time>2010-05-21T08:02:09Z</time>
      </trkpt>
      <trkpt lat="39.41542" lon="-5.62907">
        <ele>632.764771</ele>
        <time>2010-05-21T08:02:10Z</time>
      </trkpt>
      <trkpt lat="39.41545" lon="-5.62904">
        <ele>632.764771</ele>
        <time>2010-05-21T08:02:11Z</time>
      </trkpt>
      <trkpt lat="39.41545" lon="-5.62904">
        <ele>633.984009</ele>
        <time>2010-05-21T08:02:12Z</time>
      </trkpt>
      <trkpt lat="39.41544" lon="-5.6291">
        <ele>635.507996</ele>
        <time>2010-05-21T08:02:13Z</time>
      </trkpt>
      <trkpt lat="39.41514" lon="-5.6293">
        <ele>637.641602</ele>
        <time>2010-05-21T08:02:14Z</time>
      </trkpt>
      <trkpt lat="39.41492" lon="-5.62957">
        <ele>640.384827</ele>
        <time>2010-05-21T08:02:15Z</time>
      </trkpt>
      <trkpt lat="39.41438" lon="-5.63048">
        <ele>641.299194</ele>
        <time>2010-05-21T08:02:16Z</time>
      </trkpt>
      <trkpt lat="39.41434" lon="-5.63054">
        <ele>642.213623</ele>
        <time>2010-05-21T08:02:17Z</time>
      </trkpt>
      <trkpt lat="39.4142" lon="-5.63068">
        <ele>641.299194</ele>
        <time>2010-05-21T08:02:18Z</time>
      </trkpt>
      <trkpt lat="39.41397" lon="-5.63072">
        <ele>638.55603</ele>
        <time>2010-05-21T08:02:19Z</time>
      </trkpt>
      <trkpt lat="39.41336" lon="-5.63057">
        <ele>638.860779</ele>
        <time>2010-05-21T08:02:20Z</time>
      </trkpt>
      <trkpt lat="39.413186" lon="-5.630549">
        <ele>638.55603</ele>
        <time>2010-05-21T08:02:21Z</time>
      </trkpt>
      <trkpt lat="39.413147" lon="-5.630478">
        <ele>638.55603</ele>
        <time>2010-05-21T08:02:22Z</time>
      </trkpt>
      <trkpt lat="39.413149" lon="-5.630379">
        <ele>638.860779</ele>
        <time>2010-05-21T08:02:23Z</time>
      </trkpt>
      <trkpt lat="39.41317" lon="-5.63029">
        <ele>639.470398</ele>
        <time>2010-05-21T08:02:24Z</time>
      </trkpt>
      <trkpt lat="39.41317" lon="-5.63023">
        <ele>639.775208</ele>
        <time>2010-05-21T08:02:25Z</time>
      </trkpt>
      <trkpt lat="39.41321" lon="-5.62995">
        <ele>641.299194</ele>
        <time>2010-05-21T08:02:26Z</time>
      </trkpt>
      <trkpt lat="39.41333" lon="-5.62891">
        <ele>643.127991</ele>
        <time>2010-05-21T08:02:27Z</time>
      </trkpt>
      <trkpt lat="39.41344" lon="-5.62834">
        <ele>652.881592</ele>
        <time>2010-05-21T08:02:28Z</time>
      </trkpt>
      <trkpt lat="39.41357" lon="-5.62772"/>
      <trkpt lat="39.41425" lon="-5.6249">
        <ele>644.347229</ele>
        <time>2010-05-21T08:02:37Z</time>
      </trkpt>
      <trkpt lat="39.41436" lon="-5.62436">
        <ele>638.860779</ele>
        <time>2010-05-21T08:02:38Z</time>
      </trkpt>
      <trkpt lat="39.41478" lon="-5.62393">
        <ele>636.422424</ele>
        <time>2010-05-21T08:02:39Z</time>
      </trkpt>
      <trkpt lat="39.41495" lon="-5.62367">
        <ele>636.117615</ele>
        <time>2010-05-21T08:02:40Z</time>
      </trkpt>
      <trkpt lat="39.41511" lon="-5.62345">
        <ele>635.507996</ele>
        <time>2010-05-21T08:02:41Z</time>
      </trkpt>
      <trkpt lat="39.41522" lon="-5.62306">
        <ele>635.203186</ele>
        <time>2010-05-21T08:02:42Z</time>
      </trkpt>
      <trkpt lat="39.41524" lon="-5.62296">
        <ele>635.203186</ele>
        <time>2010-05-21T08:02:43Z</time>
      </trkpt>
      <trkpt lat="39.41532" lon="-5.62263">
        <ele>637.031982</ele>
        <time>2010-05-21T08:02:44Z</time>
      </trkpt>
      <trkpt lat="39.41537" lon="-5.62252">
        <ele>637.031982</ele>
        <time>2010-05-21T08:02:45Z</time>
      </trkpt>
      <trkpt lat="39.41534" lon="-5.62222">
        <ele>638.860779</ele>
        <time>2010-05-21T08:02:46Z</time>
      </trkpt>
      <trkpt lat="39.41535" lon="-5.62204">
        <ele>641.299194</ele>
        <time>2010-05-21T08:02:47Z</time>
      </trkpt>
      <trkpt lat="39.41535" lon="-5.62189">
        <ele>643.73761</ele>
        <time>2010-05-21T08:02:48Z</time>
      </trkpt>
      <trkpt lat="39.4154" lon="-5.6217">
        <ele>646.176025</ele>
        <time>2010-05-21T08:02:49Z</time>
      </trkpt>
      <trkpt lat="39.4156" lon="-5.62097">
        <ele>650.443176</ele>
        <time>2010-05-21T08:02:50Z</time>
      </trkpt>
      <trkpt lat="39.41564" lon="-5.62086">
        <ele>650.443176</ele>
        <time>2010-05-21T08:02:51Z</time>
      </trkpt>
      <trkpt lat="39.41587" lon="-5.6203">
        <ele>644.651978</ele>
        <time>2010-05-21T08:02:52Z</time>
      </trkpt>
      <trkpt lat="39.41592" lon="-5.62015">
        <ele>640.384827</ele>
        <time>2010-05-21T08:02:53Z</time>
      </trkpt>
      <trkpt lat="39.41608" lon="-5.61993">
        <ele>640.384827</ele>
        <time>2010-05-21T08:02:54Z</time>
      </trkpt>
      <trkpt lat="39.41615" lon="-5.6198">
        <ele>639.775208</ele>
        <time>2010-05-21T08:02:55Z</time>
      </trkpt>
      <trkpt lat="39.41625" lon="-5.61956">
        <ele>640.384827</ele>
        <time>2010-05-21T08:02:56Z</time>
      </trkpt>
      <trkpt lat="39.41639" lon="-5.61932">
        <ele>640.384827</ele>
        <time>2010-05-21T08:02:57Z</time>
      </trkpt>
      <trkpt lat="39.41688" lon="-5.61871">
        <ele>641.299194</ele>
        <time>2010-05-21T08:02:58Z</time>
      </trkpt>
      <trkpt lat="39.41701" lon="-5.61864">
        <ele>641.299194</ele>
        <time>2010-05-21T08:02:59Z</time>
      </trkpt>
      <trkpt lat="39.41749" lon="-5.61802">
        <ele>643.127991</ele>
        <time>2010-05-21T08:03:00Z</time>
      </trkpt>
      <trkpt lat="39.41754" lon="-5.61792">
        <ele>642.823181</ele>
        <time>2010-05-21T08:03:01Z</time>
      </trkpt>
      <trkpt lat="39.41762" lon="-5.61773">
        <ele>644.651978</ele>
        <time>2010-05-21T08:03:02Z</time>
      </trkpt>
      <trkpt lat="39.41798" lon="-5.61712">
        <ele>647.090393</ele>
        <time>2010-05-21T08:03:03Z</time>
      </trkpt>
      <trkpt lat="39.41813" lon="-5.61684">
        <ele>651.357605</ele>
        <time>2010-05-21T08:03:04Z</time>
      </trkpt>
      <trkpt lat="39.41823" lon="-5.6167">
        <ele>654.405579</ele>
        <time>2010-05-21T08:03:05Z</time>
      </trkpt>
      <trkpt lat="39.41833" lon="-5.61649">
        <ele>654.405579</ele>
        <time>2010-05-21T08:03:06Z</time>
      </trkpt>
      <trkpt lat="39.41834" lon="-5.61647">
        <ele>654.710388</ele>
        <time>2010-05-21T08:03:07Z</time>
      </trkpt>
      <trkpt lat="39.41867" lon="-5.61626">
        <ele>655.320007</ele>
        <time>2010-05-21T08:03:08Z</time>
      </trkpt>
      <trkpt lat="39.41878" lon="-5.61618">
        <ele>656.843994</ele>
        <time>2010-05-21T08:03:09Z</time>
      </trkpt>
      <trkpt lat="39.41925" lon="-5.61591">
        <ele>659.587219</ele>
        <time>2010-05-21T08:03:10Z</time>
      </trkpt>
      <trkpt lat="39.41943" lon="-5.61577">
        <ele>662.025574</ele>
        <time>2010-05-21T08:03:11Z</time>
      </trkpt>
      <trkpt lat="39.41946" lon="-5.61573">
        <ele>661.111206</ele>
        <time>2010-05-21T08:03:12Z</time>
      </trkpt>
      <trkpt lat="39.41962" lon="-5.61545">
        <ele>662.025574</ele>
        <time>2010-05-21T08:03:13Z</time>
      </trkpt>
      <trkpt lat="39.41984" lon="-5.615">
        <ele>664.463989</ele>
        <time>2010-05-21T08:03:14Z</time>
      </trkpt>
      <trkpt lat="39.41999" lon="-5.61473">
        <ele>666.902405</ele>
        <time>2010-05-21T08:03:15Z</time>
      </trkpt>
      <trkpt lat="39.4201" lon="-5.61457">
        <ele>669.34082</ele>
        <time>2010-05-21T08:03:16Z</time>
      </trkpt>
      <trkpt lat="39.42021" lon="-5.61446">
        <ele>671.474426</ele>
        <time>2010-05-21T08:03:17Z</time>
      </trkpt>
      <trkpt lat="39.42036" lon="-5.6143">
        <ele>675.132019</ele>
        <time>2010-05-21T08:03:18Z</time>
      </trkpt>
      <trkpt lat="39.4208" lon="-5.61347">
        <ele>683.056824</ele>
        <time>2010-05-21T08:03:19Z</time>
      </trkpt>
      <trkpt lat="39.42091" lon="-5.61283">
        <ele>688.543213</ele>
        <time>2010-05-21T08:03:20Z</time>
      </trkpt>
      <trkpt lat="39.42089" lon="-5.61269">
        <ele>689.76239</ele>
        <time>2010-05-21T08:03:21Z</time>
      </trkpt>
      <trkpt lat="39.42079" lon="-5.61238">
        <ele>693.724792</ele>
        <time>2010-05-21T08:03:22Z</time>
      </trkpt>
      <trkpt lat="39.42075" lon="-5.61209">
        <ele>696.468018</ele>
        <time>2010-05-21T08:03:23Z</time>
      </trkpt>
      <trkpt lat="39.42064" lon="-5.61164">
        <ele>701.039978</ele>
        <time>2010-05-21T08:03:24Z</time>
      </trkpt>
      <trkpt lat="39.42065" lon="-5.61143">
        <ele>705.30719</ele>
        <time>2010-05-21T08:03:25Z</time>
      </trkpt>
      <trkpt lat="39.42076" lon="-5.61143">
        <ele>705.612</ele>
        <time>2010-05-21T08:03:26Z</time>
      </trkpt>
      <trkpt lat="39.42111" lon="-5.61135">
        <ele>714.451172</ele>
        <time>2010-05-21T08:03:27Z</time>
      </trkpt>
      <trkpt lat="39.42128" lon="-5.61132">
        <ele>712.927185</ele>
        <time>2010-05-21T08:03:28Z</time>
      </trkpt>
      <trkpt lat="39.42137" lon="-5.61129">
        <ele>712.927185</ele>
        <time>2010-05-21T08:03:29Z</time>
      </trkpt>
      <trkpt lat="39.42146" lon="-5.61124">
        <ele>712.622375</ele>
        <time>2010-05-21T08:03:30Z</time>
      </trkpt>
      <trkpt lat="39.42188" lon="-5.61092">
        <ele>711.098389</ele>
        <time>2010-05-21T08:03:31Z</time>
      </trkpt>
      <trkpt lat="39.42202" lon="-5.61073">
        <ele>711.403198</ele>
        <time>2010-05-21T08:03:32Z</time>
      </trkpt>
      <trkpt lat="39.42209" lon="-5.61066">
        <ele>712.012817</ele>
        <time>2010-05-21T08:03:33Z</time>
      </trkpt>
      <trkpt lat="39.42222" lon="-5.61049">
        <ele>712.927185</ele>
        <time>2010-05-21T08:03:34Z</time>
      </trkpt>
      <trkpt lat="39.42228" lon="-5.6104">
        <ele>712.927185</ele>
        <time>2010-05-21T08:03:35Z</time>
      </trkpt>
      <trkpt lat="39.42238" lon="-5.61026">
        <ele>714.755981</ele>
        <time>2010-05-21T08:03:36Z</time>
      </trkpt>
      <trkpt lat="39.42243" lon="-5.61013">
        <ele>715.365601</ele>
        <time>2010-05-21T08:03:37Z</time>
      </trkpt>
      <trkpt lat="39.42279" lon="-5.60968">
        <ele>720.242371</ele>
        <time>2010-05-21T08:03:38Z</time>
      </trkpt>
      <trkpt lat="39.42305" lon="-5.60906">
        <ele>726.03363</ele>
        <time>2010-05-21T08:03:39Z</time>
      </trkpt>
      <trkpt lat="39.42311" lon="-5.60867">
        <ele>730.300781</ele>
        <time>2010-05-21T08:03:40Z</time>
      </trkpt>
      <trkpt lat="39.42325" lon="-5.6085">
        <ele>733.653625</ele>
        <time>2010-05-21T08:03:41Z</time>
      </trkpt>
      <trkpt lat="39.42345" lon="-5.60839">
        <ele>737.616028</ele>
        <time>2010-05-21T08:03:42Z</time>
      </trkpt>
      <trkpt lat="39.42391" lon="-5.608">
        <ele>748.588806</ele>
        <time>2010-05-21T08:03:43Z</time>
      </trkpt>
      <trkpt lat="39.42415" lon="-5.60782">
        <ele>750.417603</ele>
        <time>2010-05-21T08:03:44Z</time>
      </trkpt>
      <trkpt lat="39.42478" lon="-5.60724">
        <ele>758.952026</ele>
        <time>2010-05-21T08:03:45Z</time>
      </trkpt>
      <trkpt lat="39.42526" lon="-5.60673">
        <ele>763.523987</ele>
        <time>2010-05-21T08:03:46Z</time>
      </trkpt>
      <trkpt lat="39.42563" lon="-5.60588">
        <ele>766.87677</ele>
        <time>2010-05-21T08:03:47Z</time>
      </trkpt>
      <trkpt lat="39.4257" lon="-5.60567">
        <ele>764.743225</ele>
        <time>2010-05-21T08:03:48Z</time>
      </trkpt>
      <trkpt lat="39.42569" lon="-5.60562">
        <ele>766.267212</ele>
        <time>2010-05-21T08:03:49Z</time>
      </trkpt>
      <trkpt lat="39.42564" lon="-5.60557">
        <ele>768.705627</ele>
        <time>2010-05-21T08:03:50Z</time>
      </trkpt>
      <trkpt lat="39.42557" lon="-5.6055">
        <ele>769.315186</ele>
        <time>2010-05-21T08:03:51Z</time>
      </trkpt>
      <trkpt lat="39.42513" lon="-5.60488">
        <ele>772.058411</ele>
        <time>2010-05-21T08:03:52Z</time>
      </trkpt>
      <trkpt lat="39.42498" lon="-5.60454">
        <ele>776.935181</ele>
        <time>2010-05-21T08:03:53Z</time>
      </trkpt>
      <trkpt lat="39.42492" lon="-5.60433">
        <ele>779.678406</ele>
        <time>2010-05-21T08:03:54Z</time>
      </trkpt>
      <trkpt lat="39.42475" lon="-5.60408">
        <ele>781.812012</ele>
        <time>2010-05-21T08:03:55Z</time>
      </trkpt>
      <trkpt lat="39.42468" lon="-5.60405">
        <ele>783.640808</ele>
        <time>2010-05-21T08:03:56Z</time>
      </trkpt>
      <trkpt lat="39.42443" lon="-5.60378">
        <ele>787.90802</ele>
        <time>2010-05-21T08:03:57Z</time>
      </trkpt>
      <trkpt lat="39.42389" lon="-5.60321">
        <ele>798.575989</ele>
        <time>2010-05-21T08:03:58Z</time>
      </trkpt>
      <trkpt lat="39.42368" lon="-5.60301">
        <ele>800.099976</ele>
        <time>2010-05-21T08:03:59Z</time>
      </trkpt>
      <trkpt lat="39.42279" lon="-5.60263">
        <ele>810.463196</ele>
        <time>2010-05-21T08:04:00Z</time>
      </trkpt>
      <trkpt lat="39.42211" lon="-5.60224">
        <ele>817.168823</ele>
        <time>2010-05-21T08:04:01Z</time>
      </trkpt>
      <trkpt lat="39.42114" lon="-5.60165">
        <ele>832.713623</ele>
        <time>2010-05-21T08:04:02Z</time>
      </trkpt>
      <trkpt lat="39.42058" lon="-5.60121">
        <ele>838.80957</ele>
        <time>2010-05-21T08:04:03Z</time>
      </trkpt>
      <trkpt lat="39.4203" lon="-5.60092">
        <ele>843.686401</ele>
        <time>2010-05-21T08:04:04Z</time>
      </trkpt>
      <trkpt lat="39.42016" lon="-5.60072">
        <ele>847.648804</ele>
        <time>2010-05-21T08:04:05Z</time>
      </trkpt>
      <trkpt lat="39.41993" lon="-5.60057">
        <ele>852.220825</ele>
        <time>2010-05-21T08:04:06Z</time>
      </trkpt>
      <trkpt lat="39.41987" lon="-5.60044">
        <ele>854.35437</ele>
        <time>2010-05-21T08:04:07Z</time>
      </trkpt>
      <trkpt lat="39.41984" lon="-5.60014">
        <ele>854.35437</ele>
        <time>2010-05-21T08:04:08Z</time>
      </trkpt>
      <trkpt lat="39.41996" lon="-5.59974">
        <ele>852.830383</ele>
        <time>2010-05-21T08:04:09Z</time>
      </trkpt>
      <trkpt lat="39.42007" lon="-5.59937">
        <ele>855.268799</ele>
        <time>2010-05-21T08:04:10Z</time>
      </trkpt>
      <trkpt lat="39.41985" lon="-5.599">
        <ele>853.440002</ele>
        <time>2010-05-21T08:04:11Z</time>
      </trkpt>
      <trkpt lat="39.41955" lon="-5.59888">
        <ele>856.792786</ele>
        <time>2010-05-21T08:04:12Z</time>
      </trkpt>
      <trkpt lat="39.41912" lon="-5.59828">
        <ele>867.156006</ele>
        <time>2010-05-21T08:04:13Z</time>
      </trkpt>
      <trkpt lat="39.4189" lon="-5.59761">
        <ele>869.289612</ele>
        <time>2010-05-21T08:04:14Z</time>
      </trkpt>
      <trkpt lat="39.41865" lon="-5.5975">
        <ele>861.974426</ele>
        <time>2010-05-21T08:04:15Z</time>
      </trkpt>
      <trkpt lat="39.41825" lon="-5.59765">
        <ele>860.14563</ele>
        <time>2010-05-21T08:04:16Z</time>
      </trkpt>
      <trkpt lat="39.41774" lon="-5.59786">
        <ele>861.059998</ele>
        <time>2010-05-21T08:04:17Z</time>
      </trkpt>
      <trkpt lat="39.41754" lon="-5.59791">
        <ele>863.498413</ele>
        <time>2010-05-21T08:04:18Z</time>
      </trkpt>
      <trkpt lat="39.41759" lon="-5.59789">
        <ele>863.803223</ele>
        <time>2010-05-21T08:04:19Z</time>
      </trkpt>
      <trkpt lat="39.417158" lon="-5.598155">
        <ele>875.38562</ele>
        <time>2010-05-21T08:04:20Z</time>
      </trkpt>
      <trkpt lat="39.416927" lon="-5.598216">
        <ele>874.471191</ele>
        <time>2010-05-21T08:04:21Z</time>
      </trkpt>
      <trkpt lat="39.416668" lon="-5.598293">
        <ele>875.080811</ele>
        <time>2010-05-21T08:04:22Z</time>
      </trkpt>
      <trkpt lat="39.41652" lon="-5.59827">
        <ele>875.080811</ele>
        <time>2010-05-21T08:04:23Z</time>
      </trkpt>
      <trkpt lat="39.416232" lon="-5.598469">
        <ele>875.080811</ele>
        <time>2010-05-21T08:04:24Z</time>
      </trkpt>
      <trkpt lat="39.41566" lon="-5.598657">
        <ele>875.080811</ele>
        <time>2010-05-21T08:04:25Z</time>
      </trkpt>
      <trkpt lat="39.414997" lon="-5.598719">
        <ele>874.471191</ele>
        <time>2010-05-21T08:04:26Z</time>
      </trkpt>
      <trkpt lat="39.414436" lon="-5.598419">
        <ele>872.947205</ele>
        <time>2010-05-21T08:04:27Z</time>
      </trkpt>
      <trkpt lat="39.413915" lon="-5.598121">
        <ele>872.642395</ele>
        <time>2010-05-21T08:04:28Z</time>
      </trkpt>
      <trkpt lat="39.413391" lon="-5.598015">
        <ele>871.423218</ele>
        <time>2010-05-21T08:04:29Z</time>
      </trkpt>
      <trkpt lat="39.41292" lon="-5.597928">
        <ele>871.118408</ele>
        <time>2010-05-21T08:04:30Z</time>
      </trkpt>
      <trkpt lat="39.412313" lon="-5.597853">
        <ele>871.118408</ele>
        <time>2010-05-21T08:04:31Z</time>
      </trkpt>
      <trkpt lat="39.412178" lon="-5.597865">
        <ele>871.423218</ele>
        <time>2010-05-21T08:04:32Z</time>
      </trkpt>
      <trkpt lat="39.411623" lon="-5.597914">
        <ele>873.861572</ele>
        <time>2010-05-21T08:04:33Z</time>
      </trkpt>
      <trkpt lat="39.411202" lon="-5.598021">
        <ele>873.861572</ele>
        <time>2010-05-21T08:04:34Z</time>
      </trkpt>
      <trkpt lat="39.41028" lon="-5.598143">
        <ele>874.471191</ele>
        <time>2010-05-21T08:04:35Z</time>
      </trkpt>
      <trkpt lat="39.409793" lon="-5.598177">
        <ele>871.118408</ele>
        <time>2010-05-21T08:04:36Z</time>
      </trkpt>
      <trkpt lat="39.408986" lon="-5.597991">
        <ele>861.059998</ele>
        <time>2010-05-21T08:04:37Z</time>
      </trkpt>
      <trkpt lat="39.408383" lon="-5.597742">
        <ele>864.71759</ele>
        <time>2010-05-21T08:04:38Z</time>
      </trkpt>
      <trkpt lat="39.407485" lon="-5.597412">
        <ele>865.936829</ele>
        <time>2010-05-21T08:04:39Z</time>
      </trkpt>
      <trkpt lat="39.407485" lon="-5.597412">
        <ele>856.792786</ele>
        <time>2010-05-21T08:04:40Z</time>
      </trkpt>
      <trkpt lat="39.407044" lon="-5.597222">
        <ele>865.327209</ele>
        <time>2010-05-21T08:04:41Z</time>
      </trkpt>
      <trkpt lat="39.406523" lon="-5.596941">
        <ele>868.679993</ele>
        <time>2010-05-21T08:04:42Z</time>
      </trkpt>
      <trkpt lat="39.405944" lon="-5.596223">
        <ele>880.26239</ele>
        <time>2010-05-21T08:04:43Z</time>
      </trkpt>
      <trkpt lat="39.405674" lon="-5.595603">
        <ele>881.176819</ele>
        <time>2010-05-21T08:04:44Z</time>
      </trkpt>
      <trkpt lat="39.405322" lon="-5.595033">
        <ele>882.700806</ele>
        <time>2010-05-21T08:04:45Z</time>
      </trkpt>
      <trkpt lat="39.405152" lon="-5.594208">
        <ele>886.358398</ele>
        <time>2010-05-21T08:04:46Z</time>
      </trkpt>
      <trkpt lat="39.405072" lon="-5.59356">
        <ele>889.711182</ele>
        <time>2010-05-21T08:04:47Z</time>
      </trkpt>
      <trkpt lat="39.405133" lon="-5.593214">
        <ele>888.492004</ele>
        <time>2010-05-21T08:04:48Z</time>
      </trkpt>
      <trkpt lat="39.405163" lon="-5.592913">
        <ele>886.968018</ele>
        <time>2010-05-21T08:04:49Z</time>
      </trkpt>
      <trkpt lat="39.405267" lon="-5.592278">
        <ele>887.577576</ele>
        <time>2010-05-21T08:04:50Z</time>
      </trkpt>
      <trkpt lat="39.405292" lon="-5.59113">
        <ele>891.844788</ele>
        <time>2010-05-21T08:04:51Z</time>
      </trkpt>
      <trkpt lat="39.405145" lon="-5.590486">
        <ele>894.588013</ele>
        <time>2010-05-21T08:04:52Z</time>
      </trkpt>
      <trkpt lat="39.404893" lon="-5.589861">
        <ele>900.379211</ele>
        <time>2010-05-21T08:04:53Z</time>
      </trkpt>
      <trkpt lat="39.404802" lon="-5.589677">
        <ele>898.855225</ele>
        <time>2010-05-21T08:04:54Z</time>
      </trkpt>
      <trkpt lat="39.404738" lon="-5.589536">
        <ele>897.940796</ele>
        <time>2010-05-21T08:04:55Z</time>
      </trkpt>
      <trkpt lat="39.40472" lon="-5.589518">
        <ele>897.940796</ele>
        <time>2010-05-21T08:04:56Z</time>
      </trkpt>
      <trkpt lat="39.40469" lon="-5.589464">
        <ele>897.635986</ele>
        <time>2010-05-21T08:04:57Z</time>
      </trkpt>
      <trkpt lat="39.404647" lon="-5.589387">
        <ele>897.635986</ele>
        <time>2010-05-21T08:04:58Z</time>
      </trkpt>
      <trkpt lat="39.40463" lon="-5.5893">
        <ele>896.112</ele>
        <time>2010-05-21T08:04:59Z</time>
      </trkpt>
      <trkpt lat="39.40457" lon="-5.589164">
        <ele>895.197571</ele>
        <time>2010-05-21T08:05:00Z</time>
      </trkpt>
      <trkpt lat="39.404483" lon="-5.589039">
        <ele>895.50238</ele>
        <time>2010-05-21T08:05:01Z</time>
      </trkpt>
      <trkpt lat="39.40394" lon="-5.58802">
        <ele>890.320801</ele>
        <time>2010-05-21T08:05:02Z</time>
      </trkpt>
      <trkpt lat="39.40362" lon="-5.58703">
        <ele>900.379211</ele>
        <time>2010-05-21T08:05:03Z</time>
      </trkpt>
      <trkpt lat="39.40343" lon="-5.58662">
        <ele>903.427185</ele>
        <time>2010-05-21T08:05:04Z</time>
      </trkpt>
      <trkpt lat="39.40322" lon="-5.58635">
        <ele>904.341614</ele>
        <time>2010-05-21T08:05:05Z</time>
      </trkpt>
      <trkpt lat="39.40281" lon="-5.58599">
        <ele>910.132813</ele>
        <time>2010-05-21T08:05:06Z</time>
      </trkpt>
      <trkpt lat="39.40232" lon="-5.58579">
        <ele>913.790405</ele>
        <time>2010-05-21T08:05:07Z</time>
      </trkpt>
      <trkpt lat="39.4013" lon="-5.58545">
        <ele>926.28717</ele>
        <time>2010-05-21T08:05:08Z</time>
      </trkpt>
      <trkpt lat="39.40041" lon="-5.58528">
        <ele>937.869629</ele>
        <time>2010-05-21T08:05:09Z</time>
      </trkpt>
      <trkpt lat="39.39932" lon="-5.58493">
        <ele>950.061584</ele>
        <time>2010-05-21T08:05:10Z</time>
      </trkpt>
      <trkpt lat="39.3976" lon="-5.58485">
        <ele>955.243225</ele>
        <time>2010-05-21T08:05:11Z</time>
      </trkpt>
      <trkpt lat="39.39739" lon="-5.58485">
        <ele>955.547974</ele>
        <time>2010-05-21T08:05:12Z</time>
      </trkpt>
      <trkpt lat="39.39682" lon="-5.58495">
        <ele>962.86322</ele>
        <time>2010-05-21T08:05:13Z</time>
      </trkpt>
      <trkpt lat="39.39653" lon="-5.5848">
        <ele>962.558411</ele>
        <time>2010-05-21T08:05:14Z</time>
      </trkpt>
      <trkpt lat="39.3955" lon="-5.5842">
        <ele>962.558411</ele>
        <time>2010-05-21T08:05:15Z</time>
      </trkpt>
      <trkpt lat="39.39504" lon="-5.58379">
        <ele>967.130371</ele>
        <time>2010-05-21T08:05:16Z</time>
      </trkpt>
      <trkpt lat="39.39502" lon="-5.58376">
        <ele>966.825623</ele>
        <time>2010-05-21T08:05:17Z</time>
      </trkpt>
      <trkpt lat="39.39495" lon="-5.58373">
        <ele>965.301575</ele>
        <time>2010-05-21T08:05:18Z</time>
      </trkpt>
      <trkpt lat="39.39489" lon="-5.58276">
        <ele>967.73999</ele>
        <time>2010-05-21T08:05:19Z</time>
      </trkpt>
      <trkpt lat="39.39477" lon="-5.58224">
        <ele>964.692017</ele>
        <time>2010-05-21T08:05:20Z</time>
      </trkpt>
      <trkpt lat="39.39482" lon="-5.58176">
        <ele>961.948792</ele>
        <time>2010-05-21T08:05:21Z</time>
      </trkpt>
      <trkpt lat="39.3951" lon="-5.58068">
        <ele>956.767212</ele>
        <time>2010-05-21T08:05:22Z</time>
      </trkpt>
      <trkpt lat="39.3951" lon="-5.58035">
        <ele>953.719177</ele>
        <time>2010-05-21T08:05:23Z</time>
      </trkpt>
      <trkpt lat="39.39515" lon="-5.57967">
        <ele>948.537598</ele>
        <time>2010-05-21T08:05:24Z</time>
      </trkpt>
      <trkpt lat="39.39556" lon="-5.57892">
        <ele>944.575195</ele>
        <time>2010-05-21T08:05:25Z</time>
      </trkpt>
      <trkpt lat="39.39565" lon="-5.5787">
        <ele>944.270386</ele>
        <time>2010-05-21T08:05:26Z</time>
      </trkpt>
      <trkpt lat="39.39576" lon="-5.57841">
        <ele>944.270386</ele>
        <time>2010-05-21T08:05:27Z</time>
      </trkpt>
      <trkpt lat="39.39579" lon="-5.57806">
        <ele>943.660828</ele>
        <time>2010-05-21T08:05:28Z</time>
      </trkpt>
      <trkpt lat="39.39572" lon="-5.57783">
        <ele>942.746399</ele>
        <time>2010-05-21T08:05:29Z</time>
      </trkpt>
      <trkpt lat="39.39577" lon="-5.5775">
        <ele>941.83197</ele>
        <time>2010-05-21T08:05:30Z</time>
      </trkpt>
      <trkpt lat="39.39585" lon="-5.57721">
        <ele>942.13678</ele>
        <time>2010-05-21T08:05:31Z</time>
      </trkpt>
      <trkpt lat="39.39595" lon="-5.57704">
        <ele>942.13678</ele>
        <time>2010-05-21T08:05:32Z</time>
      </trkpt>
      <trkpt lat="39.39619" lon="-5.57666">
        <ele>940.307983</ele>
        <time>2010-05-21T08:05:33Z</time>
      </trkpt>
      <trkpt lat="39.39641" lon="-5.57603">
        <ele>938.783997</ele>
        <time>2010-05-21T08:05:34Z</time>
      </trkpt>
      <trkpt lat="39.39648" lon="-5.57554">
        <ele>936.9552</ele>
        <time>2010-05-21T08:05:35Z</time>
      </trkpt>
      <trkpt lat="39.39639" lon="-5.57517">
        <ele>935.126404</ele>
        <time>2010-05-21T08:05:36Z</time>
      </trkpt>
      <trkpt lat="39.39654" lon="-5.57442">
        <ele>932.687988</ele>
        <time>2010-05-21T08:05:37Z</time>
      </trkpt>
      <trkpt lat="39.39694" lon="-5.57386">
        <ele>932.687988</ele>
        <time>2010-05-21T08:05:38Z</time>
      </trkpt>
      <trkpt lat="39.39718" lon="-5.5736">
        <ele>935.431213</ele>
        <time>2010-05-21T08:05:39Z</time>
      </trkpt>
      <trkpt lat="39.39763" lon="-5.57297">
        <ele>936.345581</ele>
        <time>2010-05-21T08:05:40Z</time>
      </trkpt>
      <trkpt lat="39.39814" lon="-5.57252">
        <ele>940.917603</ele>
        <time>2010-05-21T08:05:41Z</time>
      </trkpt>
      <trkpt lat="39.39841" lon="-5.57239">
        <ele>940.307983</ele>
        <time>2010-05-21T08:05:42Z</time>
      </trkpt>
      <trkpt lat="39.39851" lon="-5.57235">
        <ele>939.698425</ele>
        <time>2010-05-21T08:05:43Z</time>
      </trkpt>
      <trkpt lat="39.39852" lon="-5.57237">
        <ele>947.927979</ele>
        <time>2010-05-21T08:05:44Z</time>
      </trkpt>
      <trkpt lat="39.39858" lon="-5.57231">
        <ele>945.489624</ele>
        <time>2010-05-21T08:05:45Z</time>
      </trkpt>
      <trkpt lat="39.39859" lon="-5.57227">
        <ele>945.184814</ele>
        <time>2010-05-21T08:05:46Z</time>
      </trkpt>
      <trkpt lat="39.39879" lon="-5.57206">
        <ele>947.62323</ele>
        <time>2010-05-21T08:05:47Z</time>
      </trkpt>
      <trkpt lat="39.39889" lon="-5.57164">
        <ele>942.13678</ele>
        <time>2010-05-21T08:05:48Z</time>
      </trkpt>
      <trkpt lat="39.39888" lon="-5.57158">
        <ele>941.222412</ele>
        <time>2010-05-21T08:05:49Z</time>
      </trkpt>
      <trkpt lat="39.39868" lon="-5.57112">
        <ele>937.564819</ele>
        <time>2010-05-21T08:05:50Z</time>
      </trkpt>
      <trkpt lat="39.39783" lon="-5.57062">
        <ele>928.420776</ele>
        <time>2010-05-21T08:05:51Z</time>
      </trkpt>
      <trkpt lat="39.39757" lon="-5.57034">
        <ele>925.067993</ele>
        <time>2010-05-21T08:05:52Z</time>
      </trkpt>
      <trkpt lat="39.39743" lon="-5.56989">
        <ele>921.4104</ele>
        <time>2010-05-21T08:05:53Z</time>
      </trkpt>
      <trkpt lat="39.39764" lon="-5.5693">
        <ele>922.629578</ele>
        <time>2010-05-21T08:05:54Z</time>
      </trkpt>
      <trkpt lat="39.39787" lon="-5.5686">
        <ele>923.848816</ele>
        <time>2010-05-21T08:05:55Z</time>
      </trkpt>
      <trkpt lat="39.3979" lon="-5.56793">
        <ele>919.581604</ele>
        <time>2010-05-21T08:05:56Z</time>
      </trkpt>
      <trkpt lat="39.39804" lon="-5.56728">
        <ele>919.581604</ele>
        <time>2010-05-21T08:05:57Z</time>
      </trkpt>
      <trkpt lat="39.39813" lon="-5.56703">
        <ele>919.276794</ele>
        <time>2010-05-21T08:05:58Z</time>
      </trkpt>
      <trkpt lat="39.39821" lon="-5.56659">
        <ele>919.276794</ele>
        <time>2010-05-21T08:05:59Z</time>
      </trkpt>
      <trkpt lat="39.39819" lon="-5.56637">
        <ele>917.143188</ele>
        <time>2010-05-21T08:06:00Z</time>
      </trkpt>
      <trkpt lat="39.39817" lon="-5.56627">
        <ele>915.924011</ele>
        <time>2010-05-21T08:06:01Z</time>
      </trkpt>
      <trkpt lat="39.39813" lon="-5.56619">
        <ele>914.704773</ele>
        <time>2010-05-21T08:06:02Z</time>
      </trkpt>
      <trkpt lat="39.39798" lon="-5.56603">
        <ele>912.875977</ele>
        <time>2010-05-21T08:06:03Z</time>
      </trkpt>
      <trkpt lat="39.39788" lon="-5.56589">
        <ele>913.485596</ele>
        <time>2010-05-21T08:06:04Z</time>
      </trkpt>
      <trkpt lat="39.39789" lon="-5.56589">
        <ele>911.04718</ele>
        <time>2010-05-21T08:06:05Z</time>
      </trkpt>
      <trkpt lat="39.39789" lon="-5.56589">
        <ele>911.35199</ele>
        <time>2010-05-21T08:06:06Z</time>
      </trkpt>
      <trkpt lat="39.39788" lon="-5.5659">
        <ele>911.961609</ele>
        <time>2010-05-21T08:06:07Z</time>
      </trkpt>
      <trkpt lat="39.39748" lon="-5.56569">
        <ele>912.571228</ele>
        <time>2010-05-21T08:06:08Z</time>
      </trkpt>
      <trkpt lat="39.39669" lon="-5.56571">
        <ele>907.694397</ele>
        <time>2010-05-21T08:06:09Z</time>
      </trkpt>
      <trkpt lat="39.39631" lon="-5.56564">
        <ele>901.293579</ele>
        <time>2010-05-21T08:06:10Z</time>
      </trkpt>
      <trkpt lat="39.3959" lon="-5.56565">
        <ele>893.064026</ele>
        <time>2010-05-21T08:06:11Z</time>
      </trkpt>
      <trkpt lat="39.39561" lon="-5.56584">
        <ele>890.93042</ele>
        <time>2010-05-21T08:06:12Z</time>
      </trkpt>
      <trkpt lat="39.39539" lon="-5.56595">
        <ele>886.968018</ele>
        <time>2010-05-21T08:06:13Z</time>
      </trkpt>
      <trkpt lat="39.39534" lon="-5.56577">
        <ele>882.700806</ele>
        <time>2010-05-21T08:06:14Z</time>
      </trkpt>
      <trkpt lat="39.39543" lon="-5.56568">
        <ele>881.786377</ele>
        <time>2010-05-21T08:06:15Z</time>
      </trkpt>
      <trkpt lat="39.39551" lon="-5.56556">
        <ele>882.700806</ele>
        <time>2010-05-21T08:06:16Z</time>
      </trkpt>
      <trkpt lat="39.39565" lon="-5.56524">
        <ele>882.091187</ele>
        <time>2010-05-21T08:06:17Z</time>
      </trkpt>
      <trkpt lat="39.39566" lon="-5.56524">
        <ele>881.176819</ele>
        <time>2010-05-21T08:06:18Z</time>
      </trkpt>
      <trkpt lat="39.3959" lon="-5.56486">
        <ele>879.348022</ele>
        <time>2010-05-21T08:06:19Z</time>
      </trkpt>
      <trkpt lat="39.39606" lon="-5.56439">
        <ele>877.214417</ele>
        <time>2010-05-21T08:06:20Z</time>
      </trkpt>
      <trkpt lat="39.39628" lon="-5.56416">
        <ele>875.995178</ele>
        <time>2010-05-21T08:06:21Z</time>
      </trkpt>
      <trkpt lat="39.39658" lon="-5.56396">
        <ele>869.289612</ele>
        <time>2010-05-21T08:06:22Z</time>
      </trkpt>
      <trkpt lat="39.39671" lon="-5.56313">
        <ele>862.583984</ele>
        <time>2010-05-21T08:06:23Z</time>
      </trkpt>
      <trkpt lat="39.39692" lon="-5.56264">
        <ele>855.573608</ele>
        <time>2010-05-21T08:06:24Z</time>
      </trkpt>
      <trkpt lat="39.39711" lon="-5.5625">
        <ele>854.35437</ele>
        <time>2010-05-21T08:06:25Z</time>
      </trkpt>
      <trkpt lat="39.39725" lon="-5.56243">
        <ele>851.001587</ele>
        <time>2010-05-21T08:06:26Z</time>
      </trkpt>
      <trkpt lat="39.39772" lon="-5.56233">
        <ele>846.429626</ele>
        <time>2010-05-21T08:06:27Z</time>
      </trkpt>
      <trkpt lat="39.39798" lon="-5.56231">
        <ele>846.124817</ele>
        <time>2010-05-21T08:06:28Z</time>
      </trkpt>
      <trkpt lat="39.39815" lon="-5.56235">
        <ele>843.686401</ele>
        <time>2010-05-21T08:06:29Z</time>
      </trkpt>
      <trkpt lat="39.39848" lon="-5.56251">
        <ele>845.210388</ele>
        <time>2010-05-21T08:06:30Z</time>
      </trkpt>
      <trkpt lat="39.39859" lon="-5.56269">
        <ele>840.943176</ele>
        <time>2010-05-21T08:06:31Z</time>
      </trkpt>
      <trkpt lat="39.39872" lon="-5.56286">
        <ele>837.590393</ele>
        <time>2010-05-21T08:06:32Z</time>
      </trkpt>
      <trkpt lat="39.3988" lon="-5.56292">
        <ele>835.456787</ele>
        <time>2010-05-21T08:06:33Z</time>
      </trkpt>
      <trkpt lat="39.39906" lon="-5.5629">
        <ele>830.275208</ele>
        <time>2010-05-21T08:06:34Z</time>
      </trkpt>
      <trkpt lat="39.39945" lon="-5.56256">
        <ele>823.87439</ele>
        <time>2010-05-21T08:06:35Z</time>
      </trkpt>
      <trkpt lat="39.39968" lon="-5.56226">
        <ele>821.131226</ele>
        <time>2010-05-21T08:06:36Z</time>
      </trkpt>
      <trkpt lat="39.39987" lon="-5.56208">
        <ele>816.864014</ele>
        <time>2010-05-21T08:06:37Z</time>
      </trkpt>
      <trkpt lat="39.40011" lon="-5.56192">
        <ele>814.425598</ele>
        <time>2010-05-21T08:06:38Z</time>
      </trkpt>
      <trkpt lat="39.40019" lon="-5.56187">
        <ele>813.815979</ele>
        <time>2010-05-21T08:06:39Z</time>
      </trkpt>
      <trkpt lat="39.40076" lon="-5.56153">
        <ele>805.586426</ele>
        <time>2010-05-21T08:06:40Z</time>
      </trkpt>
      <trkpt lat="39.40105" lon="-5.56097">
        <ele>802.843201</ele>
        <time>2010-05-21T08:06:41Z</time>
      </trkpt>
      <trkpt lat="39.40163" lon="-5.56031">
        <ele>798.575989</ele>
        <time>2010-05-21T08:06:42Z</time>
      </trkpt>
      <trkpt lat="39.40228" lon="-5.55953">
        <ele>793.0896</ele>
        <time>2010-05-21T08:06:43Z</time>
      </trkpt>
      <trkpt lat="39.40252" lon="-5.55936">
        <ele>792.78479</ele>
        <time>2010-05-21T08:06:44Z</time>
      </trkpt>
      <trkpt lat="39.40256" lon="-5.55935">
        <ele>792.175171</ele>
        <time>2010-05-21T08:06:45Z</time>
      </trkpt>
      <trkpt lat="39.40273" lon="-5.55943">
        <ele>790.346375</ele>
        <time>2010-05-21T08:06:46Z</time>
      </trkpt>
      <trkpt lat="39.40273" lon="-5.55945">
        <ele>786.993591</ele>
        <time>2010-05-21T08:06:47Z</time>
      </trkpt>
      <trkpt lat="39.40309" lon="-5.5593">
        <ele>782.726379</ele>
        <time>2010-05-21T08:06:48Z</time>
      </trkpt>
      <trkpt lat="39.40354" lon="-5.55874">
        <ele>776.935181</ele>
        <time>2010-05-21T08:06:49Z</time>
      </trkpt>
      <trkpt lat="39.40423" lon="-5.55806">
        <ele>772.058411</ele>
        <time>2010-05-21T08:06:50Z</time>
      </trkpt>
      <trkpt lat="39.40432" lon="-5.55797">
        <ele>771.143982</ele>
        <time>2010-05-21T08:06:51Z</time>
      </trkpt>
      <trkpt lat="39.40443" lon="-5.55786">
        <ele>767.791199</ele>
        <time>2010-05-21T08:06:52Z</time>
      </trkpt>
      <trkpt lat="39.40468" lon="-5.55714">
        <ele>765.962402</ele>
        <time>2010-05-21T08:06:53Z</time>
      </trkpt>
      <trkpt lat="39.40475" lon="-5.55693">
        <ele>764.743225</ele>
        <time>2010-05-21T08:06:54Z</time>
      </trkpt>
      <trkpt lat="39.40514" lon="-5.55665">
        <ele>763.523987</ele>
        <time>2010-05-21T08:06:55Z</time>
      </trkpt>
      <trkpt lat="39.40554" lon="-5.55657">
        <ele>762.914429</ele>
        <time>2010-05-21T08:06:56Z</time>
      </trkpt>
      <trkpt lat="39.4057" lon="-5.55623">
        <ele>763.828796</ele>
        <time>2010-05-21T08:06:57Z</time>
      </trkpt>
      <trkpt lat="39.40579" lon="-5.55609">
        <ele>763.828796</ele>
        <time>2010-05-21T08:06:58Z</time>
      </trkpt>
      <trkpt lat="39.40614" lon="-5.55561">
        <ele>762.609619</ele>
        <time>2010-05-21T08:06:59Z</time>
      </trkpt>
      <trkpt lat="39.40651" lon="-5.5552">
        <ele>760.476013</ele>
        <time>2010-05-21T08:07:00Z</time>
      </trkpt>
      <trkpt lat="39.40682" lon="-5.5551">
        <ele>756.81842</ele>
        <time>2010-05-21T08:07:01Z</time>
      </trkpt>
      <trkpt lat="39.40706" lon="-5.55519">
        <ele>754.684814</ele>
        <time>2010-05-21T08:07:02Z</time>
      </trkpt>
      <trkpt lat="39.40739" lon="-5.55519">
        <ele>751.33197</ele>
        <time>2010-05-21T08:07:03Z</time>
      </trkpt>
      <trkpt lat="39.4076" lon="-5.55505">
        <ele>748.893616</ele>
        <time>2010-05-21T08:07:04Z</time>
      </trkpt>
      <trkpt lat="39.40776" lon="-5.55463">
        <ele>745.540771</ele>
        <time>2010-05-21T08:07:05Z</time>
      </trkpt>
      <trkpt lat="39.40759" lon="-5.55382">
        <ele>742.187988</ele>
        <time>2010-05-21T08:07:06Z</time>
      </trkpt>
      <trkpt lat="39.40779" lon="-5.55318">
        <ele>737.006409</ele>
        <time>2010-05-21T08:07:07Z</time>
      </trkpt>
      <trkpt lat="39.40811" lon="-5.55297">
        <ele>735.482422</ele>
        <time>2010-05-21T08:07:08Z</time>
      </trkpt>
      <trkpt lat="39.40841" lon="-5.55308">
        <ele>733.044006</ele>
        <time>2010-05-21T08:07:09Z</time>
      </trkpt>
      <trkpt lat="39.40867" lon="-5.55276">
        <ele>727.862427</ele>
        <time>2010-05-21T08:07:10Z</time>
      </trkpt>
      <trkpt lat="39.40895" lon="-5.55221">
        <ele>721.156799</ele>
        <time>2010-05-21T08:07:11Z</time>
      </trkpt>
      <trkpt lat="39.40915" lon="-5.55173">
        <ele>717.804016</ele>
        <time>2010-05-21T08:07:12Z</time>
      </trkpt>
      <trkpt lat="39.40945" lon="-5.55124">
        <ele>715.365601</ele>
        <time>2010-05-21T08:07:13Z</time>
      </trkpt>
      <trkpt lat="39.40954" lon="-5.5512">
        <ele>713.841614</ele>
        <time>2010-05-21T08:07:14Z</time>
      </trkpt>
      <trkpt lat="39.40974" lon="-5.5512">
        <ele>711.098389</ele>
        <time>2010-05-21T08:07:15Z</time>
      </trkpt>
      <trkpt lat="39.41017" lon="-5.55083">
        <ele>704.392822</ele>
        <time>2010-05-21T08:07:16Z</time>
      </trkpt>
      <trkpt lat="39.41024" lon="-5.55062">
        <ele>702.868774</ele>
        <time>2010-05-21T08:07:17Z</time>
      </trkpt>
      <trkpt lat="39.41059" lon="-5.54942">
        <ele>693.724792</ele>
        <time>2010-05-21T08:07:18Z</time>
      </trkpt>
      <trkpt lat="39.41099" lon="-5.54887">
        <ele>689.76239</ele>
        <time>2010-05-21T08:07:19Z</time>
      </trkpt>
      <trkpt lat="39.41112" lon="-5.54876">
        <ele>688.848022</ele>
        <time>2010-05-21T08:07:20Z</time>
      </trkpt>
      <trkpt lat="39.41142" lon="-5.54865">
        <ele>687.628784</ele>
        <time>2010-05-21T08:07:21Z</time>
      </trkpt>
      <trkpt lat="39.41158" lon="-5.54866">
        <ele>683.971191</ele>
        <time>2010-05-21T08:07:22Z</time>
      </trkpt>
      <trkpt lat="39.41177" lon="-5.5487">
        <ele>680.618408</ele>
        <time>2010-05-21T08:07:23Z</time>
      </trkpt>
      <trkpt lat="39.41219" lon="-5.54858">
        <ele>682.752014</ele>
        <time>2010-05-21T08:07:24Z</time>
      </trkpt>
      <trkpt lat="39.4124" lon="-5.54835">
        <ele>683.056824</ele>
        <time>2010-05-21T08:07:25Z</time>
      </trkpt>
      <trkpt lat="39.41302" lon="-5.54777">
        <ele>682.142395</ele>
        <time>2010-05-21T08:07:26Z</time>
      </trkpt>
      <trkpt lat="39.41323" lon="-5.5478">
        <ele>677.265625</ele>
        <time>2010-05-21T08:07:27Z</time>
      </trkpt>
      <trkpt lat="39.41386" lon="-5.54791">
        <ele>671.169617</ele>
        <time>2010-05-21T08:07:28Z</time>
      </trkpt>
      <trkpt lat="39.41468" lon="-5.54814">
        <ele>664.768799</ele>
        <time>2010-05-21T08:07:29Z</time>
      </trkpt>
      <trkpt lat="39.4152" lon="-5.54811">
        <ele>662.025574</ele>
        <time>2010-05-21T08:07:30Z</time>
      </trkpt>
      <trkpt lat="39.41548" lon="-5.54797">
        <ele>661.416016</ele>
        <time>2010-05-21T08:07:31Z</time>
      </trkpt>
      <trkpt lat="39.41573" lon="-5.54752">
        <ele>661.416016</ele>
        <time>2010-05-21T08:07:32Z</time>
      </trkpt>
      <trkpt lat="39.41597" lon="-5.54737">
        <ele>662.025574</ele>
        <time>2010-05-21T08:07:33Z</time>
      </trkpt>
      <trkpt lat="39.41619" lon="-5.54739">
        <ele>663.85437</ele>
        <time>2010-05-21T08:07:34Z</time>
      </trkpt>
      <trkpt lat="39.41617" lon="-5.5474">
        <ele>665.378418</ele>
        <time>2010-05-21T08:07:35Z</time>
      </trkpt>
      <trkpt lat="39.41656" lon="-5.54771">
        <ele>665.378418</ele>
        <time>2010-05-21T08:07:36Z</time>
      </trkpt>
      <trkpt lat="39.41707" lon="-5.54772">
        <ele>665.378418</ele>
        <time>2010-05-21T08:07:37Z</time>
      </trkpt>
      <trkpt lat="39.41728" lon="-5.5476">
        <ele>662.025574</ele>
        <time>2010-05-21T08:07:38Z</time>
      </trkpt>
      <trkpt lat="39.41757" lon="-5.5475">
        <ele>660.196777</ele>
        <time>2010-05-21T08:07:39Z</time>
      </trkpt>
      <trkpt lat="39.41834" lon="-5.54774">
        <ele>657.148804</ele>
        <time>2010-05-21T08:07:40Z</time>
      </trkpt>
      <trkpt lat="39.41882" lon="-5.54772">
        <ele>654.710388</ele>
        <time>2010-05-21T08:07:41Z</time>
      </trkpt>
      <trkpt lat="39.41923" lon="-5.54747">
        <ele>653.796021</ele>
        <time>2010-05-21T08:07:42Z</time>
      </trkpt>
      <trkpt lat="39.41959" lon="-5.54729">
        <ele>651.967224</ele>
        <time>2010-05-21T08:07:43Z</time>
      </trkpt>
      <trkpt lat="39.41993" lon="-5.54725">
        <ele>650.138428</ele>
        <time>2010-05-21T08:07:44Z</time>
      </trkpt>
      <trkpt lat="39.42049" lon="-5.54736">
        <ele>643.127991</ele>
        <time>2010-05-21T08:07:45Z</time>
      </trkpt>
      <trkpt lat="39.42109" lon="-5.54726">
        <ele>638.860779</ele>
        <time>2010-05-21T08:07:46Z</time>
      </trkpt>
      <trkpt lat="39.42177" lon="-5.5473">
        <ele>633.984009</ele>
        <time>2010-05-21T08:07:47Z</time>
      </trkpt>
      <trkpt lat="39.42188" lon="-5.54732">
        <ele>633.984009</ele>
        <time>2010-05-21T08:07:48Z</time>
      </trkpt>
      <trkpt lat="39.42257" lon="-5.54737">
        <ele>641.299194</ele>
        <time>2010-05-21T08:07:49Z</time>
      </trkpt>
      <trkpt lat="39.42266" lon="-5.54732">
        <ele>641.908813</ele>
        <time>2010-05-21T08:07:50Z</time>
      </trkpt>
      <trkpt lat="39.42316" lon="-5.54722">
        <ele>642.213623</ele>
        <time>2010-05-21T08:07:51Z</time>
      </trkpt>
      <trkpt lat="39.42405" lon="-5.54701">
        <ele>644.347229</ele>
        <time>2010-05-21T08:07:52Z</time>
      </trkpt>
      <trkpt lat="39.42485" lon="-5.54702">
        <ele>644.651978</ele>
        <time>2010-05-21T08:07:53Z</time>
      </trkpt>
      <trkpt lat="39.42586" lon="-5.54761">
        <ele>644.651978</ele>
        <time>2010-05-21T08:07:54Z</time>
      </trkpt>
      <trkpt lat="39.42613" lon="-5.54827">
        <ele>648.61438</ele>
        <time>2010-05-21T08:07:55Z</time>
      </trkpt>
      <trkpt lat="39.4263" lon="-5.5487">
        <ele>648.919189</ele>
        <time>2010-05-21T08:07:56Z</time>
      </trkpt>
      <trkpt lat="39.4265" lon="-5.54888">
        <ele>649.528809</ele>
        <time>2010-05-21T08:07:57Z</time>
      </trkpt>
      <trkpt lat="39.42674" lon="-5.54938">
        <ele>655.624817</ele>
        <time>2010-05-21T08:07:58Z</time>
      </trkpt>
      <trkpt lat="39.42674" lon="-5.5498">
        <ele>656.843994</ele>
        <time>2010-05-21T08:07:59Z</time>
      </trkpt>
      <trkpt lat="39.42685" lon="-5.55011">
        <ele>653.491211</ele>
        <time>2010-05-21T08:08:00Z</time>
      </trkpt>
      <trkpt lat="39.42736" lon="-5.55086">
        <ele>645.566406</ele>
        <time>2010-05-21T08:08:01Z</time>
      </trkpt>
      <trkpt lat="39.42771" lon="-5.55189">
        <ele>639.470398</ele>
        <time>2010-05-21T08:08:02Z</time>
      </trkpt>
      <trkpt lat="39.42781" lon="-5.55206">
        <ele>640.994385</ele>
        <time>2010-05-21T08:08:03Z</time>
      </trkpt>
      <trkpt lat="39.42815" lon="-5.55228">
        <ele>639.470398</ele>
        <time>2010-05-21T08:08:04Z</time>
      </trkpt>
      <trkpt lat="39.42828" lon="-5.55228">
        <ele>638.860779</ele>
        <time>2010-05-21T08:08:05Z</time>
      </trkpt>
      <trkpt lat="39.42841" lon="-5.55231">
        <ele>639.775208</ele>
        <time>2010-05-21T08:08:06Z</time>
      </trkpt>
      <trkpt lat="39.42895" lon="-5.55273">
        <ele>635.203186</ele>
        <time>2010-05-21T08:08:07Z</time>
      </trkpt>
      <trkpt lat="39.42926" lon="-5.5531">
        <ele>633.679199</ele>
        <time>2010-05-21T08:08:08Z</time>
      </trkpt>
      <trkpt lat="39.42959" lon="-5.55351">
        <ele>633.984009</ele>
        <time>2010-05-21T08:08:09Z</time>
      </trkpt>
      <trkpt lat="39.43036" lon="-5.55436">
        <ele>639.470398</ele>
        <time>2010-05-21T08:08:10Z</time>
      </trkpt>
      <trkpt lat="39.4306" lon="-5.55464">
        <ele>642.823181</ele>
        <time>2010-05-21T08:08:11Z</time>
      </trkpt>
      <trkpt lat="39.4308" lon="-5.55502">
        <ele>639.470398</ele>
        <time>2010-05-21T08:08:12Z</time>
      </trkpt>
      <trkpt lat="39.43152" lon="-5.55545">
        <ele>636.117615</ele>
        <time>2010-05-21T08:08:13Z</time>
      </trkpt>
      <trkpt lat="39.43241" lon="-5.55607">
        <ele>633.679199</ele>
        <time>2010-05-21T08:08:14Z</time>
      </trkpt>
      <trkpt lat="39.43319" lon="-5.55683">
        <ele>631.850403</ele>
        <time>2010-05-21T08:08:15Z</time>
      </trkpt>
      <trkpt lat="39.43344" lon="-5.55697">
        <ele>630.631226</ele>
        <time>2010-05-21T08:08:16Z</time>
      </trkpt>
      <trkpt lat="39.43374" lon="-5.55715">
        <ele>630.326416</ele>
        <time>2010-05-21T08:08:17Z</time>
      </trkpt>
      <trkpt lat="39.43402" lon="-5.55738">
        <ele>626.059204</ele>
        <time>2010-05-21T08:08:18Z</time>
      </trkpt>
      <trkpt lat="39.43417" lon="-5.55761">
        <ele>622.706421</ele>
        <time>2010-05-21T08:08:19Z</time>
      </trkpt>
      <trkpt lat="39.43434" lon="-5.55785">
        <ele>620.572815</ele>
        <time>2010-05-21T08:08:20Z</time>
      </trkpt>
      <trkpt lat="39.4345" lon="-5.55796">
        <ele>619.658386</ele>
        <time>2010-05-21T08:08:21Z</time>
      </trkpt>
      <trkpt lat="39.43474" lon="-5.55804">
        <ele>617.82959</ele>
        <time>2010-05-21T08:08:22Z</time>
      </trkpt>
      <trkpt lat="39.43482" lon="-5.55802">
        <ele>610.514404</ele>
        <time>2010-05-21T08:08:23Z</time>
      </trkpt>
      <trkpt lat="39.43545" lon="-5.5579">
        <ele>603.808777</ele>
        <time>2010-05-21T08:08:24Z</time>
      </trkpt>
      <trkpt lat="39.43666" lon="-5.5581">
        <ele>601.065613</ele>
        <time>2010-05-21T08:08:25Z</time>
      </trkpt>
      <trkpt lat="39.43765" lon="-5.55793">
        <ele>606.856812</ele>
        <time>2010-05-21T08:08:26Z</time>
      </trkpt>
      <trkpt lat="39.43822" lon="-5.55786">
        <ele>603.504028</ele>
        <time>2010-05-21T08:08:27Z</time>
      </trkpt>
      <trkpt lat="39.43883" lon="-5.55759">
        <ele>604.418396</ele>
        <time>2010-05-21T08:08:28Z</time>
      </trkpt>
      <trkpt lat="39.43962" lon="-5.55701">
        <ele>611.124023</ele>
        <time>2010-05-21T08:08:29Z</time>
      </trkpt>
      <trkpt lat="39.44012" lon="-5.55675">
        <ele>610.209595</ele>
        <time>2010-05-21T08:08:30Z</time>
      </trkpt>
      <trkpt lat="39.44115" lon="-5.55623">
        <ele>612.95282</ele>
        <time>2010-05-21T08:08:31Z</time>
      </trkpt>
      <trkpt lat="39.44238" lon="-5.5554">
        <ele>623.01123</ele>
        <time>2010-05-21T08:08:32Z</time>
      </trkpt>
      <trkpt lat="39.44341" lon="-5.55462">
        <ele>631.240784</ele>
        <time>2010-05-21T08:08:33Z</time>
      </trkpt>
      <trkpt lat="39.44404" lon="-5.55423">
        <ele>640.384827</ele>
        <time>2010-05-21T08:08:34Z</time>
      </trkpt>
      <trkpt lat="39.44418" lon="-5.55406">
        <ele>638.860779</ele>
        <time>2010-05-21T08:08:35Z</time>
      </trkpt>
      <trkpt lat="39.44423" lon="-5.55393">
        <ele>637.641602</ele>
        <time>2010-05-21T08:08:36Z</time>
      </trkpt>
      <trkpt lat="39.44472" lon="-5.55322">
        <ele>628.802429</ele>
        <time>2010-05-21T08:08:37Z</time>
      </trkpt>
      <trkpt lat="39.44508" lon="-5.55294">
        <ele>628.49762</ele>
        <time>2010-05-21T08:08:38Z</time>
      </trkpt>
      <trkpt lat="39.44533" lon="-5.55269">
        <ele>628.49762</ele>
        <time>2010-05-21T08:08:39Z</time>
      </trkpt>
      <trkpt lat="39.44574" lon="-5.55238">
        <ele>626.059204</ele>
        <time>2010-05-21T08:08:40Z</time>
      </trkpt>
      <trkpt lat="39.44661" lon="-5.55148">
        <ele>626.364014</ele>
        <time>2010-05-21T08:08:41Z</time>
      </trkpt>
      <trkpt lat="39.44687" lon="-5.5511">
        <ele>629.411987</ele>
        <time>2010-05-21T08:08:42Z</time>
      </trkpt>
      <trkpt lat="39.44723" lon="-5.55023">
        <ele>626.364014</ele>
        <time>2010-05-21T08:08:43Z</time>
      </trkpt>
      <trkpt lat="39.44753" lon="-5.5497">
        <ele>623.925598</ele>
        <time>2010-05-21T08:08:44Z</time>
      </trkpt>
      <trkpt lat="39.4479" lon="-5.54942">
        <ele>622.096802</ele>
        <time>2010-05-21T08:08:45Z</time>
      </trkpt>
      <trkpt lat="39.44836" lon="-5.54906">
        <ele>623.01123</ele>
        <time>2010-05-21T08:08:46Z</time>
      </trkpt>
      <trkpt lat="39.44887" lon="-5.54818">
        <ele>626.973572</ele>
        <time>2010-05-21T08:08:47Z</time>
      </trkpt>
      <trkpt lat="39.44936" lon="-5.54762">
        <ele>636.422424</ele>
        <time>2010-05-21T08:08:48Z</time>
      </trkpt>
      <trkpt lat="39.45009" lon="-5.54678">
        <ele>650.443176</ele>
        <time>2010-05-21T08:08:49Z</time>
      </trkpt>
      <trkpt lat="39.4506" lon="-5.54578">
        <ele>653.796021</ele>
        <time>2010-05-21T08:08:50Z</time>
      </trkpt>
      <trkpt lat="39.45116" lon="-5.54499">
        <ele>660.196777</ele>
        <time>2010-05-21T08:08:51Z</time>
      </trkpt>
      <trkpt lat="39.45126" lon="-5.54488">
        <ele>661.111206</ele>
        <time>2010-05-21T08:08:52Z</time>
      </trkpt>
      <trkpt lat="39.45128" lon="-5.54487">
        <ele>662.025574</ele>
        <time>2010-05-21T08:08:53Z</time>
      </trkpt>
      <trkpt lat="39.45155" lon="-5.54492">
        <ele>665.378418</ele>
        <time>2010-05-21T08:08:54Z</time>
      </trkpt>
      <trkpt lat="39.45174" lon="-5.54504">
        <ele>666.902405</ele>
        <time>2010-05-21T08:08:55Z</time>
      </trkpt>
      <trkpt lat="39.45182" lon="-5.54508">
        <ele>667.207214</ele>
        <time>2010-05-21T08:08:56Z</time>
      </trkpt>
      <trkpt lat="39.45204" lon="-5.54527">
        <ele>666.292786</ele>
        <time>2010-05-21T08:08:57Z</time>
      </trkpt>
      <trkpt lat="39.45207" lon="-5.54529">
        <ele>665.378418</ele>
        <time>2010-05-21T08:08:58Z</time>
      </trkpt>
      <trkpt lat="39.45212" lon="-5.54533">
        <ele>666.292786</ele>
        <time>2010-05-21T08:08:59Z</time>
      </trkpt>
      <trkpt lat="39.45227" lon="-5.54518">
        <ele>665.378418</ele>
        <time>2010-05-21T08:09:00Z</time>
      </trkpt>
      <trkpt lat="39.45328" lon="-5.54397">
        <ele>658.063171</ele>
        <time>2010-05-21T08:09:01Z</time>
      </trkpt>
      <trkpt lat="39.45424" lon="-5.54214">
        <ele>659.587219</ele>
        <time>2010-05-21T08:09:02Z</time>
      </trkpt>
      <trkpt lat="39.45524" lon="-5.54021">
        <ele>661.416016</ele>
        <time>2010-05-21T08:09:03Z</time>
      </trkpt>
      <trkpt lat="39.45574" lon="-5.53973">
        <ele>662.025574</ele>
        <time>2010-05-21T08:09:04Z</time>
      </trkpt>
      <trkpt lat="39.45588" lon="-5.5397">
        <ele>662.940002</ele>
        <time>2010-05-21T08:09:05Z</time>
      </trkpt>
      <trkpt lat="39.45709" lon="-5.53948">
        <ele>672.693604</ele>
        <time>2010-05-21T08:09:06Z</time>
      </trkpt>
      <trkpt lat="39.45813" lon="-5.53878">
        <ele>668.731201</ele>
        <time>2010-05-21T08:09:07Z</time>
      </trkpt>
      <trkpt lat="39.45877" lon="-5.53792">
        <ele>661.111206</ele>
        <time>2010-05-21T08:09:08Z</time>
      </trkpt>
      <trkpt lat="39.45898" lon="-5.53715">
        <ele>651.052795</ele>
        <time>2010-05-21T08:09:09Z</time>
      </trkpt>
      <trkpt lat="39.45877" lon="-5.53792">
        <ele>661.111206</ele>
        <time>2010-05-21T08:09:10Z</time>
      </trkpt>
      <trkpt lat="39.45898" lon="-5.53715">
        <ele>651.052795</ele>
        <time>2010-05-21T08:09:11Z</time>
      </trkpt>
      <trkpt lat="39.45914" lon="-5.53683">
        <ele>646.480774</ele>
        <time>2010-05-21T08:09:12Z</time>
      </trkpt>
      <trkpt lat="39.45956" lon="-5.53632">
        <ele>639.470398</ele>
        <time>2010-05-21T08:09:13Z</time>
      </trkpt>
      <trkpt lat="39.46033" lon="-5.53576">
        <ele>633.984009</ele>
        <time>2010-05-21T08:09:14Z</time>
      </trkpt>
      <trkpt lat="39.46216" lon="-5.53442">
        <ele>621.487183</ele>
        <time>2010-05-21T08:09:15Z</time>
      </trkpt>
      <trkpt lat="39.46261" lon="-5.53384">
        <ele>619.353577</ele>
        <time>2010-05-21T08:09:16Z</time>
      </trkpt>
      <trkpt lat="39.46272" lon="-5.53352">
        <ele>617.82959</ele>
        <time>2010-05-21T08:09:17Z</time>
      </trkpt>
      <trkpt lat="39.46333" lon="-5.532">
        <ele>608.075989</ele>
        <time>2010-05-21T08:09:18Z</time>
      </trkpt>
      <trkpt lat="39.46313" lon="-5.53134">
        <ele>602.28479</ele>
        <time>2010-05-21T08:09:19Z</time>
      </trkpt>
      <trkpt lat="39.46278" lon="-5.53114">
        <ele>598.627197</ele>
        <time>2010-05-21T08:09:20Z</time>
      </trkpt>
      <trkpt lat="39.46247" lon="-5.53086">
        <ele>596.493591</ele>
        <time>2010-05-21T08:09:21Z</time>
      </trkpt>
      <trkpt lat="39.46247" lon="-5.53003">
        <ele>593.750427</ele>
        <time>2010-05-21T08:09:22Z</time>
      </trkpt>
      <trkpt lat="39.46292" lon="-5.52969">
        <ele>591.92157</ele>
        <time>2010-05-21T08:09:23Z</time>
      </trkpt>
      <trkpt lat="39.46329" lon="-5.52973">
        <ele>591.92157</ele>
        <time>2010-05-21T08:09:24Z</time>
      </trkpt>
      <trkpt lat="39.46351" lon="-5.52971">
        <ele>591.92157</ele>
        <time>2010-05-21T08:09:25Z</time>
      </trkpt>
      <trkpt lat="39.46356" lon="-5.52908">
        <ele>591.007202</ele>
        <time>2010-05-21T08:09:26Z</time>
      </trkpt>
      <trkpt lat="39.46323" lon="-5.52857">
        <ele>589.788025</ele>
        <time>2010-05-21T08:09:27Z</time>
      </trkpt>
      <trkpt lat="39.46269" lon="-5.52733">
        <ele>587.654419</ele>
        <time>2010-05-21T08:09:28Z</time>
      </trkpt>
      <trkpt lat="39.46254" lon="-5.5271">
        <ele>586.130371</ele>
        <time>2010-05-21T08:09:29Z</time>
      </trkpt>
      <trkpt lat="39.46253" lon="-5.52646">
        <ele>585.216003</ele>
        <time>2010-05-21T08:09:30Z</time>
      </trkpt>
      <trkpt lat="39.46262" lon="-5.52619">
        <ele>584.606384</ele>
        <time>2010-05-21T08:09:31Z</time>
      </trkpt>
      <trkpt lat="39.46233" lon="-5.52574">
        <ele>581.253601</ele>
        <time>2010-05-21T08:09:32Z</time>
      </trkpt>
      <trkpt lat="39.46177" lon="-5.52558">
        <ele>577.900818</ele>
        <time>2010-05-21T08:09:33Z</time>
      </trkpt>
      <trkpt lat="39.46162" lon="-5.52534">
        <ele>579.424805</ele>
        <time>2010-05-21T08:09:34Z</time>
      </trkpt>
      <trkpt lat="39.46165" lon="-5.52511">
        <ele>579.729614</ele>
        <time>2010-05-21T08:09:35Z</time>
      </trkpt>
      <trkpt lat="39.46153" lon="-5.52455">
        <ele>587.0448</ele>
        <time>2010-05-21T08:09:36Z</time>
      </trkpt>
      <trkpt lat="39.46179" lon="-5.52368">
        <ele>593.750427</ele>
        <time>2010-05-21T08:09:37Z</time>
      </trkpt>
      <trkpt lat="39.46261" lon="-5.52273">
        <ele>600.151184</ele>
        <time>2010-05-21T08:09:38Z</time>
      </trkpt>
      <trkpt lat="39.4638" lon="-5.52082">
        <ele>616.915222</ele>
        <time>2010-05-21T08:09:39Z</time>
      </trkpt>
      <trkpt lat="39.46423" lon="-5.52039">
        <ele>617.82959</ele>
        <time>2010-05-21T08:09:40Z</time>
      </trkpt>
      <trkpt lat="39.46524" lon="-5.52015">
        <ele>615.391174</ele>
        <time>2010-05-21T08:09:41Z</time>
      </trkpt>
      <trkpt lat="39.46676" lon="-5.51986">
        <ele>603.504028</ele>
        <time>2010-05-21T08:09:42Z</time>
      </trkpt>
      <trkpt lat="39.46701" lon="-5.51975">
        <ele>601.97998</ele>
        <time>2010-05-21T08:09:43Z</time>
      </trkpt>
      <trkpt lat="39.46716" lon="-5.51892">
        <ele>606.856812</ele>
        <time>2010-05-21T08:09:44Z</time>
      </trkpt>
      <trkpt lat="39.46698" lon="-5.51843">
        <ele>610.209595</ele>
        <time>2010-05-21T08:09:45Z</time>
      </trkpt>
      <trkpt lat="39.46657" lon="-5.51702">
        <ele>614.781616</ele>
        <time>2010-05-21T08:09:46Z</time>
      </trkpt>
      <trkpt lat="39.46622" lon="-5.51627">
        <ele>619.658386</ele>
        <time>2010-05-21T08:09:47Z</time>
      </trkpt>
      <trkpt lat="39.46602" lon="-5.51557">
        <ele>621.182373</ele>
        <time>2010-05-21T08:09:48Z</time>
      </trkpt>
      <trkpt lat="39.4659" lon="-5.51501">
        <ele>624.535217</ele>
        <time>2010-05-21T08:09:49Z</time>
      </trkpt>
      <trkpt lat="39.46501" lon="-5.5132">
        <ele>636.422424</ele>
        <time>2010-05-21T08:09:50Z</time>
      </trkpt>
      <trkpt lat="39.46494" lon="-5.51303">
        <ele>637.031982</ele>
        <time>2010-05-21T08:09:51Z</time>
      </trkpt>
      <trkpt lat="39.46412" lon="-5.5124">
        <ele>642.823181</ele>
        <time>2010-05-21T08:09:52Z</time>
      </trkpt>
      <trkpt lat="39.46326" lon="-5.51225">
        <ele>646.176025</ele>
        <time>2010-05-21T08:09:53Z</time>
      </trkpt>
      <trkpt lat="39.4626" lon="-5.51196">
        <ele>646.480774</ele>
        <time>2010-05-21T08:09:54Z</time>
      </trkpt>
      <trkpt lat="39.46253" lon="-5.51136">
        <ele>648.61438</ele>
        <time>2010-05-21T08:09:55Z</time>
      </trkpt>
      <trkpt lat="39.46285" lon="-5.51058">
        <ele>648.004822</ele>
        <time>2010-05-21T08:09:56Z</time>
      </trkpt>
      <trkpt lat="39.46294" lon="-5.51026">
        <ele>649.528809</ele>
        <time>2010-05-21T08:09:57Z</time>
      </trkpt>
      <trkpt lat="39.46264" lon="-5.50949">
        <ele>654.710388</ele>
        <time>2010-05-21T08:09:58Z</time>
      </trkpt>
      <trkpt lat="39.46224" lon="-5.50917">
        <ele>656.843994</ele>
        <time>2010-05-21T08:09:59Z</time>
      </trkpt>
      <trkpt lat="39.46129" lon="-5.50828">
        <ele>662.940002</ele>
        <time>2010-05-21T08:10:00Z</time>
      </trkpt>
      <trkpt lat="39.46068" lon="-5.50717">
        <ele>667.816772</ele>
        <time>2010-05-21T08:10:01Z</time>
      </trkpt>
      <trkpt lat="39.46034" lon="-5.50684">
        <ele>669.64563</ele>
        <time>2010-05-21T08:10:02Z</time>
      </trkpt>
      <trkpt lat="39.45987" lon="-5.50664">
        <ele>672.998413</ele>
        <time>2010-05-21T08:10:03Z</time>
      </trkpt>
      <trkpt lat="39.45928" lon="-5.50669">
        <ele>678.484802</ele>
        <time>2010-05-21T08:10:04Z</time>
      </trkpt>
      <trkpt lat="39.45884" lon="-5.50648">
        <ele>681.837585</ele>
        <time>2010-05-21T08:10:05Z</time>
      </trkpt>
      <trkpt lat="39.45832" lon="-5.50576">
        <ele>682.142395</ele>
        <time>2010-05-21T08:10:06Z</time>
      </trkpt>
      <trkpt lat="39.45741" lon="-5.50506">
        <ele>678.789612</ele>
        <time>2010-05-21T08:10:07Z</time>
      </trkpt>
      <trkpt lat="39.45701" lon="-5.50469">
        <ele>678.484802</ele>
        <time>2010-05-21T08:10:08Z</time>
      </trkpt>
      <trkpt lat="39.4558" lon="-5.50354">
        <ele>681.837585</ele>
        <time>2010-05-21T08:10:09Z</time>
      </trkpt>
      <trkpt lat="39.45481" lon="-5.50265">
        <ele>685.19043</ele>
        <time>2010-05-21T08:10:10Z</time>
      </trkpt>
      <trkpt lat="39.45387" lon="-5.50213">
        <ele>683.971191</ele>
        <time>2010-05-21T08:10:11Z</time>
      </trkpt>
      <trkpt lat="39.45375" lon="-5.50202">
        <ele>683.666382</ele>
        <time>2010-05-21T08:10:12Z</time>
      </trkpt>
      <trkpt lat="39.45357" lon="-5.50192">
        <ele>683.666382</ele>
        <time>2010-05-21T08:10:13Z</time>
      </trkpt>
      <trkpt lat="39.45351" lon="-5.50189">
        <ele>680.313599</ele>
        <time>2010-05-21T08:10:14Z</time>
      </trkpt>
      <trkpt lat="39.4529" lon="-5.50189">
        <ele>682.660522</ele>
        <time>2010-05-21T08:10:15Z</time>
      </trkpt>
      <trkpt lat="39.4529" lon="-5.50188">
        <ele>683.148254</ele>
        <time>2010-05-21T08:10:16Z</time>
      </trkpt>
      <trkpt lat="39.45274" lon="-5.50181">
        <ele>686.043884</ele>
        <time>2010-05-21T08:10:17Z</time>
      </trkpt>
      <trkpt lat="39.45263" lon="-5.50175">
        <ele>686.988708</ele>
        <time>2010-05-21T08:10:18Z</time>
      </trkpt>
      <trkpt lat="39.45251" lon="-5.5017">
        <ele>687.476379</ele>
        <time>2010-05-21T08:10:19Z</time>
      </trkpt>
      <trkpt lat="39.45217" lon="-5.50162">
        <ele>688.908936</ele>
        <time>2010-05-21T08:10:20Z</time>
      </trkpt>
      <trkpt lat="39.45193" lon="-5.50148">
        <ele>690.372009</ele>
        <time>2010-05-21T08:10:21Z</time>
      </trkpt>
      <trkpt lat="39.45129" lon="-5.50082">
        <ele>696.620422</ele>
        <time>2010-05-21T08:10:22Z</time>
      </trkpt>
      <trkpt lat="39.45117" lon="-5.50069">
        <ele>698.540649</ele>
        <time>2010-05-21T08:10:23Z</time>
      </trkpt>
      <trkpt lat="39.4511" lon="-5.50063">
        <ele>699.485474</ele>
        <time>2010-05-21T08:10:24Z</time>
      </trkpt>
      <trkpt lat="39.45027" lon="-5.50034">
        <ele>699.02832</ele>
        <time>2010-05-21T08:10:25Z</time>
      </trkpt>
      <trkpt lat="39.4496" lon="-5.50004">
        <ele>703.813721</ele>
        <time>2010-05-21T08:10:26Z</time>
      </trkpt>
      <trkpt lat="39.44895" lon="-5.49971">
        <ele>707.654175</ele>
        <time>2010-05-21T08:10:27Z</time>
      </trkpt>
      <trkpt lat="39.44868" lon="-5.49964">
        <ele>702.868774</ele>
        <time>2010-05-21T08:10:28Z</time>
      </trkpt>
      <trkpt lat="39.44851" lon="-5.49958">
        <ele>701.405762</ele>
        <time>2010-05-21T08:10:29Z</time>
      </trkpt>
      <trkpt lat="39.44828" lon="-5.49939">
        <ele>698.052917</ele>
        <time>2010-05-21T08:10:30Z</time>
      </trkpt>
      <trkpt lat="39.44796" lon="-5.4995">
        <ele>693.724792</ele>
        <time>2010-05-21T08:10:31Z</time>
      </trkpt>
      <trkpt lat="39.44793" lon="-5.49955">
        <ele>693.724792</ele>
        <time>2010-05-21T08:10:32Z</time>
      </trkpt>
      <trkpt lat="39.44745" lon="-5.50033">
        <ele>692.292236</ele>
        <time>2010-05-21T08:10:33Z</time>
      </trkpt>
      <trkpt lat="39.44704" lon="-5.50084">
        <ele>693.237061</ele>
        <time>2010-05-21T08:10:34Z</time>
      </trkpt>
      <trkpt lat="39.44684" lon="-5.50113">
        <ele>694.212524</ele>
        <time>2010-05-21T08:10:35Z</time>
      </trkpt>
      <trkpt lat="39.44659" lon="-5.5014">
        <ele>696.13269</ele>
        <time>2010-05-21T08:10:36Z</time>
      </trkpt>
      <trkpt lat="39.44638" lon="-5.50146">
        <ele>695.645081</ele>
        <time>2010-05-21T08:10:37Z</time>
      </trkpt>
      <trkpt lat="39.44561" lon="-5.50145">
        <ele>699.02832</ele>
        <time>2010-05-21T08:10:38Z</time>
      </trkpt>
      <trkpt lat="39.44546" lon="-5.50129">
        <ele>703.813721</ele>
        <time>2010-05-21T08:10:39Z</time>
      </trkpt>
      <trkpt lat="39.44544" lon="-5.50119">
        <ele>707.19696</ele>
        <time>2010-05-21T08:10:40Z</time>
      </trkpt>
      <trkpt lat="39.44554" lon="-5.50086">
        <ele>708.141846</ele>
        <time>2010-05-21T08:10:41Z</time>
      </trkpt>
      <trkpt lat="39.44563" lon="-5.50062">
        <ele>707.19696</ele>
        <time>2010-05-21T08:10:42Z</time>
      </trkpt>
      <trkpt lat="39.44549" lon="-5.50007">
        <ele>706.70929</ele>
        <time>2010-05-21T08:10:43Z</time>
      </trkpt>
      <trkpt lat="39.44524" lon="-5.49993">
        <ele>706.221619</ele>
        <time>2010-05-21T08:10:44Z</time>
      </trkpt>
      <trkpt lat="39.44496" lon="-5.49978">
        <ele>705.733887</ele>
        <time>2010-05-21T08:10:45Z</time>
      </trkpt>
      <trkpt lat="39.44464" lon="-5.49924">
        <ele>704.789063</ele>
        <time>2010-05-21T08:10:46Z</time>
      </trkpt>
      <trkpt lat="39.44432" lon="-5.49754">
        <ele>704.301331</ele>
        <time>2010-05-21T08:10:47Z</time>
      </trkpt>
      <trkpt lat="39.44421" lon="-5.49695">
        <ele>704.301331</ele>
        <time>2010-05-21T08:10:48Z</time>
      </trkpt>
      <trkpt lat="39.44388" lon="-5.49662">
        <ele>702.868774</ele>
        <time>2010-05-21T08:10:49Z</time>
      </trkpt>
      <trkpt lat="39.44299" lon="-5.49618">
        <ele>698.540649</ele>
        <time>2010-05-21T08:10:50Z</time>
      </trkpt>
      <trkpt lat="39.4425" lon="-5.4958">
        <ele>696.620422</ele>
        <time>2010-05-21T08:10:51Z</time>
      </trkpt>
      <trkpt lat="39.44204" lon="-5.49595">
        <ele>692.292236</ele>
        <time>2010-05-21T08:10:52Z</time>
      </trkpt>
      <trkpt lat="39.44199" lon="-5.49604">
        <ele>691.804565</ele>
        <time>2010-05-21T08:10:53Z</time>
      </trkpt>
      <trkpt lat="39.44147" lon="-5.49669">
        <ele>689.396667</ele>
        <time>2010-05-21T08:10:54Z</time>
      </trkpt>
      <trkpt lat="39.44078" lon="-5.497">
        <ele>683.148254</ele>
        <time>2010-05-21T08:10:55Z</time>
      </trkpt>
      <trkpt lat="39.43972" lon="-5.49653">
        <ele>677.875183</ele>
        <time>2010-05-21T08:10:56Z</time>
      </trkpt>
      <trkpt lat="39.43877" lon="-5.49578">
        <ele>675.467285</ele>
        <time>2010-05-21T08:10:57Z</time>
      </trkpt>
      <trkpt lat="39.43768" lon="-5.49493">
        <ele>674.979614</ele>
        <time>2010-05-21T08:10:58Z</time>
      </trkpt>
      <trkpt lat="39.43675" lon="-5.49453">
        <ele>667.786316</ele>
        <time>2010-05-21T08:10:59Z</time>
      </trkpt>
      <trkpt lat="39.4364" lon="-5.49399">
        <ele>674.491882</ele>
        <time>2010-05-21T08:11:00Z</time>
      </trkpt>
      <trkpt lat="39.43659" lon="-5.49339">
        <ele>676.41217</ele>
        <time>2010-05-21T08:11:01Z</time>
      </trkpt>
      <trkpt lat="39.43748" lon="-5.49209">
        <ele>663.915344</ele>
        <time>2010-05-21T08:11:02Z</time>
      </trkpt>
      <trkpt lat="39.43764" lon="-5.49157">
        <ele>658.642273</ele>
        <time>2010-05-21T08:11:03Z</time>
      </trkpt>
      <trkpt lat="39.43749" lon="-5.49022">
        <ele>645.170166</ele>
        <time>2010-05-21T08:11:04Z</time>
      </trkpt>
      <trkpt lat="39.43738" lon="-5.48979">
        <ele>641.329712</ele>
        <time>2010-05-21T08:11:05Z</time>
      </trkpt>
      <trkpt lat="39.43681" lon="-5.48833">
        <ele>627.400269</ele>
        <time>2010-05-21T08:11:06Z</time>
      </trkpt>
      <trkpt lat="39.43674" lon="-5.48753">
        <ele>626.424927</ele>
        <time>2010-05-21T08:11:07Z</time>
      </trkpt>
      <trkpt lat="39.43647" lon="-5.4866">
        <ele>618.256348</ele>
        <time>2010-05-21T08:11:08Z</time>
      </trkpt>
      <trkpt lat="39.43646" lon="-5.48657">
        <ele>618.256348</ele>
        <time>2010-05-21T08:11:09Z</time>
      </trkpt>
      <trkpt lat="39.43641" lon="-5.48633">
        <ele>618.744019</ele>
        <time>2010-05-21T08:11:10Z</time>
      </trkpt>
      <trkpt lat="39.43641" lon="-5.48632">
        <ele>619.71936</ele>
        <time>2010-05-21T08:11:11Z</time>
      </trkpt>
      <trkpt lat="39.43645" lon="-5.48612">
        <ele>620.664246</ele>
        <time>2010-05-21T08:11:12Z</time>
      </trkpt>
      <trkpt lat="39.43659" lon="-5.4858">
        <ele>623.559875</ele>
        <time>2010-05-21T08:11:13Z</time>
      </trkpt>
      <trkpt lat="39.43665" lon="-5.48555">
        <ele>625.967773</ele>
        <time>2010-05-21T08:11:14Z</time>
      </trkpt>
      <trkpt lat="39.43668" lon="-5.48554">
        <ele>630.295898</ele>
        <time>2010-05-21T08:11:15Z</time>
      </trkpt>
      <trkpt lat="39.43671" lon="-5.48552">
        <ele>631.728516</ele>
        <time>2010-05-21T08:11:16Z</time>
      </trkpt>
      <trkpt lat="39.43677" lon="-5.48529">
        <ele>634.593628</ele>
        <time>2010-05-21T08:11:17Z</time>
      </trkpt>
      <trkpt lat="39.43675" lon="-5.48505">
        <ele>635.081299</ele>
        <time>2010-05-21T08:11:18Z</time>
      </trkpt>
      <trkpt lat="39.43658" lon="-5.48424">
        <ele>630.753113</ele>
        <time>2010-05-21T08:11:19Z</time>
      </trkpt>
      <trkpt lat="39.43638" lon="-5.48386">
        <ele>628.345215</ele>
        <time>2010-05-21T08:11:20Z</time>
      </trkpt>
      <trkpt lat="39.43581" lon="-5.48304">
        <ele>624.5047</ele>
        <time>2010-05-21T08:11:21Z</time>
      </trkpt>
      <trkpt lat="39.43551" lon="-5.48228">
        <ele>621.151917</ele>
        <time>2010-05-21T08:11:22Z</time>
      </trkpt>
      <trkpt lat="39.43557" lon="-5.4816">
        <ele>622.096802</ele>
        <time>2010-05-21T08:11:23Z</time>
      </trkpt>
      <trkpt lat="39.4359" lon="-5.4811">
        <ele>623.559875</ele>
        <time>2010-05-21T08:11:24Z</time>
      </trkpt>
      <trkpt lat="39.43608" lon="-5.48062">
        <ele>625.967773</ele>
        <time>2010-05-21T08:11:25Z</time>
      </trkpt>
      <trkpt lat="39.43613" lon="-5.48035">
        <ele>627.400269</ele>
        <time>2010-05-21T08:11:26Z</time>
      </trkpt>
      <trkpt lat="39.4361" lon="-5.47953">
        <ele>630.753113</ele>
        <time>2010-05-21T08:11:27Z</time>
      </trkpt>
      <trkpt lat="39.43597" lon="-5.47895">
        <ele>636.056641</ele>
        <time>2010-05-21T08:11:28Z</time>
      </trkpt>
      <trkpt lat="39.4361" lon="-5.47831">
        <ele>639.897095</ele>
        <time>2010-05-21T08:11:29Z</time>
      </trkpt>
      <trkpt lat="39.43642" lon="-5.47757">
        <ele>646.633179</ele>
        <time>2010-05-21T08:11:30Z</time>
      </trkpt>
      <trkpt lat="39.43716" lon="-5.47693">
        <ele>654.314148</ele>
        <time>2010-05-21T08:11:31Z</time>
      </trkpt>
      <trkpt lat="39.43736" lon="-5.47649">
        <ele>657.666931</ele>
        <time>2010-05-21T08:11:32Z</time>
      </trkpt>
      <trkpt lat="39.43742" lon="-5.47622">
        <ele>660.562561</ele>
        <time>2010-05-21T08:11:33Z</time>
      </trkpt>
      <trkpt lat="39.43764" lon="-5.47479">
        <ele>674.979614</ele>
        <time>2010-05-21T08:11:34Z</time>
      </trkpt>
      <trkpt lat="39.43765" lon="-5.4747">
        <ele>676.41217</ele>
        <time>2010-05-21T08:11:35Z</time>
      </trkpt>
      <trkpt lat="39.43762" lon="-5.47482">
        <ele>676.899841</ele>
        <time>2010-05-21T08:11:36Z</time>
      </trkpt>
      <trkpt lat="39.43776" lon="-5.47453">
        <ele>677.875183</ele>
        <time>2010-05-21T08:11:37Z</time>
      </trkpt>
      <trkpt lat="39.43849" lon="-5.47366">
        <ele>679.307739</ele>
        <time>2010-05-21T08:11:38Z</time>
      </trkpt>
      <trkpt lat="39.43854" lon="-5.47327">
        <ele>679.307739</ele>
        <time>2010-05-21T08:11:39Z</time>
      </trkpt>
      <trkpt lat="39.43813" lon="-5.47275">
        <ele>680.283081</ele>
        <time>2010-05-21T08:11:40Z</time>
      </trkpt>
      <trkpt lat="39.43802" lon="-5.47212">
        <ele>681.228027</ele>
        <time>2010-05-21T08:11:41Z</time>
      </trkpt>
      <trkpt lat="39.43836" lon="-5.47134">
        <ele>681.228027</ele>
        <time>2010-05-21T08:11:42Z</time>
      </trkpt>
      <trkpt lat="39.43838" lon="-5.47085">
        <ele>681.228027</ele>
        <time>2010-05-21T08:11:43Z</time>
      </trkpt>
      <trkpt lat="39.43835" lon="-5.47028">
        <ele>682.203369</ele>
        <time>2010-05-21T08:11:44Z</time>
      </trkpt>
      <trkpt lat="39.43821" lon="-5.46984">
        <ele>683.148254</ele>
        <time>2010-05-21T08:11:45Z</time>
      </trkpt>
      <trkpt lat="39.43782" lon="-5.46918">
        <ele>687.476379</ele>
        <time>2010-05-21T08:11:46Z</time>
      </trkpt>
      <trkpt lat="39.43755" lon="-5.46788">
        <ele>689.884277</ele>
        <time>2010-05-21T08:11:47Z</time>
      </trkpt>
      <trkpt lat="39.43705" lon="-5.46687">
        <ele>693.237061</ele>
        <time>2010-05-21T08:11:48Z</time>
      </trkpt>
      <trkpt lat="39.437" lon="-5.4667">
        <ele>694.212524</ele>
        <time>2010-05-21T08:11:49Z</time>
      </trkpt>
      <trkpt lat="39.437" lon="-5.46636">
        <ele>692.779907</ele>
        <time>2010-05-21T08:11:50Z</time>
      </trkpt>
      <trkpt lat="39.43709" lon="-5.46609">
        <ele>691.804565</ele>
        <time>2010-05-21T08:11:51Z</time>
      </trkpt>
      <trkpt lat="39.4374" lon="-5.4654">
        <ele>688.908936</ele>
        <time>2010-05-21T08:11:52Z</time>
      </trkpt>
      <trkpt lat="39.43735" lon="-5.46512">
        <ele>686.531494</ele>
        <time>2010-05-21T08:11:53Z</time>
      </trkpt>
      <trkpt lat="39.43674" lon="-5.46433">
        <ele>685.556152</ele>
        <time>2010-05-21T08:11:54Z</time>
      </trkpt>
      <trkpt lat="39.43667" lon="-5.46418">
        <ele>684.123596</ele>
        <time>2010-05-21T08:11:55Z</time>
      </trkpt>
      <trkpt lat="39.43666" lon="-5.46418">
        <ele>683.148254</ele>
        <time>2010-05-21T08:11:56Z</time>
      </trkpt>
      <trkpt lat="39.4367" lon="-5.4643">
        <ele>680.740295</ele>
        <time>2010-05-21T08:11:57Z</time>
      </trkpt>
      <trkpt lat="39.43667" lon="-5.46418">
        <ele>683.635864</ele>
        <time>2010-05-21T08:11:58Z</time>
      </trkpt>
      <trkpt lat="39.43666" lon="-5.46415">
        <ele>684.123596</ele>
        <time>2010-05-21T08:11:59Z</time>
      </trkpt>
      <trkpt lat="39.43633" lon="-5.46341">
        <ele>686.988708</ele>
        <time>2010-05-21T08:12:00Z</time>
      </trkpt>
      <trkpt lat="39.43609" lon="-5.46301">
        <ele>687.964111</ele>
        <time>2010-05-21T08:12:01Z</time>
      </trkpt>
      <trkpt lat="39.43595" lon="-5.46254">
        <ele>692.292236</ele>
        <time>2010-05-21T08:12:02Z</time>
      </trkpt>
      <trkpt lat="39.43596" lon="-5.46251">
        <ele>692.779907</ele>
        <time>2010-05-21T08:12:03Z</time>
      </trkpt>
      <trkpt lat="39.43607" lon="-5.46252">
        <ele>693.724792</ele>
        <time>2010-05-21T08:12:04Z</time>
      </trkpt>
      <trkpt lat="39.43614" lon="-5.46257">
        <ele>693.724792</ele>
        <time>2010-05-21T08:12:05Z</time>
      </trkpt>
      <trkpt lat="39.43634" lon="-5.46236">
        <ele>695.645081</ele>
        <time>2010-05-21T08:12:06Z</time>
      </trkpt>
      <trkpt lat="39.43634" lon="-5.46222">
        <ele>696.620422</ele>
        <time>2010-05-21T08:12:07Z</time>
      </trkpt>
      <trkpt lat="39.43637" lon="-5.46129">
        <ele>699.02832</ele>
        <time>2010-05-21T08:12:08Z</time>
      </trkpt>
      <trkpt lat="39.43645" lon="-5.46092">
        <ele>699.485474</ele>
        <time>2010-05-21T08:12:09Z</time>
      </trkpt>
      <trkpt lat="39.43686" lon="-5.46026">
        <ele>705.276672</ele>
        <time>2010-05-21T08:12:10Z</time>
      </trkpt>
      <trkpt lat="39.43466" lon="-5.45779">
        <ele>726.887085</ele>
        <time>2010-05-21T08:12:24Z</time>
      </trkpt>
      <trkpt lat="39.43452" lon="-5.45747">
        <ele>722.101685</ele>
        <time>2010-05-21T08:12:25Z</time>
      </trkpt>
      <trkpt lat="39.43433" lon="-5.45728">
        <ele>721.126282</ele>
        <time>2010-05-21T08:12:26Z</time>
      </trkpt>
      <trkpt lat="39.43383" lon="-5.45675">
        <ele>717.285828</ele>
        <time>2010-05-21T08:12:27Z</time>
      </trkpt>
      <trkpt lat="39.43352" lon="-5.45598">
        <ele>717.773499</ele>
        <time>2010-05-21T08:12:28Z</time>
      </trkpt>
      <trkpt lat="39.43348" lon="-5.45582">
        <ele>717.773499</ele>
        <time>2010-05-21T08:12:29Z</time>
      </trkpt>
      <trkpt lat="39.4335" lon="-5.45565">
        <ele>718.718384</ele>
        <time>2010-05-21T08:12:30Z</time>
      </trkpt>
      <trkpt lat="39.43353" lon="-5.45546">
        <ele>719.206116</ele>
        <time>2010-05-21T08:12:31Z</time>
      </trkpt>
      <trkpt lat="39.43348" lon="-5.45512">
        <ele>718.230713</ele>
        <time>2010-05-21T08:12:32Z</time>
      </trkpt>
      <trkpt lat="39.43345" lon="-5.45505">
        <ele>721.614014</ele>
        <time>2010-05-21T08:12:33Z</time>
      </trkpt>
      <trkpt lat="39.43343" lon="-5.45505">
        <ele>720.638672</ele>
        <time>2010-05-21T08:12:34Z</time>
      </trkpt>
      <trkpt lat="39.43344" lon="-5.45513">
        <ele>718.718384</ele>
        <time>2010-05-21T08:12:35Z</time>
      </trkpt>
      <trkpt lat="39.43344" lon="-5.45514">
        <ele>717.773499</ele>
        <time>2010-05-21T08:12:36Z</time>
      </trkpt>
      <trkpt lat="39.43325" lon="-5.45512">
        <ele>715.853333</ele>
        <time>2010-05-21T08:12:37Z</time>
      </trkpt>
      <trkpt lat="39.43271" lon="-5.45494">
        <ele>717.285828</ele>
        <time>2010-05-21T08:12:38Z</time>
      </trkpt>
      <trkpt lat="39.43251" lon="-5.45474">
        <ele>716.798157</ele>
        <time>2010-05-21T08:12:39Z</time>
      </trkpt>
      <trkpt lat="39.43243" lon="-5.45471">
        <ele>716.310486</ele>
        <time>2010-05-21T08:12:40Z</time>
      </trkpt>
      <trkpt lat="39.43207" lon="-5.45445">
        <ele>711.9823</ele>
        <time>2010-05-21T08:12:41Z</time>
      </trkpt>
      <trkpt lat="39.43165" lon="-5.45365">
        <ele>706.70929</ele>
        <time>2010-05-21T08:12:42Z</time>
      </trkpt>
      <trkpt lat="39.43165" lon="-5.45308">
        <ele>708.141846</ele>
        <time>2010-05-21T08:12:43Z</time>
      </trkpt>
      <trkpt lat="39.43165" lon="-5.45304">
        <ele>708.141846</ele>
        <time>2010-05-21T08:12:44Z</time>
      </trkpt>
      <trkpt lat="39.43134" lon="-5.45263">
        <ele>710.549744</ele>
        <time>2010-05-21T08:12:45Z</time>
      </trkpt>
      <trkpt lat="39.43102" lon="-5.45228">
        <ele>714.877869</ele>
        <time>2010-05-21T08:12:46Z</time>
      </trkpt>
      <trkpt lat="39.43074" lon="-5.45172">
        <ele>722.101685</ele>
        <time>2010-05-21T08:12:47Z</time>
      </trkpt>
      <trkpt lat="39.43067" lon="-5.45132">
        <ele>729.782654</ele>
        <time>2010-05-21T08:12:48Z</time>
      </trkpt>
      <trkpt lat="39.43046" lon="-5.45081">
        <ele>738.438965</ele>
        <time>2010-05-21T08:12:49Z</time>
      </trkpt>
      <trkpt lat="39.43022" lon="-5.45033">
        <ele>743.224304</ele>
        <time>2010-05-21T08:12:50Z</time>
      </trkpt>
      <trkpt lat="39.43012" lon="-5.44953">
        <ele>744.687317</ele>
        <time>2010-05-21T08:12:51Z</time>
      </trkpt>
      <trkpt lat="39.43014" lon="-5.44902">
        <ele>748.040161</ele>
        <time>2010-05-21T08:12:52Z</time>
      </trkpt>
      <trkpt lat="39.43009" lon="-5.4488">
        <ele>750.44812</ele>
        <time>2010-05-21T08:12:53Z</time>
      </trkpt>
      <trkpt lat="39.43004" lon="-5.44869">
        <ele>751.392944</ele>
        <time>2010-05-21T08:12:54Z</time>
      </trkpt>
      <trkpt lat="39.42976" lon="-5.4484">
        <ele>754.288574</ele>
        <time>2010-05-21T08:12:55Z</time>
      </trkpt>
      <trkpt lat="39.42976" lon="-5.44837">
        <ele>755.263916</ele>
        <time>2010-05-21T08:12:56Z</time>
      </trkpt>
      <trkpt lat="39.42967" lon="-5.44816">
        <ele>756.208801</ele>
        <time>2010-05-21T08:12:57Z</time>
      </trkpt>
      <trkpt lat="39.42965" lon="-5.44812">
        <ele>756.208801</ele>
        <time>2010-05-21T08:12:58Z</time>
      </trkpt>
      <trkpt lat="39.42946" lon="-5.44743">
        <ele>759.10437</ele>
        <time>2010-05-21T08:12:59Z</time>
      </trkpt>
      <trkpt lat="39.42933" lon="-5.44691">
        <ele>761.969482</ele>
        <time>2010-05-21T08:13:00Z</time>
      </trkpt>
      <trkpt lat="39.42906" lon="-5.44654">
        <ele>764.377441</ele>
        <time>2010-05-21T08:13:01Z</time>
      </trkpt>
      <trkpt lat="39.42882" lon="-5.44638">
        <ele>765.840515</ele>
        <time>2010-05-21T08:13:02Z</time>
      </trkpt>
      <trkpt lat="39.42825" lon="-5.44633">
        <ele>768.217896</ele>
        <time>2010-05-21T08:13:03Z</time>
      </trkpt>
      <trkpt lat="39.4278" lon="-5.44603">
        <ele>771.601196</ele>
        <time>2010-05-21T08:13:04Z</time>
      </trkpt>
      <trkpt lat="39.42768" lon="-5.44585">
        <ele>771.601196</ele>
        <time>2010-05-21T08:13:05Z</time>
      </trkpt>
      <trkpt lat="39.42766" lon="-5.44581">
        <ele>770.138123</ele>
        <time>2010-05-21T08:13:06Z</time>
      </trkpt>
      <trkpt lat="39.42766" lon="-5.44581">
        <ele>770.138123</ele>
        <time>2010-05-21T08:13:07Z</time>
      </trkpt>
      <trkpt lat="39.42744" lon="-5.44569">
        <ele>769.680969</ele>
        <time>2010-05-21T08:13:08Z</time>
      </trkpt>
      <trkpt lat="39.42733" lon="-5.44564">
        <ele>770.625854</ele>
        <time>2010-05-21T08:13:09Z</time>
      </trkpt>
      <trkpt lat="39.42731" lon="-5.4456">
        <ele>772.088928</ele>
        <time>2010-05-21T08:13:10Z</time>
      </trkpt>
      <trkpt lat="39.42732" lon="-5.44562">
        <ele>768.705627</ele>
        <time>2010-05-21T08:13:11Z</time>
      </trkpt>
      <trkpt lat="39.4268" lon="-5.4455">
        <ele>760.536926</ele>
        <time>2010-05-21T08:13:12Z</time>
      </trkpt>
      <trkpt lat="39.42652" lon="-5.44498">
        <ele>755.263916</ele>
        <time>2010-05-21T08:13:13Z</time>
      </trkpt>
      <trkpt lat="39.42624" lon="-5.44438">
        <ele>749.472717</ele>
        <time>2010-05-21T08:13:14Z</time>
      </trkpt>
      <trkpt lat="39.42605" lon="-5.44413">
        <ele>746.607605</ele>
        <time>2010-05-21T08:13:15Z</time>
      </trkpt>
      <trkpt lat="39.42548" lon="-5.44364">
        <ele>735.055725</ele>
        <time>2010-05-21T08:13:16Z</time>
      </trkpt>
      <trkpt lat="39.42514" lon="-5.44363">
        <ele>733.135437</ele>
        <time>2010-05-21T08:13:17Z</time>
      </trkpt>
      <trkpt lat="39.42474" lon="-5.44373">
        <ele>734.598511</ele>
        <time>2010-05-21T08:13:18Z</time>
      </trkpt>
      <trkpt lat="39.42428" lon="-5.44358">
        <ele>739.87146</ele>
        <time>2010-05-21T08:13:19Z</time>
      </trkpt>
      <trkpt lat="39.42356" lon="-5.44309">
        <ele>749.015503</ele>
        <time>2010-05-21T08:13:20Z</time>
      </trkpt>
      <trkpt lat="39.42322" lon="-5.44264">
        <ele>754.776245</ele>
        <time>2010-05-21T08:13:21Z</time>
      </trkpt>
      <trkpt lat="39.42313" lon="-5.44241">
        <ele>757.184143</ele>
        <time>2010-05-21T08:13:22Z</time>
      </trkpt>
      <trkpt lat="39.42286" lon="-5.44155">
        <ele>763.432556</ele>
        <time>2010-05-21T08:13:23Z</time>
      </trkpt>
      <trkpt lat="39.42221" lon="-5.44106">
        <ele>767.273071</ele>
        <time>2010-05-21T08:13:24Z</time>
      </trkpt>
      <trkpt lat="39.42204" lon="-5.44118">
        <ele>769.193298</ele>
        <time>2010-05-21T08:13:25Z</time>
      </trkpt>
      <trkpt lat="39.42176" lon="-5.44149">
        <ele>774.009094</ele>
        <time>2010-05-21T08:13:26Z</time>
      </trkpt>
      <trkpt lat="39.42176" lon="-5.4414">
        <ele>773.033752</ele>
        <time>2010-05-21T08:13:27Z</time>
      </trkpt>
      <trkpt lat="39.42189" lon="-5.44069">
        <ele>779.769836</ele>
        <time>2010-05-21T08:13:28Z</time>
      </trkpt>
      <trkpt lat="39.42175" lon="-5.4404">
        <ele>776.417053</ele>
        <time>2010-05-21T08:13:29Z</time>
      </trkpt>
      <trkpt lat="39.42144" lon="-5.44023">
        <ele>772.546082</ele>
        <time>2010-05-21T08:13:30Z</time>
      </trkpt>
      <trkpt lat="39.42129" lon="-5.44014">
        <ele>771.113464</ele>
        <time>2010-05-21T08:13:31Z</time>
      </trkpt>
      <trkpt lat="39.42098" lon="-5.43995">
        <ele>763.889771</ele>
        <time>2010-05-21T08:13:32Z</time>
      </trkpt>
      <trkpt lat="39.42078" lon="-5.43976">
        <ele>761.024658</ele>
        <time>2010-05-21T08:13:33Z</time>
      </trkpt>
      <trkpt lat="39.42058" lon="-5.4395">
        <ele>753.800903</ele>
        <time>2010-05-21T08:13:34Z</time>
      </trkpt>
      <trkpt lat="39.42056" lon="-5.4395">
        <ele>753.800903</ele>
        <time>2010-05-21T08:13:35Z</time>
      </trkpt>
      <trkpt lat="39.42025" lon="-5.43957">
        <ele>751.880676</ele>
        <time>2010-05-21T08:13:36Z</time>
      </trkpt>
      <trkpt lat="39.41968" lon="-5.43973">
        <ele>750.44812</ele>
        <time>2010-05-21T08:13:37Z</time>
      </trkpt>
      <trkpt lat="39.41936" lon="-5.43995">
        <ele>750.93573</ele>
        <time>2010-05-21T08:13:38Z</time>
      </trkpt>
      <trkpt lat="39.41915" lon="-5.44016">
        <ele>752.856018</ele>
        <time>2010-05-21T08:13:39Z</time>
      </trkpt>
      <trkpt lat="39.41887" lon="-5.44024">
        <ele>756.696533</ele>
        <time>2010-05-21T08:13:40Z</time>
      </trkpt>
      <trkpt lat="39.4182" lon="-5.44017">
        <ele>772.088928</ele>
        <time>2010-05-21T08:13:41Z</time>
      </trkpt>
      <trkpt lat="39.41821" lon="-5.44016">
        <ele>775.441711</ele>
        <time>2010-05-21T08:13:42Z</time>
      </trkpt>
      <trkpt lat="39.41823" lon="-5.44018">
        <ele>773.033752</ele>
        <time>2010-05-21T08:13:43Z</time>
      </trkpt>
      <trkpt lat="39.41813" lon="-5.44013">
        <ele>772.546082</ele>
        <time>2010-05-21T08:13:44Z</time>
      </trkpt>
      <trkpt lat="39.41817" lon="-5.44011">
        <ele>773.033752</ele>
        <time>2010-05-21T08:13:45Z</time>
      </trkpt>
      <trkpt lat="39.41817" lon="-5.4401">
        <ele>773.521484</ele>
        <time>2010-05-21T08:13:46Z</time>
      </trkpt>
      <trkpt lat="39.41822" lon="-5.43996">
        <ele>773.033752</ele>
        <time>2010-05-21T08:13:47Z</time>
      </trkpt>
      <trkpt lat="39.41857" lon="-5.43943">
        <ele>772.546082</ele>
        <time>2010-05-21T08:13:48Z</time>
      </trkpt>
      <trkpt lat="39.41878" lon="-5.43922">
        <ele>772.088928</ele>
        <time>2010-05-21T08:13:49Z</time>
      </trkpt>
      <trkpt lat="39.41901" lon="-5.43891">
        <ele>768.217896</ele>
        <time>2010-05-21T08:13:50Z</time>
      </trkpt>
      <trkpt lat="39.41932" lon="-5.43881">
        <ele>765.352783</ele>
        <time>2010-05-21T08:13:51Z</time>
      </trkpt>
      <trkpt lat="39.41965" lon="-5.43858">
        <ele>772.088928</ele>
        <time>2010-05-21T08:13:52Z</time>
      </trkpt>
      <trkpt lat="39.41964" lon="-5.4386">
        <ele>772.546082</ele>
        <time>2010-05-21T08:13:53Z</time>
      </trkpt>
      <trkpt lat="39.41974" lon="-5.43849">
        <ele>774.009094</ele>
        <time>2010-05-21T08:13:54Z</time>
      </trkpt>
      <trkpt lat="39.41982" lon="-5.43819">
        <ele>774.466309</ele>
        <time>2010-05-21T08:13:55Z</time>
      </trkpt>
      <trkpt lat="39.41979" lon="-5.43761">
        <ele>772.088928</ele>
        <time>2010-05-21T08:13:56Z</time>
      </trkpt>
      <trkpt lat="39.41969" lon="-5.43727">
        <ele>769.680969</ele>
        <time>2010-05-21T08:13:57Z</time>
      </trkpt>
      <trkpt lat="39.41959" lon="-5.43702">
        <ele>768.705627</ele>
        <time>2010-05-21T08:13:58Z</time>
      </trkpt>
      <trkpt lat="39.4194" lon="-5.43667">
        <ele>768.217896</ele>
        <time>2010-05-21T08:13:59Z</time>
      </trkpt>
      <trkpt lat="39.4194" lon="-5.43641">
        <ele>768.705627</ele>
        <time>2010-05-21T08:14:00Z</time>
      </trkpt>
      <trkpt lat="39.41952" lon="-5.43633">
        <ele>768.705627</ele>
        <time>2010-05-21T08:14:01Z</time>
      </trkpt>
      <trkpt lat="39.41967" lon="-5.43635">
        <ele>768.705627</ele>
        <time>2010-05-21T08:14:02Z</time>
      </trkpt>
      <trkpt lat="39.41999" lon="-5.43627">
        <ele>765.840515</ele>
        <time>2010-05-21T08:14:03Z</time>
      </trkpt>
      <trkpt lat="39.42023" lon="-5.436">
        <ele>764.377441</ele>
        <time>2010-05-21T08:14:04Z</time>
      </trkpt>
      <trkpt lat="39.42028" lon="-5.43528">
        <ele>763.432556</ele>
        <time>2010-05-21T08:14:05Z</time>
      </trkpt>
      <trkpt lat="39.42029" lon="-5.43501">
        <ele>763.432556</ele>
        <time>2010-05-21T08:14:06Z</time>
      </trkpt>
      <trkpt lat="39.42029" lon="-5.43487">
        <ele>763.432556</ele>
        <time>2010-05-21T08:14:07Z</time>
      </trkpt>
      <trkpt lat="39.42019" lon="-5.4342">
        <ele>763.889771</ele>
        <time>2010-05-21T08:14:08Z</time>
      </trkpt>
      <trkpt lat="39.42011" lon="-5.43316">
        <ele>761.969482</ele>
        <time>2010-05-21T08:14:09Z</time>
      </trkpt>
      <trkpt lat="39.41995" lon="-5.43248">
        <ele>761.024658</ele>
        <time>2010-05-21T08:14:10Z</time>
      </trkpt>
      <trkpt lat="39.41982" lon="-5.4321">
        <ele>761.969482</ele>
        <time>2010-05-21T08:14:11Z</time>
      </trkpt>
      <trkpt lat="39.41969" lon="-5.4318">
        <ele>762.944885</ele>
        <time>2010-05-21T08:14:12Z</time>
      </trkpt>
      <trkpt lat="39.41972" lon="-5.4315">
        <ele>767.760681</ele>
        <time>2010-05-21T08:14:13Z</time>
      </trkpt>
      <trkpt lat="39.41976" lon="-5.43118">
        <ele>769.680969</ele>
        <time>2010-05-21T08:14:14Z</time>
      </trkpt>
      <trkpt lat="39.41972" lon="-5.43074">
        <ele>771.601196</ele>
        <time>2010-05-21T08:14:15Z</time>
      </trkpt>
      <trkpt lat="39.4197" lon="-5.43026">
        <ele>774.009094</ele>
        <time>2010-05-21T08:14:16Z</time>
      </trkpt>
      <trkpt lat="39.41974" lon="-5.43001">
        <ele>775.441711</ele>
        <time>2010-05-21T08:14:17Z</time>
      </trkpt>
      <trkpt lat="39.4197" lon="-5.42973">
        <ele>776.417053</ele>
        <time>2010-05-21T08:14:18Z</time>
      </trkpt>
      <trkpt lat="39.41979" lon="-5.42904">
        <ele>782.665466</ele>
        <time>2010-05-21T08:14:19Z</time>
      </trkpt>
      <trkpt lat="39.41979" lon="-5.4284">
        <ele>786.01825</ele>
        <time>2010-05-21T08:14:20Z</time>
      </trkpt>
      <trkpt lat="39.41983" lon="-5.4278">
        <ele>791.778931</ele>
        <time>2010-05-21T08:14:21Z</time>
      </trkpt>
      <trkpt lat="39.42005" lon="-5.42747">
        <ele>794.18689</ele>
        <time>2010-05-21T08:14:22Z</time>
      </trkpt>
      <trkpt lat="39.42035" lon="-5.42719">
        <ele>795.619446</ele>
        <time>2010-05-21T08:14:23Z</time>
      </trkpt>
      <trkpt lat="39.42037" lon="-5.42716">
        <ele>796.107117</ele>
        <time>2010-05-21T08:14:24Z</time>
      </trkpt>
      <trkpt lat="39.42081" lon="-5.42684">
        <ele>797.539734</ele>
        <time>2010-05-21T08:14:25Z</time>
      </trkpt>
      <trkpt lat="39.42105" lon="-5.42679">
        <ele>797.08252</ele>
        <time>2010-05-21T08:14:26Z</time>
      </trkpt>
      <trkpt lat="39.42141" lon="-5.42648">
        <ele>797.08252</ele>
        <time>2010-05-21T08:14:27Z</time>
      </trkpt>
      <trkpt lat="39.42146" lon="-5.4264">
        <ele>796.594788</ele>
        <time>2010-05-21T08:14:28Z</time>
      </trkpt>
      <trkpt lat="39.42126" lon="-5.42612">
        <ele>800.922974</ele>
        <time>2010-05-21T08:14:29Z</time>
      </trkpt>
      <trkpt lat="39.42099" lon="-5.42572">
        <ele>799.947571</ele>
        <time>2010-05-21T08:14:30Z</time>
      </trkpt>
      <trkpt lat="39.42058" lon="-5.42528">
        <ele>802.843201</ele>
        <time>2010-05-21T08:14:31Z</time>
      </trkpt>
      <trkpt lat="39.42045" lon="-5.42513">
        <ele>806.195984</ele>
        <time>2010-05-21T08:14:32Z</time>
      </trkpt>
      <trkpt lat="39.42035" lon="-5.42504">
        <ele>806.683716</ele>
        <time>2010-05-21T08:14:33Z</time>
      </trkpt>
      <trkpt lat="39.42007" lon="-5.42452">
        <ele>819.180481</ele>
        <time>2010-05-21T08:14:34Z</time>
      </trkpt>
      <trkpt lat="39.41979" lon="-5.42403">
        <ele>819.668152</ele>
        <time>2010-05-21T08:14:35Z</time>
      </trkpt>
      <trkpt lat="39.41966" lon="-5.42376">
        <ele>821.588379</ele>
        <time>2010-05-21T08:14:36Z</time>
      </trkpt>
      <trkpt lat="39.41963" lon="-5.42374">
        <ele>821.588379</ele>
        <time>2010-05-21T08:14:37Z</time>
      </trkpt>
      <trkpt lat="39.41944" lon="-5.42375">
        <ele>823.508667</ele>
        <time>2010-05-21T08:14:38Z</time>
      </trkpt>
      <trkpt lat="39.41905" lon="-5.42384">
        <ele>822.533325</ele>
        <time>2010-05-21T08:14:39Z</time>
      </trkpt>
      <trkpt lat="39.4188" lon="-5.42351">
        <ele>822.533325</ele>
        <time>2010-05-21T08:14:40Z</time>
      </trkpt>
      <trkpt lat="39.41841" lon="-5.42285">
        <ele>821.588379</ele>
        <time>2010-05-21T08:14:41Z</time>
      </trkpt>
      <trkpt lat="39.41801" lon="-5.42214">
        <ele>821.100708</ele>
        <time>2010-05-21T08:14:42Z</time>
      </trkpt>
      <trkpt lat="39.41768" lon="-5.42155">
        <ele>824.453491</ele>
        <time>2010-05-21T08:14:43Z</time>
      </trkpt>
      <trkpt lat="39.41766" lon="-5.42136">
        <ele>826.404236</ele>
        <time>2010-05-21T08:14:44Z</time>
      </trkpt>
      <trkpt lat="39.41762" lon="-5.42124">
        <ele>831.677307</ele>
        <time>2010-05-21T08:14:45Z</time>
      </trkpt>
      <trkpt lat="39.41748" lon="-5.4209">
        <ele>837.437988</ele>
        <time>2010-05-21T08:14:46Z</time>
      </trkpt>
      <trkpt lat="39.417" lon="-5.42029">
        <ele>839.358276</ele>
        <time>2010-05-21T08:14:47Z</time>
      </trkpt>
      <trkpt lat="39.416231" lon="-5.419816">
        <ele>841.278503</ele>
        <time>2010-05-21T08:14:48Z</time>
      </trkpt>
      <trkpt lat="39.415941" lon="-5.419492">
        <ele>851.397827</ele>
        <time>2010-05-21T08:14:49Z</time>
      </trkpt>
      <trkpt lat="39.416006" lon="-5.419378">
        <ele>859.078796</ele>
        <time>2010-05-21T08:14:50Z</time>
      </trkpt>
      <trkpt lat="39.416079" lon="-5.419346">
        <ele>863.406921</ele>
        <time>2010-05-21T08:14:51Z</time>
      </trkpt>
      <trkpt lat="39.416222" lon="-5.419374">
        <ele>872.063293</ele>
        <time>2010-05-21T08:14:52Z</time>
      </trkpt>
      <trkpt lat="39.41639" lon="-5.41937">
        <ele>900.897339</ele>
        <time>2010-05-21T08:14:53Z</time>
      </trkpt>
      <trkpt lat="39.4165" lon="-5.41927">
        <ele>899.464783</ele>
        <time>2010-05-21T08:14:54Z</time>
      </trkpt>
      <trkpt lat="39.41651" lon="-5.41925">
        <ele>900.409729</ele>
        <time>2010-05-21T08:14:55Z</time>
      </trkpt>
      <trkpt lat="39.41657" lon="-5.41906">
        <ele>902.329895</ele>
        <time>2010-05-21T08:14:56Z</time>
      </trkpt>
      <trkpt lat="39.41681" lon="-5.41852">
        <ele>906.658081</ele>
        <time>2010-05-21T08:14:57Z</time>
      </trkpt>
      <trkpt lat="39.41676" lon="-5.41808">
        <ele>910.010925</ele>
        <time>2010-05-21T08:14:58Z</time>
      </trkpt>
      <trkpt lat="39.41663" lon="-5.41757">
        <ele>918.210022</ele>
        <time>2010-05-21T08:14:59Z</time>
      </trkpt>
      <trkpt lat="39.41642" lon="-5.41727">
        <ele>921.562805</ele>
        <time>2010-05-21T08:15:00Z</time>
      </trkpt>
      <trkpt lat="39.41629" lon="-5.41661">
        <ele>928.756104</ele>
        <time>2010-05-21T08:15:01Z</time>
      </trkpt>
      <trkpt lat="39.41604" lon="-5.41588">
        <ele>933.571899</ele>
        <time>2010-05-21T08:15:02Z</time>
      </trkpt>
      <trkpt lat="39.41582" lon="-5.41527">
        <ele>934.05957</ele>
        <time>2010-05-21T08:15:03Z</time>
      </trkpt>
      <trkpt lat="39.41575" lon="-5.41497">
        <ele>934.05957</ele>
        <time>2010-05-21T08:15:04Z</time>
      </trkpt>
      <trkpt lat="39.41553" lon="-5.41388">
        <ele>932.627075</ele>
        <time>2010-05-21T08:15:05Z</time>
      </trkpt>
      <trkpt lat="39.41552" lon="-5.41382">
        <ele>932.139343</ele>
        <time>2010-05-21T08:15:06Z</time>
      </trkpt>
      <trkpt lat="39.41543" lon="-5.41366">
        <ele>931.651733</ele>
        <time>2010-05-21T08:15:07Z</time>
      </trkpt>
      <trkpt lat="39.41487" lon="-5.41296">
        <ele>927.811218</ele>
        <time>2010-05-21T08:15:08Z</time>
      </trkpt>
      <trkpt lat="39.41412" lon="-5.41238">
        <ele>922.50769</ele>
        <time>2010-05-21T08:15:09Z</time>
      </trkpt>
      <trkpt lat="39.41391" lon="-5.41209">
        <ele>922.050537</ele>
        <time>2010-05-21T08:15:10Z</time>
      </trkpt>
      <trkpt lat="39.41396" lon="-5.41211">
        <ele>919.642517</ele>
        <time>2010-05-21T08:15:11Z</time>
      </trkpt>
      <trkpt lat="39.41383" lon="-5.41209">
        <ele>923.483032</ele>
        <time>2010-05-21T08:15:12Z</time>
      </trkpt>
      <trkpt lat="39.41363" lon="-5.41179">
        <ele>924.915588</ele>
        <time>2010-05-21T08:15:13Z</time>
      </trkpt>
      <trkpt lat="39.41357" lon="-5.41171">
        <ele>924.458374</ele>
        <time>2010-05-21T08:15:14Z</time>
      </trkpt>
      <trkpt lat="39.41348" lon="-5.4115">
        <ele>923.483032</ele>
        <time>2010-05-21T08:15:15Z</time>
      </trkpt>
      <trkpt lat="39.41319" lon="-5.41082">
        <ele>921.075073</ele>
        <time>2010-05-21T08:15:16Z</time>
      </trkpt>
      <trkpt lat="39.413" lon="-5.41008">
        <ele>910.986267</ele>
        <time>2010-05-21T08:15:17Z</time>
      </trkpt>
      <trkpt lat="39.41284" lon="-5.40966">
        <ele>908.578308</ele>
        <time>2010-05-21T08:15:18Z</time>
      </trkpt>
      <trkpt lat="39.41283" lon="-5.40963">
        <ele>910.010925</ele>
        <time>2010-05-21T08:15:19Z</time>
      </trkpt>
      <trkpt lat="39.41269" lon="-5.40957">
        <ele>910.010925</ele>
        <time>2010-05-21T08:15:20Z</time>
      </trkpt>
      <trkpt lat="39.41261" lon="-5.40956">
        <ele>910.010925</ele>
        <time>2010-05-21T08:15:21Z</time>
      </trkpt>
      <trkpt lat="39.41235" lon="-5.40945">
        <ele>911.961609</ele>
        <time>2010-05-21T08:15:22Z</time>
      </trkpt>
      <trkpt lat="39.41207" lon="-5.40906">
        <ele>914.82666</ele>
        <time>2010-05-21T08:15:23Z</time>
      </trkpt>
      <trkpt lat="39.41199" lon="-5.4089">
        <ele>914.33905</ele>
        <time>2010-05-21T08:15:24Z</time>
      </trkpt>
      <trkpt lat="39.41186" lon="-5.40871">
        <ele>914.82666</ele>
        <time>2010-05-21T08:15:25Z</time>
      </trkpt>
      <trkpt lat="39.41159" lon="-5.40825">
        <ele>918.210022</ele>
        <time>2010-05-21T08:15:26Z</time>
      </trkpt>
      <trkpt lat="39.41131" lon="-5.408">
        <ele>919.642517</ele>
        <time>2010-05-21T08:15:27Z</time>
      </trkpt>
      <trkpt lat="39.41108" lon="-5.40779">
        <ele>916.746948</ele>
        <time>2010-05-21T08:15:28Z</time>
      </trkpt>
      <trkpt lat="39.41105" lon="-5.40776">
        <ele>916.746948</ele>
        <time>2010-05-21T08:15:29Z</time>
      </trkpt>
      <trkpt lat="39.41078" lon="-5.40762">
        <ele>917.23468</ele>
        <time>2010-05-21T08:15:30Z</time>
      </trkpt>
      <trkpt lat="39.41061" lon="-5.40738">
        <ele>916.259338</ele>
        <time>2010-05-21T08:15:31Z</time>
      </trkpt>
      <trkpt lat="39.41029" lon="-5.40709">
        <ele>916.259338</ele>
        <time>2010-05-21T08:15:32Z</time>
      </trkpt>
      <trkpt lat="39.41006" lon="-5.40687">
        <ele>904.737854</ele>
        <time>2010-05-21T08:15:33Z</time>
      </trkpt>
      <trkpt lat="39.41045" lon="-5.40681">
        <ele>895.593872</ele>
        <time>2010-05-21T08:15:34Z</time>
      </trkpt>
      <trkpt lat="39.41064" lon="-5.40685">
        <ele>895.136658</ele>
        <time>2010-05-21T08:15:35Z</time>
      </trkpt>
      <trkpt lat="39.4107" lon="-5.4067">
        <ele>889.833069</ele>
        <time>2010-05-21T08:15:36Z</time>
      </trkpt>
      <trkpt lat="39.41053" lon="-5.4064">
        <ele>887.912903</ele>
        <time>2010-05-21T08:15:37Z</time>
      </trkpt>
      <trkpt lat="39.41045" lon="-5.40598">
        <ele>883.584717</ele>
        <time>2010-05-21T08:15:38Z</time>
      </trkpt>
      <trkpt lat="39.41041" lon="-5.40555">
        <ele>880.719604</ele>
        <time>2010-05-21T08:15:39Z</time>
      </trkpt>
      <trkpt lat="39.41028" lon="-5.40508">
        <ele>876.391479</ele>
        <time>2010-05-21T08:15:40Z</time>
      </trkpt>
      <trkpt lat="39.41028" lon="-5.40495">
        <ele>870.600281</ele>
        <time>2010-05-21T08:15:41Z</time>
      </trkpt>
      <trkpt lat="39.4103" lon="-5.40497">
        <ele>868.679993</ele>
        <time>2010-05-21T08:15:42Z</time>
      </trkpt>
      <trkpt lat="39.41031" lon="-5.40499">
        <ele>868.679993</ele>
        <time>2010-05-21T08:15:43Z</time>
      </trkpt>
      <trkpt lat="39.41057" lon="-5.40529">
        <ele>869.167725</ele>
        <time>2010-05-21T08:15:44Z</time>
      </trkpt>
      <trkpt lat="39.41079" lon="-5.40566">
        <ele>868.679993</ele>
        <time>2010-05-21T08:15:45Z</time>
      </trkpt>
      <trkpt lat="39.41099" lon="-5.40592">
        <ele>866.759766</ele>
        <time>2010-05-21T08:15:46Z</time>
      </trkpt>
      <trkpt lat="39.41133" lon="-5.40617">
        <ele>865.327209</ele>
        <time>2010-05-21T08:15:47Z</time>
      </trkpt>
      <trkpt lat="39.41172" lon="-5.40657">
        <ele>864.351868</ele>
        <time>2010-05-21T08:15:48Z</time>
      </trkpt>
      <trkpt lat="39.41213" lon="-5.40671">
        <ele>863.894653</ele>
        <time>2010-05-21T08:15:49Z</time>
      </trkpt>
      <trkpt lat="39.41251" lon="-5.40685">
        <ele>859.566528</ele>
        <time>2010-05-21T08:15:50Z</time>
      </trkpt>
      <trkpt lat="39.41282" lon="-5.40715">
        <ele>855.695496</ele>
        <time>2010-05-21T08:15:51Z</time>
      </trkpt>
      <trkpt lat="39.41307" lon="-5.40714">
        <ele>853.77533</ele>
        <time>2010-05-21T08:15:52Z</time>
      </trkpt>
      <trkpt lat="39.41353" lon="-5.40716">
        <ele>850.910156</ele>
        <time>2010-05-21T08:15:53Z</time>
      </trkpt>
      <trkpt lat="39.41377" lon="-5.40717">
        <ele>850.910156</ele>
        <time>2010-05-21T08:15:54Z</time>
      </trkpt>
      <trkpt lat="39.41399" lon="-5.40675">
        <ele>847.526917</ele>
        <time>2010-05-21T08:15:55Z</time>
      </trkpt>
      <trkpt lat="39.41414" lon="-5.40644">
        <ele>834.572937</ele>
        <time>2010-05-21T08:15:56Z</time>
      </trkpt>
      <trkpt lat="39.41448" lon="-5.40623">
        <ele>832.164917</ele>
        <time>2010-05-21T08:15:57Z</time>
      </trkpt>
      <trkpt lat="39.41475" lon="-5.40606">
        <ele>831.189575</ele>
        <time>2010-05-21T08:15:58Z</time>
      </trkpt>
      <trkpt lat="39.41494" lon="-5.406">
        <ele>828.781738</ele>
        <time>2010-05-21T08:15:59Z</time>
      </trkpt>
      <trkpt lat="39.41523" lon="-5.4061">
        <ele>823.996277</ele>
        <time>2010-05-21T08:16:00Z</time>
      </trkpt>
      <trkpt lat="39.41528" lon="-5.40612">
        <ele>823.020935</ele>
        <time>2010-05-21T08:16:01Z</time>
      </trkpt>
      <trkpt lat="39.41566" lon="-5.40634">
        <ele>819.668152</ele>
        <time>2010-05-21T08:16:02Z</time>
      </trkpt>
      <trkpt lat="39.41618" lon="-5.40666">
        <ele>819.180481</ele>
        <time>2010-05-21T08:16:03Z</time>
      </trkpt>
      <trkpt lat="39.41658" lon="-5.40679">
        <ele>819.668152</ele>
        <time>2010-05-21T08:16:04Z</time>
      </trkpt>
      <trkpt lat="39.4167" lon="-5.40667">
        <ele>819.180481</ele>
        <time>2010-05-21T08:16:05Z</time>
      </trkpt>
      <trkpt lat="39.41675" lon="-5.40642">
        <ele>819.668152</ele>
        <time>2010-05-21T08:16:06Z</time>
      </trkpt>
      <trkpt lat="39.41694" lon="-5.4057">
        <ele>819.180481</ele>
        <time>2010-05-21T08:16:07Z</time>
      </trkpt>
      <trkpt lat="39.417" lon="-5.40562">
        <ele>818.69281</ele>
        <time>2010-05-21T08:16:08Z</time>
      </trkpt>
      <trkpt lat="39.41715" lon="-5.40545">
        <ele>818.205078</ele>
        <time>2010-05-21T08:16:09Z</time>
      </trkpt>
      <trkpt lat="39.41736" lon="-5.40526">
        <ele>817.747864</ele>
        <time>2010-05-21T08:16:10Z</time>
      </trkpt>
      <trkpt lat="39.41805" lon="-5.40532">
        <ele>811.011841</ele>
        <time>2010-05-21T08:16:11Z</time>
      </trkpt>
      <trkpt lat="39.41846" lon="-5.40541">
        <ele>798.027344</ele>
        <time>2010-05-21T08:16:12Z</time>
      </trkpt>
      <trkpt lat="39.41859" lon="-5.40547">
        <ele>793.699219</ele>
        <time>2010-05-21T08:16:13Z</time>
      </trkpt>
      <trkpt lat="39.41866" lon="-5.40551">
        <ele>787.450806</ele>
        <time>2010-05-21T08:16:14Z</time>
      </trkpt>
      <trkpt lat="39.41884" lon="-5.40554">
        <ele>788.426147</ele>
        <time>2010-05-21T08:16:15Z</time>
      </trkpt>
      <trkpt lat="39.41923" lon="-5.4057">
        <ele>786.963074</ele>
        <time>2010-05-21T08:16:16Z</time>
      </trkpt>
      <trkpt lat="39.41937" lon="-5.40586">
        <ele>785.530518</ele>
        <time>2010-05-21T08:16:17Z</time>
      </trkpt>
      <trkpt lat="39.41954" lon="-5.40576">
        <ele>783.122681</ele>
        <time>2010-05-21T08:16:18Z</time>
      </trkpt>
      <trkpt lat="39.41962" lon="-5.4052">
        <ele>779.769836</ele>
        <time>2010-05-21T08:16:19Z</time>
      </trkpt>
      <trkpt lat="39.41958" lon="-5.40479">
        <ele>777.361877</ele>
        <time>2010-05-21T08:16:20Z</time>
      </trkpt>
      <trkpt lat="39.41958" lon="-5.40461">
        <ele>773.033752</ele>
        <time>2010-05-21T08:16:21Z</time>
      </trkpt>
      <trkpt lat="39.41958" lon="-5.40459">
        <ele>772.546082</ele>
        <time>2010-05-21T08:16:22Z</time>
      </trkpt>
      <trkpt lat="39.41956" lon="-5.4042">
        <ele>770.625854</ele>
        <time>2010-05-21T08:16:23Z</time>
      </trkpt>
      <trkpt lat="39.41945" lon="-5.40391">
        <ele>768.217896</ele>
        <time>2010-05-21T08:16:24Z</time>
      </trkpt>
      <trkpt lat="39.419" lon="-5.40314">
        <ele>761.969482</ele>
        <time>2010-05-21T08:16:25Z</time>
      </trkpt>
      <trkpt lat="39.41893" lon="-5.40287">
        <ele>759.592102</ele>
        <time>2010-05-21T08:16:26Z</time>
      </trkpt>
      <trkpt lat="39.41853" lon="-5.40216">
        <ele>752.368286</ele>
        <time>2010-05-21T08:16:27Z</time>
      </trkpt>
      <trkpt lat="39.4185" lon="-5.40211">
        <ele>751.880676</ele>
        <time>2010-05-21T08:16:28Z</time>
      </trkpt>
      <trkpt lat="39.41842" lon="-5.4018">
        <ele>749.472717</ele>
        <time>2010-05-21T08:16:29Z</time>
      </trkpt>
      <trkpt lat="39.41828" lon="-5.40143">
        <ele>747.095337</ele>
        <time>2010-05-21T08:16:30Z</time>
      </trkpt>
      <trkpt lat="39.41808" lon="-5.40123">
        <ele>744.687317</ele>
        <time>2010-05-21T08:16:31Z</time>
      </trkpt>
      <trkpt lat="39.41793" lon="-5.40106">
        <ele>743.224304</ele>
        <time>2010-05-21T08:16:32Z</time>
      </trkpt>
      <trkpt lat="39.41784" lon="-5.40095">
        <ele>741.791748</ele>
        <time>2010-05-21T08:16:33Z</time>
      </trkpt>
      <trkpt lat="39.41761" lon="-5.40101">
        <ele>739.87146</ele>
        <time>2010-05-21T08:16:34Z</time>
      </trkpt>
      <trkpt lat="39.41762" lon="-5.40106">
        <ele>739.87146</ele>
        <time>2010-05-21T08:16:35Z</time>
      </trkpt>
      <trkpt lat="39.41767" lon="-5.40121">
        <ele>738.896118</ele>
        <time>2010-05-21T08:16:36Z</time>
      </trkpt>
      <trkpt lat="39.41775" lon="-5.40137">
        <ele>737.951294</ele>
        <time>2010-05-21T08:16:37Z</time>
      </trkpt>
      <trkpt lat="39.41799" lon="-5.4018">
        <ele>734.598511</ele>
        <time>2010-05-21T08:16:38Z</time>
      </trkpt>
      <trkpt lat="39.41802" lon="-5.40201">
        <ele>733.623108</ele>
        <time>2010-05-21T08:16:39Z</time>
      </trkpt>
      <trkpt lat="39.41805" lon="-5.40236">
        <ele>732.190552</ele>
        <time>2010-05-21T08:16:40Z</time>
      </trkpt>
      <trkpt lat="39.41787" lon="-5.40244">
        <ele>733.135437</ele>
        <time>2010-05-21T08:16:41Z</time>
      </trkpt>
      <trkpt lat="39.41737" lon="-5.40211">
        <ele>727.374695</ele>
        <time>2010-05-21T08:16:42Z</time>
      </trkpt>
      <trkpt lat="39.41725" lon="-5.40202">
        <ele>724.479065</ele>
        <time>2010-05-21T08:16:43Z</time>
      </trkpt>
      <trkpt lat="39.41686" lon="-5.40168">
        <ele>712.957703</ele>
        <time>2010-05-21T08:16:44Z</time>
      </trkpt>
      <trkpt lat="39.41676" lon="-5.40158">
        <ele>707.19696</ele>
        <time>2010-05-21T08:16:45Z</time>
      </trkpt>
      <trkpt lat="39.41674" lon="-5.40156">
        <ele>706.221619</ele>
        <time>2010-05-21T08:16:46Z</time>
      </trkpt>
      <trkpt lat="39.41657" lon="-5.40147">
        <ele>706.221619</ele>
        <time>2010-05-21T08:16:47Z</time>
      </trkpt>
      <trkpt lat="39.41622" lon="-5.40128">
        <ele>704.789063</ele>
        <time>2010-05-21T08:16:48Z</time>
      </trkpt>
      <trkpt lat="39.41593" lon="-5.40103">
        <ele>701.893433</ele>
        <time>2010-05-21T08:16:49Z</time>
      </trkpt>
      <trkpt lat="39.41545" lon="-5.4007">
        <ele>697.565308</ele>
        <time>2010-05-21T08:16:50Z</time>
      </trkpt>
      <trkpt lat="39.41525" lon="-5.4006">
        <ele>695.645081</ele>
        <time>2010-05-21T08:16:51Z</time>
      </trkpt>
      <trkpt lat="39.41464" lon="-5.40007">
        <ele>687.964111</ele>
        <time>2010-05-21T08:16:52Z</time>
      </trkpt>
      <trkpt lat="39.41456" lon="-5.4">
        <ele>686.988708</ele>
        <time>2010-05-21T08:16:53Z</time>
      </trkpt>
      <trkpt lat="39.41438" lon="-5.39965">
        <ele>685.556152</ele>
        <time>2010-05-21T08:16:54Z</time>
      </trkpt>
      <trkpt lat="39.414" lon="-5.39924">
        <ele>686.988708</ele>
        <time>2010-05-21T08:16:55Z</time>
      </trkpt>
      <trkpt lat="39.41398" lon="-5.3992">
        <ele>689.884277</ele>
        <time>2010-05-21T08:16:56Z</time>
      </trkpt>
      <trkpt lat="39.41405" lon="-5.39924">
        <ele>688.451721</ele>
        <time>2010-05-21T08:16:57Z</time>
      </trkpt>
      <trkpt lat="39.4138" lon="-5.39882">
        <ele>685.068481</ele>
        <time>2010-05-21T08:16:58Z</time>
      </trkpt>
      <trkpt lat="39.41359" lon="-5.39844">
        <ele>681.228027</ele>
        <time>2010-05-21T08:16:59Z</time>
      </trkpt>
      <trkpt lat="39.4135" lon="-5.39805">
        <ele>678.332397</ele>
        <time>2010-05-21T08:17:00Z</time>
      </trkpt>
      <trkpt lat="39.41358" lon="-5.39776">
        <ele>674.979614</ele>
        <time>2010-05-21T08:17:01Z</time>
      </trkpt>
      <trkpt lat="39.41365" lon="-5.3976">
        <ele>674.034668</ele>
        <time>2010-05-21T08:17:02Z</time>
      </trkpt>
      <trkpt lat="39.41404" lon="-5.39699">
        <ele>671.139099</ele>
        <time>2010-05-21T08:17:03Z</time>
      </trkpt>
      <trkpt lat="39.41407" lon="-5.39693">
        <ele>670.651428</ele>
        <time>2010-05-21T08:17:04Z</time>
      </trkpt>
      <trkpt lat="39.41456" lon="-5.3967">
        <ele>669.706543</ele>
        <time>2010-05-21T08:17:05Z</time>
      </trkpt>
      <trkpt lat="39.4147" lon="-5.39683">
        <ele>669.706543</ele>
        <time>2010-05-21T08:17:06Z</time>
      </trkpt>
      <trkpt lat="39.41484" lon="-5.397">
        <ele>670.163757</ele>
        <time>2010-05-21T08:17:07Z</time>
      </trkpt>
      <trkpt lat="39.41524" lon="-5.39719">
        <ele>669.218933</ele>
        <time>2010-05-21T08:17:08Z</time>
      </trkpt>
      <trkpt lat="39.41554" lon="-5.39754">
        <ele>667.298645</ele>
        <time>2010-05-21T08:17:09Z</time>
      </trkpt>
      <trkpt lat="39.41623" lon="-5.39774">
        <ele>660.562561</ele>
        <time>2010-05-21T08:17:10Z</time>
      </trkpt>
      <trkpt lat="39.41657" lon="-5.39765">
        <ele>661.537903</ele>
        <time>2010-05-21T08:17:11Z</time>
      </trkpt>
      <trkpt lat="39.41664" lon="-5.39766">
        <ele>661.537903</ele>
        <time>2010-05-21T08:17:12Z</time>
      </trkpt>
      <trkpt lat="39.41685" lon="-5.39778">
        <ele>659.130005</ele>
        <time>2010-05-21T08:17:13Z</time>
      </trkpt>
      <trkpt lat="39.41696" lon="-5.39784">
        <ele>658.642273</ele>
        <time>2010-05-21T08:17:14Z</time>
      </trkpt>
      <trkpt lat="39.41711" lon="-5.39793">
        <ele>657.666931</ele>
        <time>2010-05-21T08:17:15Z</time>
      </trkpt>
      <trkpt lat="39.41758" lon="-5.39797">
        <ele>656.722107</ele>
        <time>2010-05-21T08:17:16Z</time>
      </trkpt>
      <trkpt lat="39.41789" lon="-5.39815">
        <ele>653.826538</ele>
        <time>2010-05-21T08:17:17Z</time>
      </trkpt>
      <trkpt lat="39.4182" lon="-5.3983">
        <ele>654.314148</ele>
        <time>2010-05-21T08:17:18Z</time>
      </trkpt>
      <trkpt lat="39.41875" lon="-5.39842">
        <ele>657.209717</ele>
        <time>2010-05-21T08:17:19Z</time>
      </trkpt>
      <trkpt lat="39.41893" lon="-5.39803">
        <ele>657.666931</ele>
        <time>2010-05-21T08:17:20Z</time>
      </trkpt>
      <trkpt lat="39.41896" lon="-5.39752">
        <ele>654.80188</ele>
        <time>2010-05-21T08:17:21Z</time>
      </trkpt>
      <trkpt lat="39.41899" lon="-5.3974">
        <ele>653.826538</ele>
        <time>2010-05-21T08:17:22Z</time>
      </trkpt>
      <trkpt lat="39.41917" lon="-5.39736">
        <ele>651.90625</ele>
        <time>2010-05-21T08:17:23Z</time>
      </trkpt>
      <trkpt lat="39.41922" lon="-5.39717">
        <ele>651.90625</ele>
        <time>2010-05-21T08:17:24Z</time>
      </trkpt>
      <trkpt lat="39.41916" lon="-5.39677">
        <ele>647.578125</ele>
        <time>2010-05-21T08:17:25Z</time>
      </trkpt>
      <trkpt lat="39.41929" lon="-5.39628">
        <ele>635.081299</ele>
        <time>2010-05-21T08:17:26Z</time>
      </trkpt>
      <trkpt lat="39.41933" lon="-5.39619">
        <ele>633.648682</ele>
        <time>2010-05-21T08:17:27Z</time>
      </trkpt>
      <trkpt lat="39.41933" lon="-5.39619">
        <ele>633.161072</ele>
        <time>2010-05-21T08:17:28Z</time>
      </trkpt>
      <trkpt lat="39.41939" lon="-5.3961">
        <ele>633.161072</ele>
        <time>2010-05-21T08:17:29Z</time>
      </trkpt>
      <trkpt lat="39.42" lon="-5.39585">
        <ele>632.216125</ele>
        <time>2010-05-21T08:17:30Z</time>
      </trkpt>
      <trkpt lat="39.42024" lon="-5.39579">
        <ele>631.240784</ele>
        <time>2010-05-21T08:17:31Z</time>
      </trkpt>
      <trkpt lat="39.42045" lon="-5.39579">
        <ele>631.240784</ele>
        <time>2010-05-21T08:17:32Z</time>
      </trkpt>
      <trkpt lat="39.42066" lon="-5.39581">
        <ele>630.295898</ele>
        <time>2010-05-21T08:17:33Z</time>
      </trkpt>
      <trkpt lat="39.42105" lon="-5.39598">
        <ele>632.216125</ele>
        <time>2010-05-21T08:17:34Z</time>
      </trkpt>
      <trkpt lat="39.42148" lon="-5.39607">
        <ele>634.136414</ele>
        <time>2010-05-21T08:17:35Z</time>
      </trkpt>
      <trkpt lat="39.42141" lon="-5.39586">
        <ele>636.544312</ele>
        <time>2010-05-21T08:17:36Z</time>
      </trkpt>
      <trkpt lat="39.42086" lon="-5.39516">
        <ele>642.305054</ele>
        <time>2010-05-21T08:17:37Z</time>
      </trkpt>
      <trkpt lat="39.42078" lon="-5.39499">
        <ele>642.305054</ele>
        <time>2010-05-21T08:17:38Z</time>
      </trkpt>
      <trkpt lat="39.42068" lon="-5.3948">
        <ele>642.305054</ele>
        <time>2010-05-21T08:17:39Z</time>
      </trkpt>
      <trkpt lat="39.42065" lon="-5.39475">
        <ele>642.792664</ele>
        <time>2010-05-21T08:17:40Z</time>
      </trkpt>
      <trkpt lat="39.42009" lon="-5.39379">
        <ele>644.712952</ele>
        <time>2010-05-21T08:17:41Z</time>
      </trkpt>
      <trkpt lat="39.41972" lon="-5.39313">
        <ele>645.170166</ele>
        <time>2010-05-21T08:17:42Z</time>
      </trkpt>
      <trkpt lat="39.41938" lon="-5.39298">
        <ele>645.657837</ele>
        <time>2010-05-21T08:17:43Z</time>
      </trkpt>
      <trkpt lat="39.41885" lon="-5.39262">
        <ele>646.145508</ele>
        <time>2010-05-21T08:17:44Z</time>
      </trkpt>
      <trkpt lat="39.41864" lon="-5.39214">
        <ele>645.657837</ele>
        <time>2010-05-21T08:17:45Z</time>
      </trkpt>
      <trkpt lat="39.41851" lon="-5.39177">
        <ele>645.170166</ele>
        <time>2010-05-21T08:17:46Z</time>
      </trkpt>
      <trkpt lat="39.41837" lon="-5.39155">
        <ele>644.712952</ele>
        <time>2010-05-21T08:17:47Z</time>
      </trkpt>
      <trkpt lat="39.41843" lon="-5.3911">
        <ele>642.792664</ele>
        <time>2010-05-21T08:17:48Z</time>
      </trkpt>
      <trkpt lat="39.41849" lon="-5.39101">
        <ele>642.305054</ele>
        <time>2010-05-21T08:17:49Z</time>
      </trkpt>
      <trkpt lat="39.41845" lon="-5.3908">
        <ele>639.897095</ele>
        <time>2010-05-21T08:17:50Z</time>
      </trkpt>
      <trkpt lat="39.41841" lon="-5.39082">
        <ele>639.897095</ele>
        <time>2010-05-21T08:17:51Z</time>
      </trkpt>
      <trkpt lat="39.41841" lon="-5.39082">
        <ele>639.897095</ele>
        <time>2010-05-21T08:17:52Z</time>
      </trkpt>
      <trkpt lat="39.41821" lon="-5.39085">
        <ele>639.409485</ele>
        <time>2010-05-21T08:17:53Z</time>
      </trkpt>
      <trkpt lat="39.41805" lon="-5.39086">
        <ele>639.409485</ele>
        <time>2010-05-21T08:17:54Z</time>
      </trkpt>
      <trkpt lat="39.41791" lon="-5.39082">
        <ele>643.249878</ele>
        <time>2010-05-21T08:17:55Z</time>
      </trkpt>
      <trkpt lat="39.41776" lon="-5.39061">
        <ele>645.657837</ele>
        <time>2010-05-21T08:17:56Z</time>
      </trkpt>
      <trkpt lat="39.41767" lon="-5.39046">
        <ele>647.578125</ele>
        <time>2010-05-21T08:17:57Z</time>
      </trkpt>
      <trkpt lat="39.41758" lon="-5.38966">
        <ele>656.234375</ele>
        <time>2010-05-21T08:17:58Z</time>
      </trkpt>
      <trkpt lat="39.41759" lon="-5.38965">
        <ele>657.666931</ele>
        <time>2010-05-21T08:17:59Z</time>
      </trkpt>
      <trkpt lat="39.41759" lon="-5.38949">
        <ele>656.722107</ele>
        <time>2010-05-21T08:18:00Z</time>
      </trkpt>
      <trkpt lat="39.41739" lon="-5.38855">
        <ele>657.209717</ele>
        <time>2010-05-21T08:18:01Z</time>
      </trkpt>
      <trkpt lat="39.41714" lon="-5.38792">
        <ele>656.234375</ele>
        <time>2010-05-21T08:18:02Z</time>
      </trkpt>
      <trkpt lat="39.41723" lon="-5.38753">
        <ele>652.39386</ele>
        <time>2010-05-21T08:18:03Z</time>
      </trkpt>
      <trkpt lat="39.41733" lon="-5.38743">
        <ele>650.961365</ele>
        <time>2010-05-21T08:18:04Z</time>
      </trkpt>
      <trkpt lat="39.41733" lon="-5.38717">
        <ele>649.986023</ele>
        <time>2010-05-21T08:18:05Z</time>
      </trkpt>
      <trkpt lat="39.41717" lon="-5.38717">
        <ele>651.90625</ele>
        <time>2010-05-21T08:18:06Z</time>
      </trkpt>
      <trkpt lat="39.41695" lon="-5.38726">
        <ele>654.314148</ele>
        <time>2010-05-21T08:18:07Z</time>
      </trkpt>
      <trkpt lat="39.41675" lon="-5.38724">
        <ele>655.28949</ele>
        <time>2010-05-21T08:18:08Z</time>
      </trkpt>
      <trkpt lat="39.41671" lon="-5.38723">
        <ele>654.314148</ele>
        <time>2010-05-21T08:18:09Z</time>
      </trkpt>
      <trkpt lat="39.41662" lon="-5.38715">
        <ele>663.915344</ele>
        <time>2010-05-21T08:18:16Z</time>
      </trkpt>
      <trkpt lat="39.41647" lon="-5.3871">
        <ele>664.890686</ele>
        <time>2010-05-21T08:18:17Z</time>
      </trkpt>
      <trkpt lat="39.4162" lon="-5.38691">
        <ele>668.243469</ele>
        <time>2010-05-21T08:18:18Z</time>
      </trkpt>
      <trkpt lat="39.41602" lon="-5.38636">
        <ele>672.083984</ele>
        <time>2010-05-21T08:18:19Z</time>
      </trkpt>
      <trkpt lat="39.41603" lon="-5.38612">
        <ele>674.034668</ele>
        <time>2010-05-21T08:18:20Z</time>
      </trkpt>
      <trkpt lat="39.41592" lon="-5.38576">
        <ele>675.467285</ele>
        <time>2010-05-21T08:18:21Z</time>
      </trkpt>
      <trkpt lat="39.41566" lon="-5.38549">
        <ele>676.41217</ele>
        <time>2010-05-21T08:18:22Z</time>
      </trkpt>
      <trkpt lat="39.41519" lon="-5.38515">
        <ele>675.467285</ele>
        <time>2010-05-21T08:18:23Z</time>
      </trkpt>
      <trkpt lat="39.41514" lon="-5.38503">
        <ele>675.467285</ele>
        <time>2010-05-21T08:18:24Z</time>
      </trkpt>
      <trkpt lat="39.41471" lon="-5.38477">
        <ele>677.387512</ele>
        <time>2010-05-21T08:18:25Z</time>
      </trkpt>
      <trkpt lat="39.41458" lon="-5.38459">
        <ele>676.41217</ele>
        <time>2010-05-21T08:18:26Z</time>
      </trkpt>
      <trkpt lat="39.41447" lon="-5.38435">
        <ele>676.41217</ele>
        <time>2010-05-21T08:18:27Z</time>
      </trkpt>
      <trkpt lat="39.41406" lon="-5.38412">
        <ele>675.954956</ele>
        <time>2010-05-21T08:18:28Z</time>
      </trkpt>
      <trkpt lat="39.41371" lon="-5.3841">
        <ele>674.979614</ele>
        <time>2010-05-21T08:18:29Z</time>
      </trkpt>
      <trkpt lat="39.41348" lon="-5.38379">
        <ele>673.059326</ele>
        <time>2010-05-21T08:18:30Z</time>
      </trkpt>
      <trkpt lat="39.41329" lon="-5.38391">
        <ele>673.059326</ele>
        <time>2010-05-21T08:18:31Z</time>
      </trkpt>
      <trkpt lat="39.41307" lon="-5.38383">
        <ele>672.083984</ele>
        <time>2010-05-21T08:18:32Z</time>
      </trkpt>
      <trkpt lat="39.41298" lon="-5.38373">
        <ele>672.571716</ele>
        <time>2010-05-21T08:18:33Z</time>
      </trkpt>
      <trkpt lat="39.4129" lon="-5.38361">
        <ele>673.059326</ele>
        <time>2010-05-21T08:18:34Z</time>
      </trkpt>
      <trkpt lat="39.41282" lon="-5.38348">
        <ele>673.059326</ele>
        <time>2010-05-21T08:18:35Z</time>
      </trkpt>
      <trkpt lat="39.41269" lon="-5.38307">
        <ele>672.083984</ele>
        <time>2010-05-21T08:18:36Z</time>
      </trkpt>
      <trkpt lat="39.41262" lon="-5.38216">
        <ele>668.731201</ele>
        <time>2010-05-21T08:18:37Z</time>
      </trkpt>
      <trkpt lat="39.41232" lon="-5.3816">
        <ele>669.218933</ele>
        <time>2010-05-21T08:18:38Z</time>
      </trkpt>
      <trkpt lat="39.41232" lon="-5.3816">
        <ele>669.706543</ele>
        <time>2010-05-21T08:18:39Z</time>
      </trkpt>
      <trkpt lat="39.4123" lon="-5.38159">
        <ele>669.706543</ele>
        <time>2010-05-21T08:18:40Z</time>
      </trkpt>
      <trkpt lat="39.41211" lon="-5.38125">
        <ele>666.810974</ele>
        <time>2010-05-21T08:18:41Z</time>
      </trkpt>
      <trkpt lat="39.41206" lon="-5.38073">
        <ele>665.835571</ele>
        <time>2010-05-21T08:18:42Z</time>
      </trkpt>
      <trkpt lat="39.41212" lon="-5.3804">
        <ele>666.323303</ele>
        <time>2010-05-21T08:18:43Z</time>
      </trkpt>
      <trkpt lat="39.41197" lon="-5.37976">
        <ele>650.961365</ele>
        <time>2010-05-21T08:18:44Z</time>
      </trkpt>
      <trkpt lat="39.41188" lon="-5.37973">
        <ele>649.986023</ele>
        <time>2010-05-21T08:18:45Z</time>
      </trkpt>
      <trkpt lat="39.41176" lon="-5.37964">
        <ele>649.041077</ele>
        <time>2010-05-21T08:18:46Z</time>
      </trkpt>
      <trkpt lat="39.41138" lon="-5.3795">
        <ele>645.657837</ele>
        <time>2010-05-21T08:18:47Z</time>
      </trkpt>
      <trkpt lat="39.41117" lon="-5.37914">
        <ele>643.73761</ele>
        <time>2010-05-21T08:18:48Z</time>
      </trkpt>
      <trkpt lat="39.41118" lon="-5.37907">
        <ele>643.249878</ele>
        <time>2010-05-21T08:18:49Z</time>
      </trkpt>
      <trkpt lat="39.41127" lon="-5.37858">
        <ele>641.817322</ele>
        <time>2010-05-21T08:18:50Z</time>
      </trkpt>
      <trkpt lat="39.41141" lon="-5.37825">
        <ele>641.329712</ele>
        <time>2010-05-21T08:18:51Z</time>
      </trkpt>
      <trkpt lat="39.41151" lon="-5.37802">
        <ele>650.961365</ele>
        <time>2010-05-21T08:18:52Z</time>
      </trkpt>
      <trkpt lat="39.41145" lon="-5.37794">
        <ele>652.881592</ele>
        <time>2010-05-21T08:18:53Z</time>
      </trkpt>
      <trkpt lat="39.41142" lon="-5.37797">
        <ele>656.234375</ele>
        <time>2010-05-21T08:18:54Z</time>
      </trkpt>
      <trkpt lat="39.41143" lon="-5.37797">
        <ele>656.722107</ele>
        <time>2010-05-21T08:18:55Z</time>
      </trkpt>
      <trkpt lat="39.41135" lon="-5.37808">
        <ele>657.209717</ele>
        <time>2010-05-21T08:18:56Z</time>
      </trkpt>
      <trkpt lat="39.41106" lon="-5.37836">
        <ele>658.154663</ele>
        <time>2010-05-21T08:18:57Z</time>
      </trkpt>
      <trkpt lat="39.41077" lon="-5.37841">
        <ele>658.642273</ele>
        <time>2010-05-21T08:18:58Z</time>
      </trkpt>
      <trkpt lat="39.41063" lon="-5.37839">
        <ele>658.154663</ele>
        <time>2010-05-21T08:18:59Z</time>
      </trkpt>
      <trkpt lat="39.41065" lon="-5.37835">
        <ele>657.209717</ele>
        <time>2010-05-21T08:19:00Z</time>
      </trkpt>
      <trkpt lat="39.41061" lon="-5.3784">
        <ele>657.666931</ele>
        <time>2010-05-21T08:19:01Z</time>
      </trkpt>
      <trkpt lat="39.41036" lon="-5.37882">
        <ele>658.154663</ele>
        <time>2010-05-21T08:19:02Z</time>
      </trkpt>
      <trkpt lat="39.41031" lon="-5.3788">
        <ele>658.154663</ele>
        <time>2010-05-21T08:19:03Z</time>
      </trkpt>
      <trkpt lat="39.40962" lon="-5.37842">
        <ele>656.234375</ele>
        <time>2010-05-21T08:19:04Z</time>
      </trkpt>
      <trkpt lat="39.40948" lon="-5.37836">
        <ele>656.234375</ele>
        <time>2010-05-21T08:19:05Z</time>
      </trkpt>
      <trkpt lat="39.40925" lon="-5.37826">
        <ele>655.746704</ele>
        <time>2010-05-21T08:19:06Z</time>
      </trkpt>
      <trkpt lat="39.409" lon="-5.37827">
        <ele>655.746704</ele>
        <time>2010-05-21T08:19:07Z</time>
      </trkpt>
      <trkpt lat="39.40857" lon="-5.37815">
        <ele>657.209717</ele>
        <time>2010-05-21T08:19:08Z</time>
      </trkpt>
      <trkpt lat="39.40819" lon="-5.37799">
        <ele>658.642273</ele>
        <time>2010-05-21T08:19:09Z</time>
      </trkpt>
      <trkpt lat="39.4079" lon="-5.37789">
        <ele>658.642273</ele>
        <time>2010-05-21T08:19:10Z</time>
      </trkpt>
      <trkpt lat="39.40775" lon="-5.37787">
        <ele>659.130005</ele>
        <time>2010-05-21T08:19:11Z</time>
      </trkpt>
      <trkpt lat="39.407342" lon="-5.377795">
        <ele>658.154663</ele>
        <time>2010-05-21T08:19:12Z</time>
      </trkpt>
      <trkpt lat="39.40732" lon="-5.37785">
        <ele>684.123596</ele>
        <time>2010-05-19T19:09:05Z</time>
      </trkpt>
      <trkpt lat="39.40828" lon="-5.37613">
        <ele>694.212524</ele>
        <time>2010-05-19T19:09:05Z</time>
      </trkpt>
      <trkpt lat="39.4084" lon="-5.37552">
        <ele>708.629517</ele>
        <time>2010-05-19T19:09:05Z</time>
      </trkpt>
      <trkpt lat="39.41003" lon="-5.37331">
        <ele>750.93573</ele>
        <time>2010-05-19T19:09:05Z</time>
      </trkpt>
      <trkpt lat="39.41137" lon="-5.37254">
        <ele>769.680969</ele>
        <time>2010-05-19T19:09:05Z</time>
      </trkpt>
      <trkpt lat="39.41275" lon="-5.37021">
        <ele>793.211487</ele>
        <time>2010-05-19T19:09:05Z</time>
      </trkpt>
      <trkpt lat="39.4138" lon="-5.36939">
        <ele>797.539734</ele>
        <time>2010-05-19T19:09:05Z</time>
      </trkpt>
      <trkpt lat="39.41459" lon="-5.36742">
        <ele>812.932129</ele>
        <time>2010-05-19T19:09:04Z</time>
      </trkpt>
      <trkpt lat="39.41561" lon="-5.36633">
        <ele>831.677307</ele>
        <time>2010-05-19T19:09:04Z</time>
      </trkpt>
      <trkpt lat="39.41595" lon="-5.36564">
        <ele>843.686401</ele>
        <time>2010-05-19T19:09:04Z</time>
      </trkpt>
      <trkpt lat="39.41691" lon="-5.36516">
        <ele>860.511353</ele>
        <time>2010-05-19T19:09:04Z</time>
      </trkpt>
      <trkpt lat="39.41728" lon="-5.36456">
        <ele>863.894653</ele>
        <time>2010-05-19T19:09:04Z</time>
      </trkpt>
      <trkpt lat="39.41997" lon="-5.36205">
        <ele>885.504944</ele>
        <time>2010-05-19T19:09:04Z</time>
      </trkpt>
      <trkpt lat="39.42213" lon="-5.36185">
        <ele>900.409729</ele>
        <time>2010-05-19T19:09:04Z</time>
      </trkpt>
      <trkpt lat="39.42359" lon="-5.36065">
        <ele>921.075073</ele>
        <time>2010-05-19T19:09:04Z</time>
      </trkpt>
      <trkpt lat="39.42422" lon="-5.35967">
        <ele>934.547302</ele>
        <time>2010-05-19T19:09:04Z</time>
      </trkpt>
      <trkpt lat="39.42463" lon="-5.35942">
        <ele>940.307983</ele>
        <time>2010-05-19T19:09:04Z</time>
      </trkpt>
      <trkpt lat="39.4257" lon="-5.35975">
        <ele>950.396912</ele>
        <time>2010-05-19T19:09:04Z</time>
      </trkpt>
      <trkpt lat="39.42691" lon="-5.35964">
        <ele>964.813904</ele>
        <time>2010-05-19T19:09:04Z</time>
      </trkpt>
      <trkpt lat="39.42628" lon="-5.3572">
        <ele>967.221863</ele>
        <time>2010-05-19T19:09:04Z</time>
      </trkpt>
      <trkpt lat="39.42649" lon="-5.35632">
        <ele>969.14209</ele>
        <time>2010-05-19T19:09:04Z</time>
      </trkpt>
      <trkpt lat="39.42745" lon="-5.35611">
        <ele>972.52533</ele>
        <time>2010-05-19T19:09:04Z</time>
      </trkpt>
      <trkpt lat="39.42832" lon="-5.35543">
        <ele>968.654419</ele>
        <time>2010-05-19T19:09:04Z</time>
      </trkpt>
      <trkpt lat="39.42834" lon="-5.3537">
        <ele>954.237366</ele>
        <time>2010-05-19T19:09:04Z</time>
      </trkpt>
      <trkpt lat="39.4292" lon="-5.35308">
        <ele>948.476685</ele>
        <time>2010-05-19T19:09:04Z</time>
      </trkpt>
      <trkpt lat="39.4299" lon="-5.35188">
        <ele>947.044128</ele>
        <time>2010-05-19T19:09:04Z</time>
      </trkpt>
      <trkpt lat="39.43128" lon="-5.35122">
        <ele>936.9552</ele>
        <time>2010-05-19T19:09:04Z</time>
      </trkpt>
      <trkpt lat="39.43229" lon="-5.35103">
        <ele>916.259338</ele>
        <time>2010-05-19T19:09:04Z</time>
      </trkpt>
      <trkpt lat="39.43263" lon="-5.35062">
        <ele>909.065979</ele>
        <time>2010-05-19T19:09:04Z</time>
      </trkpt>
      <trkpt lat="39.43255" lon="-5.34905">
        <ele>887.425171</ele>
        <time>2010-05-19T19:09:04Z</time>
      </trkpt>
      <trkpt lat="39.43304" lon="-5.34872">
        <ele>877.823975</ele>
        <time>2010-05-19T19:09:04Z</time>
      </trkpt>
      <trkpt lat="39.43452" lon="-5.34531">
        <ele>825.916565</ele>
        <time>2010-05-19T19:09:04Z</time>
      </trkpt>
      <trkpt lat="39.43534" lon="-5.34402">
        <ele>805.708313</ele>
        <time>2010-05-19T19:09:04Z</time>
      </trkpt>
      <trkpt lat="39.436" lon="-5.34222">
        <ele>776.417053</ele>
        <time>2010-05-19T19:09:04Z</time>
      </trkpt>
      <trkpt lat="39.43746" lon="-5.34174">
        <ele>757.641357</ele>
        <time>2010-05-19T19:09:04Z</time>
      </trkpt>
      <trkpt lat="39.43807" lon="-5.34061">
        <ele>754.288574</ele>
        <time>2010-05-19T19:09:04Z</time>
      </trkpt>
      <trkpt lat="39.43863" lon="-5.3402">
        <ele>748.040161</ele>
        <time>2010-05-19T19:09:04Z</time>
      </trkpt>
      <trkpt lat="39.43895" lon="-5.34003">
        <ele>745.144531</ele>
        <time>2010-05-19T19:09:04Z</time>
      </trkpt>
      <trkpt lat="39.43951" lon="-5.34024">
        <ele>736.031067</ele>
        <time>2010-05-19T19:09:04Z</time>
      </trkpt>
      <trkpt lat="39.43962" lon="-5.33948">
        <ele>726.887085</ele>
        <time>2010-05-19T19:09:04Z</time>
      </trkpt>
      <trkpt lat="39.44057" lon="-5.3386">
        <ele>718.718384</ele>
        <time>2010-05-19T19:09:04Z</time>
      </trkpt>
      <trkpt lat="39.44122" lon="-5.33842">
        <ele>713.445374</ele>
        <time>2010-05-19T19:09:04Z</time>
      </trkpt>
      <trkpt lat="39.44197" lon="-5.33874">
        <ele>703.356506</ele>
        <time>2010-05-19T19:09:04Z</time>
      </trkpt>
      <trkpt lat="39.44179" lon="-5.33773">
        <ele>692.779907</ele>
        <time>2010-05-19T19:09:04Z</time>
      </trkpt>
      <trkpt lat="39.44057" lon="-5.33631">
        <ele>673.547058</ele>
        <time>2010-05-19T19:09:04Z</time>
      </trkpt>
      <trkpt lat="39.44045" lon="-5.33217">
        <ele>647.090393</ele>
        <time>2010-05-19T19:09:04Z</time>
      </trkpt>
      <trkpt lat="39.43957" lon="-5.33147">
        <ele>633.648682</ele>
        <time>2010-05-19T19:09:04Z</time>
      </trkpt>
      <trkpt lat="39.43945" lon="-5.33105">
        <ele>627.888</ele>
        <time>2010-05-19T19:09:04Z</time>
      </trkpt>
      <trkpt lat="39.43944" lon="-5.33027">
        <ele>618.256348</ele>
        <time>2010-05-19T19:09:04Z</time>
      </trkpt>
      <trkpt lat="39.43987" lon="-5.32948">
        <ele>605.302307</ele>
        <time>2010-05-19T19:09:04Z</time>
      </trkpt>
      <trkpt lat="39.44227" lon="-5.32864">
        <ele>573.572632</ele>
        <time>2010-05-19T19:09:04Z</time>
      </trkpt>
      <trkpt lat="39.44268" lon="-5.32873">
        <ele>568.269104</ele>
        <time>2010-05-19T19:09:04Z</time>
      </trkpt>
      <trkpt lat="39.4432" lon="-5.32982">
        <ele>562.508423</ele>
        <time>2010-05-19T19:09:04Z</time>
      </trkpt>
      <trkpt lat="39.44372" lon="-5.33037">
        <ele>557.235352</ele>
        <time>2010-05-19T19:09:04Z</time>
      </trkpt>
      <trkpt lat="39.44446" lon="-5.3307">
        <ele>552.419556</ele>
        <time>2010-05-19T19:09:04Z</time>
      </trkpt>
      <trkpt lat="39.44496" lon="-5.32985">
        <ele>559.155579</ele>
        <time>2010-05-19T19:09:04Z</time>
      </trkpt>
      <trkpt lat="39.44509" lon="-5.32885">
        <ele>556.26001</ele>
        <time>2010-05-19T19:09:04Z</time>
      </trkpt>
      <trkpt lat="39.44639" lon="-5.32901">
        <ele>574.029846</ele>
        <time>2010-05-19T19:09:04Z</time>
      </trkpt>
      <trkpt lat="39.44726" lon="-5.32953">
        <ele>583.661499</ele>
        <time>2010-05-19T19:09:04Z</time>
      </trkpt>
      <trkpt lat="39.44803" lon="-5.32903">
        <ele>593.262756</ele>
        <time>2010-05-19T19:09:04Z</time>
      </trkpt>
      <trkpt lat="39.44863" lon="-5.32916">
        <ele>599.023438</ele>
        <time>2010-05-19T19:09:04Z</time>
      </trkpt>
      <trkpt lat="39.44993" lon="-5.33011">
        <ele>610.087646</ele>
        <time>2010-05-19T19:09:04Z</time>
      </trkpt>
      <trkpt lat="39.45112" lon="-5.32946">
        <ele>620.176575</ele>
        <time>2010-05-19T19:09:04Z</time>
      </trkpt>
      <trkpt lat="39.45018" lon="-5.32838">
        <ele>621.639587</ele>
        <time>2010-05-19T19:09:04Z</time>
      </trkpt>
      <trkpt lat="39.45051" lon="-5.3277">
        <ele>630.295898</ele>
        <time>2010-05-19T19:09:04Z</time>
      </trkpt>
      <trkpt lat="39.45137" lon="-5.32796">
        <ele>634.593628</ele>
        <time>2010-05-19T19:09:04Z</time>
      </trkpt>
      <trkpt lat="39.4521" lon="-5.3274">
        <ele>637.001465</ele>
        <time>2010-05-19T19:09:04Z</time>
      </trkpt>
    </trkseg>
  </trk>
</gpx>
